[[{"header":{"parameterUnit":"m.s-1","parameterCategory":1,"la1":30.6,"la2":29.2853,"lo1":-89.7004,"lo2":-87.6739,"dy":0.0162,"dx":0.0183,"nx":112,"ny":82,"refTime":"2023-03-24T12:00:00:Z","depth":0,"parameterNumber":2,"parameterNumberName":"U-component_of_WINDS"},"data":[0.0,0.0,0.0,0.0,0.0,0.0,0.0,0.0,0.0,0.0,0.0,0.0,0.0,0.0,0.0,0.0,0.0,0.0,0.0,0.0,0.0,0.0,0.0,0.0,0.0,0.0,0.0,0.0,0.0,0.0,0.0,0.0,0.0,0.0,0.0,0.0,0.0,0.0,0.0,0.0,0.0,0.0,0.0,0.0,0.0,0.0,0.0,0.0,0.0,0.0,0.0,0.0,0.0,0.0,0.0,0.0,0.0,0.0,0.0,0.0,0.0,0.0,0.0,0.0,0.0,0.0,0.0,0.0,0.0,0.0,0.0,0.0,0.0,0.0,0.0,0.0,0.0,0.0,0.0,0.0,0.0,0.0,0.0,0.0,0.0,0.0,0.0,0.0,0.0,0.0,-3.1719,-3.0976,-3.0898,-3.0898,-3.0898,-3.0898,-3.1621,-3.3281,0.0,0.0,0.0,0.0,0.0,0.0,0.0,0.0,0.0,0.0,0.0,0.0,0.0,0.0,0.0,0.0,0.0,0.0,0.0,0.0,0.0,0.0,0.0,0.0,0.0,0.0,0.0,0.0,0.0,0.0,0.0,0.0,0.0,0.0,0.0,0.0,0.0,0.0,0.0,0.0,0.0,0.0,0.0,0.0,0.0,0.0,0.0,0.0,0.0,0.0,0.0,0.0,0.0,0.0,0.0,0.0,0.0,0.0,0.0,0.0,0.0,0.0,0.0,0.0,0.0,0.0,0.0,0.0,0.0,0.0,0.0,0.0,0.0,0.0,0.0,0.0,0.0,0.0,0.0,0.0,0.0,0.0,0.0,0.0,0.0,0.0,0.0,0.0,0.0,0.0,0.0,0.0,0.0,0.0,0.0,0.0,0.0,0.0,0.0,0.0,0.0,0.0,0.0,0.0,-3.1055,-3.0918,-3.0898,-3.0898,-3.0898,-3.0898,-3.1621,-3.3281,0.0,0.0,0.0,0.0,0.0,0.0,0.0,0.0,0.0,0.0,0.0,0.0,0.0,0.0,0.0,0.0,0.0,0.0,0.0,0.0,0.0,0.0,0.0,0.0,0.0,0.0,0.0,0.0,0.0,0.0,0.0,0.0,0.0,0.0,0.0,0.0,0.0,0.0,0.0,0.0,0.0,0.0,0.0,0.0,0.0,0.0,0.0,0.0,0.0,0.0,0.0,0.0,0.0,0.0,0.0,0.0,0.0,0.0,0.0,0.0,0.0,0.0,0.0,0.0,0.0,0.0,0.0,0.0,0.0,0.0,0.0,0.0,0.0,0.0,0.0,0.0,0.0,0.0,0.0,0.0,0.0,0.0,0.0,0.0,0.0,0.0,0.0,0.0,0.0,0.0,0.0,0.0,0.0,0.0,0.0,0.0,0.0,0.0,0.0,0.0,0.0,0.0,0.0,-3.1367,-3.0898,-3.0898,-3.0898,-3.0898,-3.0898,-3.0898,-3.1621,-3.3281,-3.3398,0.0,0.0,0.0,0.0,0.0,0.0,0.0,0.0,0.0,0.0,0.0,0.0,0.0,0.0,0.0,0.0,0.0,0.0,0.0,0.0,0.0,0.0,0.0,0.0,0.0,0.0,0.0,0.0,0.0,0.0,0.0,0.0,0.0,0.0,0.0,0.0,0.0,0.0,0.0,0.0,0.0,0.0,0.0,0.0,0.0,0.0,0.0,0.0,0.0,0.0,0.0,0.0,0.0,0.0,0.0,0.0,0.0,0.0,0.0,0.0,0.0,0.0,0.0,0.0,0.0,0.0,0.0,0.0,0.0,0.0,0.0,0.0,0.0,0.0,0.0,0.0,0.0,0.0,0.0,0.0,0.0,0.0,0.0,0.0,0.0,0.0,0.0,0.0,0.0,0.0,0.0,0.0,0.0,0.0,0.0,0.0,0.0,0.0,0.0,0.0,0.0,0.0,-3.0898,-3.0898,-3.0898,-3.0898,-3.0898,-3.0898,-3.0898,-3.1523,-3.3027,-3.3301,0.0,0.0,0.0,0.0,0.0,0.0,0.0,0.0,0.0,0.0,0.0,0.0,0.0,0.0,0.0,0.0,0.0,0.0,0.0,0.0,0.0,0.0,0.0,0.0,0.0,0.0,0.0,0.0,0.0,0.0,0.0,0.0,0.0,0.0,0.0,0.0,0.0,0.0,0.0,0.0,0.0,0.0,0.0,0.0,0.0,0.0,0.0,0.0,0.0,0.0,0.0,0.0,0.0,0.0,0.0,0.0,0.0,0.0,0.0,0.0,0.0,0.0,0.0,0.0,0.0,0.0,0.0,0.0,0.0,0.0,0.0,0.0,0.0,0.0,0.0,0.0,0.0,0.0,0.0,0.0,0.0,0.0,0.0,0.0,0.0,0.0,0.0,0.0,0.0,0.0,0.0,0.0,0.0,0.0,0.0,0.0,0.0,0.0,0.0,0.0,0.0,0.0,-3.0898,-3.0898,-3.0898,-3.0898,-3.0898,-3.0898,-3.0898,-3.1309,-3.2226,-3.2988,0.0,0.0,0.0,0.0,0.0,0.0,0.0,0.0,0.0,0.0,0.0,0.0,0.0,0.0,0.0,0.0,0.0,0.0,0.0,0.0,0.0,0.0,0.0,0.0,0.0,0.0,0.0,0.0,0.0,0.0,0.0,0.0,0.0,0.0,0.0,0.0,0.0,0.0,0.0,0.0,0.0,0.0,0.0,0.0,0.0,0.0,0.0,0.0,0.0,0.0,0.0,0.0,0.0,0.0,0.0,0.0,0.0,0.0,0.0,0.0,0.0,0.0,0.0,0.0,0.0,0.0,0.0,0.0,0.0,0.0,0.0,0.0,0.0,0.0,0.0,0.0,0.0,0.0,0.0,0.0,0.0,0.0,0.0,0.0,0.0,0.0,0.0,0.0,0.0,0.0,0.0,0.0,0.0,0.0,0.0,0.0,0.0,0.0,0.0,0.0,0.0,0.0,-3.0898,-3.0898,0.0,-3.0898,-3.0898,-3.0898,-3.0898,-3.1269,-3.2148,0.0,0.0,0.0,0.0,0.0,0.0,0.0,0.0,0.0,0.0,0.0,0.0,0.0,0.0,0.0,0.0,0.0,0.0,0.0,0.0,0.0,0.0,0.0,0.0,0.0,0.0,0.0,0.0,0.0,0.0,0.0,0.0,0.0,0.0,0.0,0.0,0.0,0.0,0.0,0.0,0.0,0.0,0.0,0.0,0.0,0.0,0.0,0.0,0.0,0.0,0.0,0.0,0.0,0.0,0.0,0.0,0.0,0.0,0.0,0.0,0.0,0.0,0.0,0.0,0.0,0.0,0.0,0.0,0.0,0.0,0.0,0.0,0.0,0.0,0.0,0.0,0.0,0.0,0.0,0.0,0.0,0.0,0.0,0.0,0.0,0.0,0.0,0.0,0.0,0.0,0.0,0.0,0.0,0.0,0.0,0.0,0.0,0.0,0.0,0.0,0.0,0.0,-3.0898,-3.0898,-3.0898,0.0,-3.0898,-3.0898,-3.0898,-3.0898,-3.1152,-3.1758,0.0,0.0,0.0,0.0,0.0,0.0,0.0,0.0,0.0,0.0,0.0,0.0,0.0,0.0,0.0,0.0,0.0,0.0,0.0,0.0,0.0,0.0,0.0,0.0,0.0,0.0,0.0,0.0,0.0,0.0,0.0,0.0,0.0,0.0,0.0,0.0,0.0,0.0,0.0,0.0,0.0,0.0,0.0,0.0,0.0,0.0,0.0,0.0,0.0,0.0,0.0,0.0,0.0,0.0,0.0,0.0,0.0,0.0,0.0,0.0,0.0,0.0,0.0,0.0,0.0,0.0,0.0,0.0,0.0,0.0,0.0,0.0,0.0,0.0,0.0,0.0,0.0,0.0,0.0,0.0,0.0,0.0,0.0,0.0,0.0,0.0,0.0,0.0,0.0,0.0,0.0,0.0,0.0,0.0,0.0,0.0,0.0,0.0,0.0,0.0,0.0,0.0,-3.0898,-3.0898,-3.0898,-3.0898,-3.0898,-3.0898,-3.0898,-3.0898,-3.0898,0.0,0.0,0.0,0.0,0.0,0.0,0.0,0.0,0.0,0.0,0.0,0.0,0.0,0.0,0.0,0.0,0.0,0.0,0.0,0.0,0.0,0.0,0.0,0.0,0.0,0.0,0.0,0.0,0.0,0.0,0.0,0.0,0.0,0.0,0.0,0.0,0.0,0.0,0.0,0.0,0.0,0.0,0.0,0.0,0.0,0.0,0.0,0.0,0.0,0.0,0.0,0.0,0.0,0.0,0.0,0.0,0.0,0.0,0.0,0.0,0.0,0.0,0.0,0.0,0.0,0.0,0.0,0.0,0.0,0.0,0.0,0.0,0.0,0.0,0.0,0.0,0.0,0.0,0.0,0.0,0.0,0.0,0.0,0.0,0.0,0.0,0.0,0.0,0.0,0.0,0.0,0.0,0.0,0.0,0.0,0.0,0.0,0.0,0.0,0.0,0.0,0.0,0.0,-3.082,-3.0351,-3.0215,-3.082,-3.0898,-3.0898,-3.0898,-3.0332,-3.0254,-3.0859,0.0,0.0,0.0,0.0,0.0,0.0,0.0,0.0,0.0,0.0,0.0,0.0,0.0,0.0,0.0,0.0,0.0,0.0,0.0,0.0,0.0,0.0,0.0,0.0,0.0,0.0,0.0,0.0,0.0,0.0,0.0,0.0,0.0,0.0,0.0,0.0,0.0,0.0,0.0,0.0,0.0,0.0,0.0,0.0,0.0,0.0,0.0,0.0,0.0,0.0,0.0,0.0,0.0,0.0,0.0,0.0,0.0,0.0,0.0,0.0,0.0,0.0,0.0,0.0,0.0,0.0,0.0,0.0,0.0,0.0,0.0,0.0,0.0,0.0,0.0,0.0,0.0,0.0,0.0,0.0,0.0,0.0,0.0,0.0,0.0,0.0,0.0,0.0,0.0,0.0,0.0,0.0,0.0,0.0,0.0,0.0,0.0,0.0,0.0,0.0,0.0,0.0,-3.0238,-2.9875,-2.9762,-3.029,-3.0683,-3.0762,-3.041,-2.9902,-2.9687,-2.9844,0.0,0.0,0.0,0.0,0.0,0.0,0.0,0.0,0.0,0.0,0.0,0.0,0.0,0.0,0.0,0.0,0.0,0.0,0.0,0.0,0.0,0.0,0.0,0.0,0.0,0.0,0.0,0.0,0.0,0.0,0.0,0.0,0.0,0.0,0.0,0.0,0.0,0.0,0.0,0.0,0.0,0.0,0.0,0.0,0.0,0.0,0.0,0.0,0.0,0.0,0.0,0.0,0.0,0.0,0.0,0.0,0.0,0.0,0.0,0.0,0.0,0.0,0.0,0.0,0.0,0.0,0.0,0.0,0.0,0.0,0.0,0.0,0.0,0.0,0.0,0.0,0.0,0.0,0.0,0.0,0.0,0.0,0.0,0.0,0.0,0.0,0.0,0.0,0.0,0.0,0.0,0.0,0.0,0.0,0.0,0.0,0.0,0.0,0.0,0.0,0.0,0.0,-2.9385,-2.9381,-2.9408,-2.9486,-3.0327,-3.0566,-2.9765,-2.9648,-2.9258,-2.8476,0.0,0.0,0.0,0.0,0.0,0.0,0.0,0.0,0.0,0.0,0.0,0.0,0.0,0.0,0.0,0.0,0.0,0.0,0.0,0.0,0.0,0.0,0.0,0.0,0.0,0.0,0.0,0.0,0.0,0.0,0.0,0.0,0.0,0.0,0.0,0.0,0.0,0.0,0.0,0.0,0.0,0.0,0.0,0.0,0.0,0.0,0.0,0.0,0.0,0.0,0.0,0.0,0.0,0.0,0.0,0.0,0.0,0.0,0.0,0.0,-2.889,0.0,0.0,0.0,0.0,0.0,0.0,0.0,0.0,0.0,0.0,0.0,0.0,0.0,0.0,0.0,0.0,0.0,0.0,0.0,0.0,0.0,0.0,0.0,0.0,0.0,0.0,0.0,0.0,0.0,0.0,0.0,0.0,0.0,0.0,0.0,0.0,0.0,0.0,0.0,0.0,0.0,-2.9308,-2.8812,-2.8666,-2.935,-3.0217,-3.0666,-3.0471,-2.9939,-2.9512,-2.9336,-2.8848,0.0,0.0,0.0,0.0,0.0,0.0,0.0,0.0,0.0,0.0,0.0,0.0,0.0,0.0,0.0,0.0,0.0,0.0,0.0,0.0,0.0,0.0,0.0,0.0,0.0,0.0,0.0,0.0,0.0,0.0,0.0,0.0,0.0,0.0,0.0,0.0,0.0,0.0,0.0,0.0,0.0,0.0,0.0,0.0,0.0,0.0,0.0,0.0,0.0,0.0,0.0,0.0,0.0,0.0,0.0,0.0,0.0,0.0,0.0,0.0,-2.8299,0.0,0.0,0.0,0.0,0.0,0.0,0.0,0.0,0.0,0.0,0.0,0.0,0.0,0.0,0.0,0.0,0.0,0.0,0.0,0.0,0.0,0.0,0.0,0.0,0.0,0.0,0.0,0.0,0.0,0.0,0.0,0.0,0.0,0.0,0.0,0.0,0.0,0.0,0.0,0.0,-2.8617,-2.7941,-2.7757,-2.8631,-2.9537,-3.0057,-3.0033,-2.9352,-2.8743,-2.8333,-2.83,0.0,0.0,0.0,0.0,0.0,0.0,0.0,0.0,0.0,0.0,0.0,0.0,0.0,0.0,0.0,0.0,0.0,0.0,0.0,0.0,0.0,0.0,0.0,0.0,0.0,0.0,0.0,0.0,0.0,0.0,0.0,0.0,0.0,0.0,0.0,0.0,0.0,0.0,0.0,0.0,0.0,0.0,0.0,0.0,0.0,0.0,0.0,0.0,0.0,0.0,0.0,0.0,0.0,-2.7629,-2.7516,-2.7464,-2.7439,-2.7044,-2.6409,-2.7121,-2.7121,-2.6717,0.0,0.0,0.0,0.0,0.0,0.0,0.0,0.0,0.0,0.0,0.0,0.0,0.0,0.0,0.0,0.0,0.0,0.0,0.0,0.0,0.0,0.0,0.0,0.0,0.0,-2.7351,-2.7024,0.0,0.0,0.0,0.0,0.0,0.0,0.0,0.0,0.0,0.0,0.0,0.0,-2.7678,-2.7097,-2.6966,-2.7675,-2.8598,-2.9187,-2.9272,-2.8756,-2.8103,-2.7358,-2.8077,-2.8515,0.0,0.0,0.0,0.0,0.0,0.0,0.0,0.0,0.0,0.0,0.0,0.0,0.0,0.0,0.0,0.0,0.0,0.0,0.0,0.0,0.0,0.0,0.0,0.0,0.0,0.0,0.0,0.0,0.0,0.0,0.0,0.0,-3.0471,-2.985,0.0,0.0,0.0,0.0,0.0,0.0,0.0,0.0,0.0,0.0,0.0,0.0,0.0,-2.8246,-2.8268,-2.7387,-2.6956,-2.6956,-2.6132,-2.5743,-2.5735,-2.5668,-2.5577,-2.5481,-2.5596,0.0,-2.6621,-2.6832,0.0,0.0,0.0,0.0,0.0,0.0,0.0,0.0,0.0,0.0,0.0,0.0,0.0,0.0,0.0,0.0,0.0,0.0,0.0,0.0,0.0,0.0,-2.803,-2.7934,-2.7818,-2.7761,0.0,-2.7895,-2.7934,-2.8049,-2.8068,0.0,0.0,0.0,0.0,0.0,0.0,0.0,-2.6871,-2.6674,-2.667,-2.6766,-2.7619,-2.8458,-2.9148,-2.9237,-2.9179,-2.8994,-2.9211,-2.9334,-2.9334,-3.0466,0.0,0.0,0.0,0.0,0.0,0.0,0.0,0.0,0.0,0.0,0.0,0.0,0.0,0.0,0.0,0.0,0.0,0.0,0.0,0.0,0.0,0.0,0.0,0.0,0.0,0.0,0.0,0.0,0.0,-2.9851,-3.0299,-2.941,-3.0266,-3.0975,0.0,0.0,0.0,0.0,0.0,0.0,0.0,0.0,0.0,-2.745,-2.7398,-2.7162,-2.6751,-2.6343,-2.6135,-2.6116,-2.5706,-2.5729,-2.6138,-2.6105,-2.6337,-2.6755,-2.6755,-2.6986,-2.7294,-2.6794,-2.7024,-2.7794,0.0,0.0,0.0,0.0,-2.9833,-2.9717,-2.8876,-2.8569,0.0,0.0,0.0,0.0,0.0,0.0,0.0,0.0,0.0,0.0,0.0,0.0,0.0,-2.8121,-2.7895,-2.7895,-2.7895,-2.7895,-2.803,0.0,-2.8967,-2.9429,-2.9775,0.0,0.0,0.0,0.0,-2.8434,-2.8044,-2.8005,-2.8198,-2.8673,-2.9541,-3.0215,-3.0581,-3.0247,-2.98,-2.9272,-2.9338,-2.9414,-2.9502,-3.1275,-3.2613,0.0,0.0,0.0,0.0,0.0,0.0,0.0,0.0,0.0,0.0,0.0,0.0,0.0,0.0,0.0,0.0,0.0,0.0,0.0,0.0,0.0,0.0,0.0,0.0,0.0,0.0,0.0,0.0,-2.9415,-2.9833,-2.9184,-2.9506,-2.9864,0.0,0.0,0.0,0.0,0.0,0.0,-2.7812,-2.7792,-2.7413,-2.6622,-2.6538,-2.6259,-2.5703,-2.5658,-2.5749,-2.5964,-2.5937,-2.634,-2.7062,-2.704,-2.7352,-2.7895,-2.7895,-2.7895,-2.7857,-2.7198,-2.7044,-2.7351,-2.8607,-2.9242,-2.9486,-2.991,-3.0077,-2.9948,-2.9083,-2.88,-2.8838,-2.903,0.0,-3.0012,-3.1314,0.0,0.0,0.0,0.0,-3.2256,-3.0788,-3.0404,-3.0096,-2.8832,-2.8544,-2.8544,-2.8544,-2.8717,-2.8852,0.0,-2.9313,-2.9827,-3.0019,0.0,0.0,0.0,0.0,-2.903,-2.8819,-2.8973,-2.928,-2.9712,-3.0712,-3.1371,-3.1371,-3.1014,-3.0525,-2.9868,-3.0094,-3.0104,-2.9775,-3.203,-3.3323,-3.3377,0.0,0.0,0.0,0.0,0.0,0.0,0.0,0.0,0.0,0.0,0.0,0.0,0.0,0.0,0.0,0.0,0.0,0.0,0.0,0.0,0.0,0.0,0.0,0.0,0.0,0.0,0.0,0.0,0.0,-2.9107,-2.9183,0.0,0.0,0.0,0.0,-2.8203,-2.8837,-2.8578,-2.7033,-2.6957,-2.6584,-2.5781,-2.5761,-2.5742,-2.5703,-2.5703,-2.6113,-2.6933,-2.6864,-2.7257,-2.8026,-2.7953,-2.7926,-2.7895,-2.7895,-2.7895,-2.7895,-2.7857,-2.828,-2.8973,-2.9069,-2.9602,-3.0231,-2.9448,-2.9165,-2.905,-2.8242,-2.7953,-2.8088,-2.8857,-3.0217,-3.1583,-3.1679,-3.2256,0.0,0.0,-3.1756,-3.1545,-3.0635,-3.0404,-3.0385,-3.0288,-3.0269,-3.0269,-3.0269,-3.0923,-3.0814,0.0,-2.8011,-2.828,-2.903,0.0,-2.9165,-2.9165,-2.9127,-2.8819,-2.8068,-2.8626,-2.8819,-2.8107,-2.9486,-3.0462,-3.0462,-3.1179,-3.1608,-3.157,-3.2355,-3.2101,-3.0516,-3.2274,-3.3306,-3.3297,-3.4216,0.0,0.0,0.0,0.0,0.0,0.0,0.0,0.0,0.0,0.0,0.0,0.0,0.0,0.0,0.0,0.0,0.0,0.0,0.0,0.0,0.0,0.0,0.0,0.0,0.0,0.0,0.0,0.0,-3.0005,-3.009,0.0,-3.0108,-2.9693,-2.9084,-2.8225,-2.7959,-2.7312,-2.6187,-2.6129,-2.5994,-2.5703,-2.5703,-2.5977,-2.6523,-2.6543,-2.6973,-2.7832,-2.776,-2.8131,-2.8863,-2.8795,-2.9028,-2.95,-2.95,-2.95,-2.95,-2.95,-2.9044,-2.8376,-2.8896,-2.93,-2.9583,-2.9833,-2.9948,-2.991,-2.9615,-2.95,-2.9558,-2.9852,-3.0365,-3.0865,-3.0865,-3.1058,-3.1231,-3.0942,-3.0865,-3.0788,-3.0481,-3.0404,-3.0404,-3.0404,-3.0404,-3.0404,-3.0404,-3.0635,-3.0596,-2.9692,-2.9967,-3.0256,-2.9987,-2.9948,-2.9948,-2.9948,-3.041,-3.0679,-3.0371,-3.1551,-3.2262,-3.1974,-3.2987,-3.3442,-3.2891,-3.2622,-3.226,-3.1795,-3.2068,-3.1986,-3.1428,-3.3158,-3.415,-3.4147,-3.4508,-3.5137,0.0,0.0,0.0,0.0,0.0,0.0,0.0,0.0,0.0,0.0,0.0,0.0,0.0,0.0,0.0,0.0,0.0,0.0,0.0,0.0,0.0,0.0,0.0,0.0,0.0,0.0,-2.9958,-3.0525,-3.0372,-3.0232,-3.0232,-2.9811,-2.905,-2.7878,-2.7576,-2.6934,-2.5762,-2.5703,-2.582,-2.6133,-2.6133,-2.6562,-2.7422,-2.7441,-2.7871,-2.873,-2.8685,-2.9042,-2.9741,-2.9716,-2.9956,-3.0404,-3.0422,-3.0417,-3.0404,-3.0404,-2.975,-2.8794,-2.9333,-2.9544,-2.9602,-3.0192,-3.0404,-3.0404,-3.0404,-3.0404,-3.0404,-3.0404,-3.0404,-3.0404,-3.0404,-3.0404,-3.0404,-3.0404,-3.0404,-3.0404,-3.0404,-3.0404,-3.0404,-3.0404,-3.0404,-3.0404,-3.0404,-3.0404,-3.0404,-3.0404,-3.0865,-3.1173,-3.0885,-3.0596,-3.0596,-3.1154,-3.125,-3.1371,-3.166,-3.291,-3.3545,-3.2987,-3.4462,-3.4923,-3.3487,-3.3622,-3.3204,-3.1858,-3.2319,-3.2277,-3.1467,-3.347,-3.4462,-3.4167,-3.4801,-3.543,-3.5996,0.0,0.0,0.0,0.0,0.0,0.0,0.0,0.0,0.0,0.0,0.0,0.0,0.0,0.0,0.0,0.0,0.0,0.0,0.0,0.0,0.0,0.0,0.0,-3.05,-3.057,-3.0573,-3.0611,-2.9985,-2.9524,-2.9504,-2.9566,-2.8887,-2.7129,-2.7773,-2.7519,-2.5781,-2.5723,-2.6133,-2.6973,-2.7031,-2.7461,-2.832,-2.834,-2.8789,-2.9648,-2.9648,-2.9965,-3.0611,-3.0673,-3.0594,-3.0408,-3.0472,-3.0472,-3.039,-3.039,-3.041,-3.0404,-3.0404,-3.0404,-3.0404,-3.0404,-3.0404,-3.0404,-3.0404,-3.0404,-3.0404,-3.0404,-3.0404,-3.0404,-3.0404,-3.0404,-3.0404,-3.0404,-3.0404,-3.0404,-3.0404,-3.0404,-3.0404,-3.0404,-3.0404,-3.0404,-3.0404,-3.0404,-3.0404,-3.0404,-3.0423,-3.0712,-3.1545,-3.1,-3.1,-3.2641,-3.1519,0.0,-3.1641,-3.2429,-3.2295,-3.0692,-3.3481,-3.4462,-3.1987,-3.4019,-3.4372,-3.1858,-3.3283,-3.3122,-3.0643,-3.3153,-3.4207,-3.3355,-3.5076,-3.5957,-3.5918,0.0,0.0,0.0,0.0,0.0,0.0,0.0,0.0,0.0,0.0,0.0,0.0,0.0,0.0,0.0,0.0,0.0,0.0,0.0,0.0,0.0,0.0,-3.0437,-3.064,-3.0212,-3.0108,-3.0733,-3.064,-3.0271,-2.9627,-2.9589,-2.8887,-2.7129,-2.7226,-2.6875,-2.5762,-2.6309,-2.6758,-2.6992,-2.7617,-2.8359,-2.9238,-2.9238,-2.9687,-3.0547,-3.0443,-3.0484,-3.0675,-3.065,-3.0603,-3.0552,-3.0558,-3.0537,-3.0467,-3.0467,-3.0446,-3.0404,-3.0404,-3.0404,-3.0404,-3.0404,-3.0404,-3.0404,-3.0404,-3.0404,-3.0404,-3.0404,-3.0404,-3.0404,-3.0404,-3.0404,-3.0404,-3.0404,-3.0404,-3.0404,-3.0404,-3.0404,-3.0404,-3.0404,-3.0404,-3.0404,-3.0404,-3.0404,-3.0404,-3.0404,-3.0904,-3.1429,-3.166,-3.1506,-3.1698,-3.2737,-3.2506,0.0,-3.2545,-3.2756,-3.2968,-3.3141,-3.4007,-3.4276,-3.3564,-3.3583,-3.3094,-3.1849,-3.2264,-3.2239,-3.1536,-3.3544,-3.4568,-3.4314,-3.4804,-3.4746,0.0,0.0,0.0,0.0,0.0,0.0,0.0,0.0,0.0,0.0,0.0,0.0,0.0,0.0,0.0,0.0,0.0,0.0,0.0,0.0,0.0,0.0,-3.0745,-3.0772,-3.0772,-3.0408,-3.0332,-3.084,-3.0586,-3.0156,-2.9648,-2.9277,-2.8476,-2.7109,-2.6992,-2.6777,-2.6269,-2.6719,-2.7324,-2.8066,-2.8574,-2.9258,-3.0137,-3.0137,-3.0391,-3.0898,-3.0816,-3.0747,-3.0695,-3.0726,-3.0678,0.0,-3.0638,-3.0591,-3.0498,-3.0498,-3.0462,0.0,0.0,0.0,0.0,0.0,-3.0404,-3.0404,-3.0404,-3.0404,-3.0404,-3.0404,-3.0404,-3.0404,-3.0404,-3.0404,-3.0404,-3.0404,-3.0404,-3.0404,-3.0404,-3.0404,-3.0404,-3.0404,-3.0404,-3.0404,-3.0404,-3.0404,-3.0404,-3.0404,0.0,0.0,-3.2141,-3.2199,-3.2602,-3.3814,-3.3083,-3.2526,-3.2852,-3.2602,-3.2449,-3.2583,-3.3564,-3.3917,-3.3199,-3.3333,0.0,0.0,0.0,-3.1938,-3.2024,-3.3061,0.0,0.0,0.0,-3.3906,0.0,0.0,0.0,0.0,-3.3124,-3.2964,0.0,0.0,0.0,0.0,0.0,0.0,0.0,0.0,0.0,0.0,0.0,0.0,0.0,0.0,0.0,0.0,-3.0816,-3.0898,-3.0898,-3.082,-3.0781,-3.0898,-3.0137,-2.9551,-2.9453,-2.8652,-2.7832,-2.7051,-2.6992,-2.7031,-2.7148,0.0,0.0,0.0,0.0,-3.0117,-3.0898,-3.0898,-3.0898,-3.0898,-3.0898,-3.0837,-3.0721,-3.0857,-3.0808,-3.0633,-3.0705,-3.065,-3.0521,-3.0521,-3.0477,-3.0408,-3.039,-3.0404,-3.0404,-3.0404,-3.0404,0.0,0.0,0.0,0.0,-3.0404,-3.0404,-3.0404,-3.0404,-3.0404,-3.0404,-3.0404,-3.0404,-3.0404,-3.0404,-3.0404,-3.0404,-3.0404,-3.0404,-3.0404,-3.0404,-3.0404,-3.0404,-3.0404,-3.1173,-3.2064,-3.2776,-3.2987,-3.3603,-3.525,-3.3481,-3.2199,-3.2814,-3.2199,-3.141,-3.0635,0.0,0.0,-3.1833,-3.3064,-3.3237,-3.166,-3.1676,-3.1889,-3.2187,-3.2207,-3.2539,-3.3242,-3.3262,-3.3223,-3.3125,-3.2402,-3.2051,-3.207,-3.2717,-3.301,0.0,0.0,0.0,0.0,0.0,0.0,0.0,0.0,0.0,0.0,0.0,0.0,0.0,0.0,0.0,-3.0838,-3.0879,-3.0898,-3.0898,-3.0293,-3.0117,-3.082,-3.0137,-2.9316,-2.8613,-2.7754,-2.7187,-2.7012,-2.6992,-2.7305,-2.8008,-2.8711,-2.9258,-2.959,-3.0273,-3.0723,-3.0898,-3.0898,-3.0898,-3.0898,0.0,0.0,-3.0858,-3.0898,-3.0878,-3.0836,-3.0857,-3.0789,-3.0669,-3.0669,-3.0597,-3.0472,-3.0417,-3.0404,-3.0404,-3.0404,-3.0404,-3.0404,-3.0404,-3.0404,-3.0404,-3.0404,-3.0404,-3.0404,-3.0404,-3.0404,0.0,-3.0404,-3.0404,-3.0404,-3.0404,-3.0404,-3.0404,-3.0404,-3.0404,-3.0404,-3.0404,-3.0404,-3.0404,-3.0404,-3.1635,-3.2718,-3.2872,-3.3487,-3.4295,-3.5346,-3.4487,-3.3526,-3.2968,-3.2199,-3.1641,-3.1468,-3.1891,-3.2045,-3.1737,-3.2006,-3.1756,-3.0712,-3.0788,-3.127,-3.2168,-3.2207,-3.2266,-3.2422,-3.2422,-3.209,-3.1387,-3.123,-3.1152,-3.1152,-3.1197,-3.1201,0.0,0.0,0.0,0.0,0.0,0.0,0.0,0.0,0.0,0.0,0.0,-3.0667,-3.0692,0.0,-3.0816,-3.0898,-3.0898,-3.0898,-3.0898,-3.0527,-3.0254,-3.0254,-2.9082,-2.8301,-2.8301,-2.7519,-2.7187,-2.7617,-2.7656,-2.8027,-2.8906,-2.9355,-2.9805,-3.0234,-3.0664,-3.0898,-3.0898,-3.0898,-3.0898,-3.0898,-3.0898,-3.0898,-3.0898,-3.0898,-3.0898,-3.0898,-3.0898,-3.0816,-3.0693,-3.0669,-3.0617,-3.0548,-3.0472,-3.0433,-3.0404,-3.0404,-3.0404,-3.0404,-3.0404,-3.0404,-3.0404,-3.0404,-3.0404,-3.0404,-3.0404,-3.0404,-3.0404,-3.0404,-3.0404,-3.0404,-3.0404,-3.0404,-3.0404,-3.0404,-3.0404,-3.0404,-3.0404,-3.0731,-3.1058,-3.1058,-3.241,-3.3545,-3.3545,-3.4276,-3.5007,-3.5423,-3.4757,-3.4052,-3.3603,-3.2814,-3.216,-3.1737,-3.2064,-3.2141,-3.1737,-3.1698,-3.1358,-3.0543,-3.0554,-3.0899,-3.1523,-3.1543,-3.1543,-3.1543,-3.1543,-3.1348,-3.0898,-3.0898,-3.0898,-3.0898,-3.0837,-3.0794,0.0,0.0,0.0,0.0,0.0,0.0,0.0,-3.0529,-3.0547,-3.0614,-3.0675,-3.0783,-3.0959,-3.1071,-3.1191,-3.1367,-3.1387,-3.1387,-3.1387,-3.125,-3.082,-2.9961,-2.8457,-2.7851,-2.8711,-2.7851,-2.7617,-2.8496,-2.8555,-2.8926,-2.9805,-2.9844,-3.0176,-3.0879,-3.0898,-3.0898,-3.0898,-3.0898,-3.0898,-3.0898,-3.0898,-3.0898,-3.0898,-3.0898,-3.0898,-3.0898,-3.0898,-3.0837,-3.0722,-3.0655,-3.0625,-3.062,-3.0552,-3.0491,-3.0444,-3.0408,-3.0404,-3.0404,-3.0404,-3.0404,-3.0404,-3.0404,-3.0404,-3.0404,-3.0404,-3.0404,-3.0404,-3.0404,-3.0519,-3.0615,-3.0442,-3.0538,-3.0615,-3.0442,-3.0538,-3.0654,-3.0654,-3.1327,-3.1929,-3.1929,-3.316,-3.4205,-3.4205,-3.493,-3.5442,-3.5269,-3.4641,-3.4148,-3.3975,-3.3199,-3.2429,-3.1775,-3.2141,-3.216,-3.1506,-3.1448,-3.1205,-3.0633,-3.0603,-3.0685,-3.0898,-3.0898,-3.0898,-3.0898,-3.0898,-3.0898,-3.0898,-3.0898,-3.0898,-3.0898,-3.0898,-3.0898,-2.9705,-2.9934,-3.0229,-3.0448,-3.0506,-3.0545,0.0,-3.0624,-3.0682,-3.0687,-3.0791,-3.1113,-3.1894,-3.2031,-3.2285,-3.3008,-3.3125,-3.3125,-3.3125,-3.2519,-3.1738,-3.0859,-2.9902,-2.9648,-3.0527,-2.9121,-2.8516,-2.9394,-2.9453,-2.9844,-3.0703,-3.0742,-3.0801,-3.0898,-3.0898,-3.0898,-3.0898,-3.0898,-3.0898,-3.0898,-3.0898,-3.0898,-3.0898,-3.0898,-3.0898,-3.0898,-3.0898,-3.0898,-3.0878,-3.0742,-3.0689,-3.0684,-3.0603,-3.0584,-3.0554,-3.0441,-3.0404,-3.0404,-3.0404,-3.0404,-3.0404,-3.0404,-3.0404,-3.0404,-3.0404,-3.0404,-3.0404,-3.0404,-3.0962,-3.1391,-3.0596,-3.0962,-3.1365,-3.0577,-3.0981,-3.1545,-3.1545,-3.2199,-3.2776,-3.2776,-3.3545,-3.4205,-3.4205,-3.493,-3.5231,-3.4449,-3.4263,-3.3917,-3.3141,-3.2333,-3.1795,-3.1718,-3.1096,-3.0635,-3.0558,-3.0558,-3.0568,-3.0594,-3.0603,-3.0685,-3.0898,-3.0898,-3.0898,-3.0898,-3.0898,-3.0898,-3.0898,-3.0898,-3.0898,-3.0898,-3.0898,-3.0837,-3.0765,-3.1025,-3.1284,-3.1903,-3.2088,-3.2124,-3.2164,-3.2188,-3.2225,-3.2259,-3.2323,-3.2461,-3.2832,-3.2891,-3.3008,0.0,-3.3398,-3.3398,-3.3398,-3.3105,-3.2754,-3.2402,-3.2031,-3.1367,-3.0254,-2.9473,-2.9414,-3.0293,-3.0351,-3.0527,-3.0879,-3.0898,-3.0898,-3.0898,-3.0898,-3.0898,-3.0898,-3.0898,-3.0898,-3.0898,-3.0898,-3.0898,-3.0898,-3.0898,-3.0898,-3.0898,-3.0898,-3.0898,-3.0898,-3.0837,-3.0816,-3.0814,-3.0703,-3.0665,-3.0655,-3.0559,-3.0524,-3.0511,-3.0463,-3.0457,-3.0442,-3.0414,-3.0404,-3.0404,-3.0404,-3.0404,-3.0404,-3.0404,-3.0654,-3.0865,-3.05,-3.0673,-3.0981,-3.1115,-3.1429,-3.1833,-3.2295,-3.3064,-3.3667,-3.3667,-3.4353,-3.4968,-3.4968,-3.525,-3.5192,-3.434,-3.4622,-3.4641,-3.3776,-3.3814,-3.3519,-3.2506,-3.1192,-3.0404,-3.0404,-3.0404,-3.0452,-3.0594,-3.0603,-3.0685,-3.0898,-3.0898,-3.0898,-3.0898,-3.0898,-3.0898,-3.0898,-3.0898,-3.0898,-3.0898,-3.0898,-3.0836,-3.1956,-3.2169,-3.2353,-3.3048,-3.3232,-3.3273,-3.3322,-3.3326,-3.3331,-3.3398,-3.3398,-3.3476,-3.3711,-3.3769,-3.3848,-3.4082,-3.4121,-3.4121,-3.4121,-3.4121,-3.4023,-3.3789,-3.3769,-3.2949,-3.0859,-3.0449,-3.0586,-3.1211,-3.1035,-3.0898,-3.0898,-3.0898,-3.0898,-3.0898,-3.0898,-3.0898,-3.0898,-3.0898,-3.0898,-3.0898,-3.0898,-3.0898,-3.0898,-3.0898,-3.0898,-3.0898,-3.0898,-3.0898,-3.0898,-3.0898,-3.0898,-3.0898,-3.0793,-3.0767,-3.0744,-3.0695,-3.0658,-3.0597,-3.0533,-3.0525,-3.0513,-3.0463,-3.0467,-3.0462,-3.0419,-3.0428,-3.0422,-3.0416,-3.0577,-3.075,-3.075,-3.0923,-3.125,-3.1891,-3.2218,-3.2487,-3.2833,-3.3583,-3.4129,-3.3898,-3.4545,-3.5135,-3.5135,-3.5135,-3.5007,-3.4622,-3.4699,-3.4641,-3.4244,-3.4545,-3.4212,-3.2737,-3.1269,-3.0404,-3.0404,-3.0425,-3.0472,-3.0594,-3.0625,-3.0719,-3.0898,-3.0898,-3.0898,-3.0898,-3.0898,-3.0898,-3.0898,-3.0898,-3.0898,-3.0898,-3.0898,-3.0857,-3.3016,-3.3107,-3.3173,-3.3262,-3.3352,-3.3398,-3.3398,-3.3398,-3.3398,-3.3398,-3.3398,-3.3652,-3.4492,-3.4668,-3.4941,-3.5781,-3.5918,-3.5918,-3.5918,-3.5918,-3.5605,-3.4766,-3.4668,-3.4297,0.0,-3.2578,-3.2129,-3.2168,-3.1387,-3.0898,-3.0898,-3.0898,-3.0898,-3.0898,-3.0898,-3.0898,-3.0898,-3.0898,-3.0898,-3.0898,-3.0898,-3.0898,-3.0898,-3.0898,-3.0898,-3.0898,-3.0898,-3.0898,-3.0898,-3.0898,-3.0898,-3.0898,-3.0898,-3.0898,-3.0898,-3.0898,-3.0777,-3.0603,-3.06,-3.06,-3.06,-3.0597,-3.0597,-3.0581,-3.0528,-3.0494,-3.0491,-3.0425,-3.1,-3.166,-3.166,-3.2237,-3.2833,-3.2852,-3.3506,-3.3898,-3.3083,-3.3583,-3.3955,-3.3103,-3.3641,-3.4244,-3.4244,-3.4244,-3.4526,-3.5346,-3.4045,-3.3276,-3.409,-3.3487,-3.266,-3.1833,-3.0923,-3.0404,-3.0404,-3.0462,-3.0525,-3.06,-3.0667,-3.0767,-3.0898,-3.0898,-3.0898,-3.0898,-3.0898,-3.0898,-3.0898,-3.0898,-3.0898,-3.0898,-3.0898,-3.0898,-3.3852,-3.408,-3.4279,-3.4935,-3.5116,-3.5137,-3.5137,-3.5137,-3.5137,-3.5137,-3.5137,-3.5215,-3.5508,-3.5566,-3.5664,-3.5957,-3.5996,-3.5996,-3.5996,-3.5996,-3.5684,-3.4805,-3.5215,0.0,0.0,0.0,0.0,-3.2969,-3.1699,-3.1152,-3.1738,-3.1211,-3.1172,-3.1738,-3.1758,-3.2012,-3.2559,-3.2031,-3.1758,-3.1758,-3.1172,-3.0898,-3.0898,-3.0898,-3.0898,-3.0898,-3.0898,-3.0898,-3.0898,-3.0898,-3.0898,-3.0898,-3.0898,-3.0898,-3.0898,-3.0898,-3.0857,-3.0784,-3.0702,-3.0671,-3.0665,-3.06,-3.0995,-3.1345,-3.0746,-3.1368,-3.2151,-3.1502,-3.1951,-3.2612,-3.2518,-3.2699,-3.3045,-3.3622,-3.3994,-3.4282,-3.4564,-3.4865,-3.4988,-3.4673,-3.4865,-3.5064,-3.5064,-3.5064,-3.5154,-3.5462,-3.4507,-3.366,-3.3372,-3.3083,-3.2795,-3.2526,-3.1756,-3.125,-3.125,-3.0791,-3.0529,-3.06,-3.0669,-3.0768,-3.0898,-3.0898,-3.0898,-3.0898,-3.0898,-3.0898,-3.0898,-3.0898,-3.0898,-3.0898,-3.0898,-3.0898,-3.4811,-3.5024,-3.5214,-3.5839,-3.5996,-3.5996,-3.5996,-3.5996,-3.5996,-3.5996,-3.5996,-3.5996,-3.5996,-3.5996,-3.5996,-3.5996,-3.5996,-3.5996,-3.5996,-3.5996,-3.5781,-3.5234,-3.5664,-3.5781,0.0,0.0,0.0,-3.3848,-3.2871,-3.25,-3.3066,-3.2559,-3.2519,-3.3086,-3.2793,-3.2871,-3.3398,-3.2891,-3.2637,-3.2617,-3.2051,-3.1641,-3.1367,-3.1367,-3.1191,-3.0898,-3.0898,-3.0898,-3.0898,-3.0898,-3.0898,-3.0898,-3.0898,-3.0898,-3.0898,-3.0898,-3.0898,-3.0898,-3.0794,-3.077,-3.0825,-3.1076,-3.1338,-3.1551,-3.1551,-3.2131,-3.2705,-3.238,-3.2707,-3.3186,-3.3349,-3.3406,-3.36,-3.4462,-3.4661,-3.4737,-3.4988,-3.5045,-3.4872,-3.425,-3.4635,-3.4949,-3.4615,-3.5096,-3.5288,-3.4654,-3.4622,-3.4468,-3.391,-3.3026,-3.2583,-3.2872,-3.191,-3.1255,-3.1273,-3.0819,-3.0561,-3.0641,-3.0713,-3.0815,-3.0898,-3.0898,-3.0898,-3.0898,-3.0898,-3.0898,-3.0898,-3.0898,-3.0898,-3.0898,-3.0898,-3.0898,-3.5853,-3.5903,-3.5914,-3.5976,-3.5996,-3.5996,-3.5996,-3.5996,-3.5996,-3.5996,-3.5996,-3.5996,-3.5996,-3.5996,-3.5996,-3.5996,-3.5996,-3.5996,-3.5996,-3.5996,-3.6016,-3.6055,-3.6074,-3.6074,0.0,0.0,0.0,-3.4961,0.0,-3.4785,-3.4824,-3.4785,-3.4785,-3.4824,-3.3984,-3.3555,-3.3594,-3.3516,-3.3437,-3.3398,-3.3398,-3.3008,-3.2266,-3.2266,-3.1816,-3.1035,-3.0976,-3.0976,-3.0957,-3.0918,-3.0898,-3.0898,-3.0898,-3.0898,-3.0898,-3.0898,-3.0898,-3.0898,-3.0898,-3.0898,-3.1035,-3.1855,-3.1601,-3.1249,-3.2779,-3.273,-3.2292,-3.3059,-3.3293,-3.3505,-3.4186,-3.4367,-3.4559,-3.5323,-3.5514,-3.5283,-3.4456,-3.4263,-3.3801,-3.2199,-3.3179,-3.3994,-3.3179,-3.4365,-3.4885,-3.3276,-3.4365,-3.5365,-3.5365,-3.3288,-3.2102,-3.2814,-3.1481,-3.0543,-3.0567,-3.0632,-3.0675,-3.0692,-3.0836,-3.0898,-3.0898,-3.0898,-3.0898,-3.0898,-3.0898,-3.0898,-3.0898,-3.0898,-3.0898,-3.0898,-3.0898,-3.0898,-3.5894,-3.5942,-3.5975,-3.5996,-3.5996,-3.5996,-3.5996,-3.5996,-3.5996,-3.5996,-3.5996,-3.5996,-3.5996,-3.5996,-3.5996,-3.5996,-3.5996,-3.5996,-3.5996,-3.5996,-3.623,-3.6894,-3.6973,-3.7226,-3.7871,-3.7949,0.0,0.0,-3.6406,-3.5957,-3.6601,-3.6016,-3.5976,-3.6621,-3.5781,-3.5644,-3.6309,-3.5019,-3.4043,-3.3398,-3.3398,-3.3281,-3.3086,-3.3086,-3.2969,-3.2734,-3.2129,-3.1875,-3.1816,-3.1172,-3.0898,-3.0898,-3.0898,-3.0898,-3.0898,-3.0898,-3.0898,-3.0898,-3.0898,-3.0898,-3.0937,-3.1152,-3.1523,-3.1953,-3.2362,-3.3201,-3.4038,-3.4201,-3.4714,-3.5229,-3.5327,-3.5341,-3.5391,-3.5532,-3.5571,-3.5504,-3.5226,-3.5173,-3.5038,-3.4615,-3.4885,-3.5096,-3.4885,-3.468,-3.4603,-3.4808,-3.4122,-3.3564,-3.3564,-3.3564,-3.3391,-3.2949,-3.2526,-3.2047,-3.1511,-3.1522,-3.1315,-3.0731,-3.0836,-3.0898,-3.0898,-3.0898,-3.0898,-3.0898,-3.0898,-3.0898,-3.0898,-3.0898,-3.0898,-3.0898,-3.0898,-3.0898,-3.5942,-3.5973,-3.5996,-3.5996,-3.5996,-3.5996,-3.5996,-3.5996,-3.5996,-3.5996,-3.5996,-3.5996,-3.5996,-3.5996,-3.5996,-3.5996,-3.5996,-3.5996,-3.5996,-3.6328,-3.6758,-3.7246,-3.7637,-3.8066,-3.8555,-3.8945,-3.918,0.0,-3.8262,-3.793,-3.8418,-3.7988,-3.7949,-3.8437,-3.7598,-3.7187,-3.7305,-3.5957,-3.5039,-3.4531,-3.4531,-3.4336,-3.3965,-3.3965,-3.3769,-3.3379,0.0,-3.2734,-3.2695,-3.2207,-3.1797,-3.1465,-3.1465,-3.123,-3.0898,-3.0898,-3.0898,-3.0898,-3.0898,-3.0898,-3.0957,-3.1348,-3.1543,-3.1777,-3.25,-3.3144,-3.3672,-3.3976,-3.4422,-3.4786,-3.4679,-3.4639,-3.4739,-3.5033,-3.5124,-3.5203,-3.5523,-3.5585,-3.5585,-3.5585,-3.5259,-3.5096,-3.5482,-3.5117,-3.4949,-3.5423,-3.4673,-3.4045,-3.4045,-3.3795,-3.343,-3.2949,-3.2605,-3.2101,-3.1332,-3.1329,-3.1219,-3.081,-3.0858,-3.0898,-3.0898,-3.0898,-3.0898,-3.0898,-3.0898,-3.0898,-3.0898,-3.0898,-3.0898,-3.0898,-3.0898,-3.0898,-3.5976,-3.5996,-3.5996,-3.5996,-3.5996,-3.5996,-3.5996,-3.5996,-3.5996,-3.5996,-3.5996,-3.5996,-3.5996,-3.5996,-3.5996,-3.5996,-3.5996,-3.5996,-3.5996,-3.6758,-3.7344,-3.7461,-3.8242,-3.8828,-3.8926,-3.9629,-4.0078,-4.0078,-4.0078,-4.0078,-4.0078,-4.0078,-4.0019,-3.9902,-3.918,-3.8359,-3.748,-3.6719,-3.6348,-3.6348,-3.6348,-3.5957,-3.5215,-3.5215,-3.4805,-3.4082,0.0,0.0,-3.373,-3.3496,-3.2988,-3.2363,-3.2363,-3.1894,-3.1211,-3.1113,-3.1074,-3.1055,-3.0937,-3.0898,-3.1035,-3.1914,-3.1601,-3.1211,-3.2891,-3.291,-3.25,-3.3203,-3.3476,-3.3534,-3.336,-3.3311,-3.3495,-3.4175,-3.4429,-3.4701,-3.5395,-3.5626,-3.5707,-3.5707,-3.5033,-3.473,-3.5481,-3.5568,-3.5528,-3.5502,-3.5515,-3.5508,-3.55,-3.4083,-3.3064,-3.3064,-3.251,-3.1762,-3.085,-3.094,-3.1001,-3.0918,-3.0898,-3.0898,-3.0898,-3.0898,-3.0898,-3.0898,-3.0898,-3.0898,-3.0898,-3.0898,-3.0898,-3.0898,-3.0898,-3.0898,-3.5996,-3.5996,-3.5996,-3.5996,-3.5996,-3.5996,-3.5996,-3.5996,-3.5996,-3.5996,-3.5996,-3.5996,-3.5996,-3.5996,-3.5996,-3.5996,-3.5996,-3.5996,-3.5996,-3.6758,-3.7578,-3.8281,-3.9141,-3.9961,-4.0684,-4.0898,0.0,0.0,0.0,-4.0976,-4.0976,-4.0976,-4.0644,-3.9922,-3.9746,-3.9258,-3.8379,-3.8223,-3.8144,-3.8144,-3.8144,-3.8066,-3.793,-3.793,-3.7832,-3.7617,-3.6172,0.0,-3.5449,-3.3984,-3.332,-3.3184,-3.3184,-3.3105,-3.2891,-3.2226,-3.1973,-3.1875,-3.1152,-3.0898,-3.1035,-3.1914,-3.1601,-3.1211,-3.2891,-3.3301,-3.3223,-3.3359,-3.3926,-3.4316,-3.3573,-3.3378,-3.3394,-3.3496,-3.4051,-3.4606,-3.4682,-3.5236,-3.5707,-3.5707,-3.5576,-3.5507,-3.5663,-3.5667,-3.5642,-3.559,-3.5574,-3.5562,-3.5501,-3.4603,-3.3975,-3.3975,-3.3901,-3.3275,-3.1796,-3.2396,-3.2286,-3.0976,-3.0898,-3.0898,-3.0898,-3.0898,-3.0898,-3.0898,-3.0898,-3.0898,-3.0898,-3.0898,-3.0898,-3.0898,-3.0898,-3.0898,-3.5996,-3.5996,-3.5996,-3.5996,-3.5996,-3.5996,-3.5996,-3.5996,-3.5996,-3.5996,-3.5996,-3.5996,-3.5996,-3.5625,-3.5469,-3.5937,-3.5234,-3.4961,-3.5879,-3.6758,-3.7617,-3.8496,-3.9766,-4.0742,-4.1152,-4.1191,-4.1171,-4.1103,0.0,-4.1102,-4.1102,-4.1026,-4.0797,-4.0387,-3.9956,-3.9546,-3.9115,-3.8666,-3.843,-3.8432,-3.8477,-3.8504,-3.8504,-3.8573,-3.8594,-3.8555,-3.7715,0.0,-3.7285,-3.6445,-3.5566,-3.4746,-3.4746,-3.4199,-3.3359,-3.2969,-3.3105,-3.3379,-3.25,-3.2207,-3.2266,-3.2695,-3.1953,-3.1055,-3.1855,-3.2109,-3.2109,-3.2109,-3.2402,-3.2637,-3.2207,-3.2109,-3.2207,-3.263,-3.3702,-3.4519,-3.4035,-3.4949,-3.5711,-3.5261,-3.5513,-3.5805,-3.5805,-3.5755,-3.5689,-3.5659,-3.565,-3.5648,-3.5606,-3.5233,-3.4782,-3.4301,-3.4372,-3.3952,-3.2725,-3.269,-3.2398,-3.1621,-3.1152,-3.0898,-3.0898,-3.0898,-3.0898,-3.0898,-3.0898,-3.0898,-3.0898,-3.0898,-3.0898,-3.0898,-3.0898,-3.0898,-3.5996,-3.5996,-3.5996,-3.5996,-3.5996,-3.5996,-3.5996,-3.5996,-3.5996,-3.5996,-3.5996,-3.5996,-3.5996,-3.5293,-3.4922,-3.5605,-3.457,-3.416,-3.5527,-3.6797,-3.7832,-3.8516,-4.0137,-4.1191,-4.1191,-4.1171,0.0,-4.1271,0.0,0.0,-4.0976,-4.086,-4.0797,-4.0797,-4.019,-3.9856,-3.9856,-3.9171,-3.8836,-3.884,-3.8895,-3.8904,-3.8926,-3.9051,-3.9119,-3.9119,-3.8945,0.0,0.0,-3.8672,-3.7793,-3.6562,-3.6562,-3.5723,-3.4492,-3.4297,-3.4668,-3.5137,-3.4258,-3.3965,-3.3926,-3.373,-3.2422,-3.0937,-3.1113,-3.1172,-3.1133,-3.0957,-3.1035,-3.1133,-3.0957,-3.0898,-3.1113,-3.1992,-3.334,-3.4238,-3.3555,-3.4629,-3.5527,-3.4824,-3.5364,-3.5916,-3.5916,-3.5828,-3.5752,-3.5755,-3.5732,-3.5726,-3.5707,-3.572,-3.5454,-3.4714,-3.4773,-3.4536,-3.3643,-3.2886,-3.2383,-3.2207,-3.1387,-3.0898,-3.0898,-3.0898,-3.0898,-3.0898,-3.0898,-3.0898,-3.0898,-3.0898,-3.0898,-3.0898,-3.0898,-3.0898,-3.5996,-3.5996,-3.5996,-3.5996,-3.5996,-3.5996,-3.5996,-3.5996,-3.5996,-3.5996,-3.5996,-3.5996,-3.5996,-3.5293,-3.4726,-3.4805,-3.4687,-3.4648,-3.4805,-3.6934,-3.8516,-3.8594,-4.0137,-4.1191,-4.1191,-4.1082,-4.1332,0.0,0.0,0.0,-4.0906,-4.0805,-4.0797,-4.0797,-4.0739,-4.068,-4.068,-4.0603,-4.0564,-4.0564,-4.0571,-4.0579,-4.0583,-4.0723,-4.0787,-4.0732,-4.0075,0.0,0.0,-3.8926,-3.8516,-3.8359,-3.8359,-3.8262,-3.8027,-3.7226,-3.6992,-3.6934,-3.6055,-3.5762,-3.5625,-3.4844,-3.291,-3.1055,-3.1836,-3.207,-3.1914,-3.1113,-3.1465,-3.1894,-3.1113,-3.0898,-3.1113,-3.1992,-3.2871,-3.3496,-3.3418,-3.4141,-3.4805,-3.4726,-3.539,-3.5996,-3.5996,-3.5976,-3.5951,-3.5882,-3.5877,-3.5838,-3.5717,-3.5805,-3.5855,-3.5752,-3.5779,-3.5433,-3.4553,-3.3745,-3.2988,-3.2246,-3.1387,-3.0898,-3.0898,-3.0898,-3.0898,-3.0898,-3.0898,-3.0898,-3.0898,-3.0898,-3.0898,-3.0898,-3.0898,-3.0898,-3.5996,-3.5996,-3.5996,-3.5996,-3.6387,-3.6777,-3.6777,-3.7187,-3.7422,-3.6894,-3.7207,-3.7402,-3.6875,-3.6074,-3.5644,-3.6172,-3.4941,-3.4101,-3.4629,-3.6055,-3.7226,-3.7754,-3.9355,-4.0585,0.0,0.0,-4.2089,0.0,0.0,0.0,-4.2228,-4.217,-4.217,-4.217,-4.217,-4.1919,-4.1422,-4.1403,-4.1132,-4.0616,-4.071,-4.0747,-4.0732,-4.0832,-4.0874,-4.0857,-4.0574,0.0,0.0,-4.018,-3.978,-3.9375,-3.9375,-3.9062,-3.8555,-3.8203,-3.8418,-3.873,-3.7871,-3.7559,-3.7422,-3.6543,-3.5215,-3.3848,-3.3144,-3.293,-3.2754,-3.1914,-3.1934,-3.1992,-3.1133,-3.0898,-3.0996,-3.1348,-3.2422,-3.3125,-3.2109,-3.3379,-3.4531,-3.4023,-3.4629,-3.5371,-3.5918,-3.5996,-3.5996,-3.5952,-3.5951,-3.5948,-3.5899,-3.5926,-3.5951,-3.5951,-3.5951,-3.5619,-3.4721,-3.3886,-3.3066,-3.2246,-3.1387,-3.0898,-3.0898,-3.0898,-3.0898,-3.0898,-3.0898,-3.0898,-3.0898,-3.0898,-3.0898,-3.0898,-3.0898,-3.0898,-3.6387,-3.6387,-3.6387,-3.6387,-3.7031,-3.7676,-3.7676,-3.8164,-3.8437,-3.7812,-3.7969,-3.8105,-3.7754,-3.6758,-3.6191,-3.6816,-3.5371,-3.4297,-3.4648,-3.5664,-3.6601,-3.7226,0.0,-4.0049,0.0,-4.1794,0.0,0.0,0.0,0.0,0.0,-4.3835,-4.3605,-4.3124,-4.3104,-4.2816,-4.22,-4.2181,-4.1758,-4.09,-4.0975,-4.0894,-4.0636,-4.0727,-4.0766,-4.077,0.0,0.0,0.0,-4.095,-4.0623,-4.0162,-4.0162,-3.9816,-3.9313,-3.9313,-3.9725,-4.0195,-3.957,-3.9375,-3.9238,-3.8359,-3.7656,-3.6875,-3.5391,-3.457,-3.3945,-3.2851,-3.2383,-3.1992,-3.1133,-3.1094,-3.1211,-3.0957,-3.1992,-3.2656,-3.1211,-3.2519,-3.3848,-3.3476,-3.4101,-3.498,-3.5859,-3.5996,-3.5996,-3.5996,-3.5996,-3.5996,-3.5996,-3.5996,-3.5996,-3.5996,-3.5996,-3.5742,-3.5137,-3.4297,-3.3535,-3.2988,-3.1894,-3.1289,-3.1289,-3.1035,-3.0898,-3.0898,-3.0898,-3.0898,-3.0898,-3.0898,-3.0898,-3.0898,-3.0898,-3.0898,-3.7285,-3.7285,-3.7285,-3.7285,-3.7949,-3.8594,-3.8594,-3.8594,-3.8594,-3.8594,-3.791,-3.7578,-3.8437,-3.7168,-3.5996,-3.6016,-3.5996,-3.5664,-3.4824,-3.6191,-3.7285,0.0,0.0,-3.9706,-3.9704,-4.182,0.0,0.0,0.0,0.0,0.0,-4.5575,-4.4806,-4.3143,-4.3104,-4.3104,-4.3085,-4.3085,-4.2643,-4.1788,-4.1797,-4.1335,-4.0504,-4.0649,-4.0697,0.0,0.0,0.0,0.0,-4.0801,-4.0801,-4.0782,-4.0782,-4.088,-4.0976,-4.0976,-4.1061,-4.1191,-4.1172,-4.1172,-4.1035,-4.0156,-3.9863,-3.9707,-3.8809,-3.7344,-3.5605,-3.3887,-3.2812,-3.1992,-3.1133,-3.1543,-3.1973,-3.1113,-3.1562,-3.1973,-3.1094,-3.1601,-3.2461,-3.3242,-3.4101,-3.498,-3.5859,-3.5996,-3.5996,-3.5996,-3.5996,-3.5996,-3.5996,-3.5996,-3.5996,-3.5996,-3.5996,-3.5996,-3.5996,-3.5195,-3.4687,-3.4668,-3.3105,-3.2187,-3.2187,-3.1367,-3.0898,-3.0898,-3.0898,-3.0898,-3.0898,-3.0898,-3.0898,-3.0898,-3.0898,-3.0898,-3.8184,-3.8184,-3.8184,-3.8184,-3.8848,-3.9492,-3.9492,-3.9941,-4.0039,-3.8848,-3.8848,-3.8809,-3.7871,-3.7266,-3.707,-3.7676,-3.6777,-3.6113,0.0,0.0,0.0,-3.7991,-3.9435,-4.0825,0.0,0.0,0.0,0.0,0.0,0.0,0.0,-4.5594,-4.5364,-4.4825,-4.4806,-4.4509,-4.3932,-4.3912,-4.3508,-4.2701,-4.2701,-4.2239,-4.1393,-4.1435,0.0,0.0,0.0,0.0,0.0,-4.0731,-4.0767,-4.0797,-4.0797,-4.0839,-4.0864,-4.0864,-4.0952,-4.1056,-4.1056,-4.1127,-4.1152,-4.0879,-4.0781,-4.0625,-3.9746,-3.8691,-3.7539,-3.6387,-3.5019,-3.3711,-3.2832,-3.2402,-3.1973,-3.1113,-3.1562,-3.1953,-3.1094,-3.1582,-3.2441,-3.3242,-3.3613,-3.4277,-3.5742,-3.5996,-3.5996,-3.5996,-3.5996,-3.5996,-3.5996,-3.5996,-3.5996,-3.5996,-3.5996,-3.5762,-3.5156,-3.4863,-3.4219,-3.3066,-3.248,-3.1934,-3.1348,-3.1055,-3.0898,-3.0898,-3.0898,-3.0898,-3.0898,-3.0898,-3.0898,-3.0898,-3.0898,-3.0898,-3.918,-3.9082,-3.9082,-3.9082,-3.9492,-3.9902,-3.9902,-4.0078,-3.9902,-3.8828,-3.8769,-3.8691,-3.793,-3.7519,-3.748,-3.8027,-3.7207,-3.6562,0.0,0.0,0.0,-3.8656,0.0,0.0,0.0,0.0,0.0,0.0,0.0,0.0,0.0,-4.5594,-4.5594,-4.5594,-4.5594,-4.5344,-4.4797,-4.4778,-4.4374,-4.3547,-4.3547,-4.2951,-4.1788,-4.1788,0.0,0.0,0.0,0.0,0.0,-4.063,-4.0654,-4.0701,-4.0701,-4.0713,-4.0752,-4.0752,-4.0824,-4.0922,-4.0922,-4.0988,-4.1054,-4.1105,-4.1151,-4.1094,-4.0566,-3.9551,-3.8496,-3.7949,-3.6777,-3.5488,-3.4609,-3.3769,-3.3008,-3.2461,-3.2266,-3.2051,-3.1504,-3.1562,-3.1953,-3.2793,-3.2949,-3.3496,-3.5215,-3.5508,-3.5625,-3.5957,-3.5996,-3.5996,-3.5996,-3.5996,-3.5996,-3.5996,-3.5996,-3.5644,-3.4766,-3.5,-3.4453,-3.2754,-3.2656,-3.2266,-3.1426,-3.1074,-3.0898,-3.0898,-3.0898,-3.0898,-3.0898,-3.0898,-3.0898,-3.0898,-3.0898,-3.0898,0.0,-3.998,-3.998,-3.9922,-3.9902,-3.9902,-3.9902,-3.9238,0.0,-3.8516,-3.7851,-3.7539,-3.8281,-3.7754,-3.7226,-3.7285,-3.7285,0.0,0.0,-3.6848,0.0,0.0,-3.9487,0.0,0.0,0.0,0.0,0.0,0.0,0.0,0.0,-4.5594,-4.5594,-4.5594,-4.5594,-4.5594,-4.5594,-4.5594,-4.519,-4.4393,-4.4393,-4.3508,-4.1885,-4.1885,0.0,0.0,0.0,0.0,0.0,-4.0496,-4.0496,-4.0496,-4.0496,-4.0581,-4.068,-4.068,-4.0736,-4.0785,-4.0785,-4.0793,-4.0813,-4.0952,-4.1077,-4.1171,-4.1172,-4.0058,-3.8789,-3.8789,-3.8164,-3.7285,-3.6406,-3.5547,-3.4844,-3.4648,-3.3476,-3.2324,-3.2148,-3.1523,-3.125,-3.2129,-3.2285,-3.2812,-3.4492,-3.4785,-3.5078,-3.5879,-3.5996,-3.5996,-3.5996,-3.5996,-3.5996,-3.5996,-3.5996,-3.5625,-3.4687,-3.5469,-3.5234,-3.3437,-3.3379,-3.3008,-3.2148,-3.1328,-3.0898,-3.0898,-3.0898,-3.0898,-3.0898,-3.0898,-3.0898,-3.0898,-3.0898,-3.0898,-4.0957,0.0,-4.0723,-4.0078,-3.9902,-3.9902,0.0,-3.9238,-3.8418,-3.7734,-3.7441,-3.7168,-3.6699,-3.6445,-3.6523,-3.7187,0.0,-3.7549,-3.8653,0.0,0.0,-4.0355,-4.0294,0.0,0.0,0.0,0.0,0.0,0.0,0.0,0.0,-4.5594,-4.5594,-4.5594,-4.5594,-4.5594,-4.5594,-4.5594,-4.5498,-4.5287,-4.5287,-4.4412,-4.2797,-4.2797,0.0,0.0,0.0,0.0,-4.0496,-4.0496,-4.0496,-4.0496,-4.0496,-4.0527,-4.0545,-4.0545,-4.0617,-4.0715,-4.0715,-4.0762,-4.0801,-4.0847,-4.0867,-4.0914,-4.1021,-4.0834,-4.0586,-4.0586,-3.9961,-3.9082,-3.8223,-3.7344,-3.6172,-3.418,-3.3906,-3.3574,-3.1621,-3.1562,-3.2148,-3.2969,-3.3125,-3.3672,-3.5391,-3.5684,-3.5762,-3.5976,-3.5996,-3.5996,-3.5996,-3.5996,-3.5996,-3.5996,-3.5996,-3.5371,-3.3848,-3.5117,-3.498,-3.2637,-3.3066,-3.2734,-3.1269,-3.1016,-3.0898,-3.0898,-3.0898,-3.0898,-3.0898,-3.0898,-3.0898,-3.0898,-3.0898,-3.0898,-4.0215,-4.0586,-4.1094,-4.0605,-3.9902,-3.9297,-3.9297,-3.832,-3.7266,-3.6797,-3.6699,-3.668,-3.6601,-3.6269,-3.6406,-3.761,-3.7416,0.0,0.0,0.0,-4.0185,-4.0571,-4.0537,0.0,0.0,0.0,0.0,0.0,0.0,0.0,0.0,-4.5594,-4.5594,-4.5594,-4.5594,-4.5594,-4.5594,-4.5594,-4.5594,-4.5594,-4.519,-4.4335,-4.3085,-4.2701,-4.1777,0.0,0.0,0.0,-4.0496,-4.0496,-4.0496,-4.0496,-4.0496,-4.0496,-4.0496,-4.0496,-4.0545,-4.061,-4.061,-4.0678,-4.0757,-4.0757,-4.0775,-4.0809,-4.0899,-4.0957,-4.1049,-4.1171,-4.0859,-4.0391,-3.9922,-3.9141,-3.8047,-3.6211,-3.5234,-3.4219,-3.2422,-3.2129,-3.2324,-3.2754,-3.2851,-3.3262,-3.457,-3.4805,-3.4941,-3.5332,-3.5391,-3.5547,-3.5957,-3.5644,-3.5566,-3.5957,-3.5644,-3.4863,-3.3516,-3.4258,-3.3887,-3.1738,-3.2383,-3.2266,-3.0957,-3.0898,-3.0898,-3.0898,-3.0898,-3.0898,-3.0898,-3.0898,-3.0898,-3.0898,-3.0898,-3.0898,-3.9355,-3.998,-4.0976,-4.084,-3.9785,-3.8769,-3.8633,-3.7344,-3.6152,-3.6035,-3.5996,-3.623,-3.6973,-3.6601,-3.6638,0.0,0.0,0.0,-3.9364,-3.9525,-3.9746,-4.0419,0.0,0.0,0.0,0.0,0.0,0.0,0.0,0.0,0.0,-4.5594,-4.5594,-4.5594,-4.5479,-4.5402,-4.5402,-4.5402,-4.5402,-4.5402,-4.4528,-4.3682,-4.2874,-4.2143,-4.1316,0.0,0.0,0.0,-4.0496,-4.0496,-4.0496,-4.0496,-4.0496,-4.0496,-4.0496,-4.0496,-4.0496,-4.0496,-4.0496,-4.0561,-4.0661,-4.0661,-4.0715,-4.0751,-4.0788,-4.0773,-4.0836,-4.1077,-4.115,-4.1171,-4.1191,-4.0644,-3.9844,-3.8848,-3.7012,-3.5117,-3.3691,-3.3066,-3.2676,-3.2285,-3.2305,-3.2598,-3.3281,-3.3398,-3.3652,-3.4394,-3.4492,-3.4766,-3.5508,-3.4961,-3.4785,-3.5527,-3.4941,-3.4141,-3.3281,-3.3223,-3.2559,-3.0996,-3.1719,-3.1816,-3.0937,-3.0898,-3.0898,-3.0898,-3.0898,-3.0898,-3.0898,-3.0898,-3.0898,-3.0898,-3.0898,-3.0898,-4.0664,-4.0469,-3.9922,-3.918,-3.9355,-3.9512,-3.8769,-3.7812,-3.6894,-3.6152,-3.5996,-3.6035,-3.6172,-3.6699,-3.7146,0.0,0.0,-3.935,0.0,0.0,-4.0362,0.0,0.0,0.0,0.0,0.0,0.0,0.0,0.0,0.0,0.0,-4.5594,-4.5594,-4.5594,-4.4874,-4.4489,-4.4489,-4.4489,-4.4489,-4.4489,-4.3662,-4.2835,-4.2,-4.1865,-4.1316,0.0,0.0,-4.0496,-4.0496,-4.0496,-4.0496,-4.0496,-4.0496,-4.0496,-4.0496,-4.0496,-4.0496,-4.0496,-4.0496,-4.0512,-4.0523,-4.0523,-4.0545,-4.0575,-4.0678,-4.0713,-4.0751,-4.0832,-4.093,-4.1054,-4.1171,-4.1094,-4.0586,-3.8984,-3.8867,-3.8047,-3.4238,-3.4453,-3.4785,-3.2617,-3.2754,-3.3262,-3.3379,-3.3398,-3.3457,-3.3574,-3.3594,-3.3652,-3.3789,-3.3672,-3.3652,-3.3789,-3.3672,-3.3262,-3.2441,-3.2383,-3.1953,-3.0957,-3.1719,-3.1816,-3.0937,-3.0898,-3.0898,-3.0898,-3.0898,-3.0898,-3.0898,-3.0898,-3.0898,-3.0898,-3.0898,-3.0898,-3.9101,-3.9492,-3.9687,-3.8828,-3.9258,-3.9805,-3.9394,-3.8633,-3.7754,-3.6875,-3.6699,-3.6699,-3.6699,0.0,-3.7446,-3.8225,0.0,-4.0104,-4.0446,0.0,0.0,0.0,0.0,0.0,0.0,0.0,0.0,0.0,0.0,0.0,0.0,0.0,-4.4239,-4.4239,-4.3855,-4.3643,-4.3643,-4.3181,-4.3181,-4.3643,-4.2797,-4.22,-4.1769,-4.1316,-4.0873,-4.0496,0.0,-4.0496,-4.0496,-4.0496,-4.0496,-4.0496,-4.0496,-4.0496,-4.0496,-4.0496,-4.0496,-4.0496,-4.0496,-4.0496,-4.0496,-4.0496,-4.0496,-4.0512,-4.0561,-4.0582,-4.0604,-4.0721,-4.0828,-4.092,-4.1054,-4.1082,-4.0793,-3.9589,-3.9258,-3.8516,-3.6035,-3.5391,-3.5098,-3.4394,-3.3437,-3.2891,-3.332,-3.3047,-3.2754,-3.2754,-3.2754,-3.291,-3.334,-3.3027,-3.293,-3.3359,-3.3008,-3.2598,-3.2226,-3.1777,-3.1328,-3.0937,-3.1289,-3.1328,-3.0918,-3.0898,-3.0898,-3.0898,-3.0898,-3.0898,-3.0898,-3.0898,-3.0898,-3.0898,-3.0898,-3.0898,-3.7734,-3.8437,-3.918,-3.8711,-3.9414,-4.0156,-3.9941,-3.9375,-3.8652,-3.7773,-3.7441,-3.7344,-3.7537,-3.7601,0.0,-3.9475,-4.0144,-4.0496,0.0,0.0,0.0,0.0,0.0,0.0,0.0,0.0,0.0,0.0,0.0,0.0,0.0,0.0,-4.3104,-4.3104,-4.2893,-4.2797,-4.2797,-4.1931,-4.1931,-4.2797,-4.1912,-4.1508,-4.147,-4.0804,-4.0496,-4.0496,-4.0496,-4.0496,-4.0496,-4.0496,-4.0496,-4.0496,-4.0496,-4.0496,-4.0496,-4.0496,-4.0496,-4.0496,-4.0496,-4.0496,-4.0496,-4.0496,-4.0496,-4.0496,-4.0496,-4.0496,-4.0527,-4.063,-4.0693,-4.0755,-4.0914,-4.0955,-4.0814,-4.0287,-3.9646,-3.8885,-3.7832,-3.6719,-3.5801,-3.5469,-3.3984,-3.2793,-3.2812,-3.2305,-3.1894,-3.1894,-3.1894,-3.2129,-3.2734,-3.2285,-3.2129,-3.2754,-3.2266,-3.1894,-3.1894,-3.1289,-3.0898,-3.0898,-3.0898,-3.0898,-3.0898,-3.0898,-3.0898,-3.0898,-3.0898,-3.0898,-3.0898,-3.0898,-3.0898,-3.0898,-3.0898,-3.0898,-3.8301,-3.8008,-3.7676,-3.8418,-3.9863,-4.0898,-4.0078,-3.9844,-3.9551,-3.8691,-3.7851,-3.7518,-3.8195,-3.8821,-3.9542,-4.0465,-4.0556,0.0,0.0,0.0,0.0,0.0,0.0,0.0,0.0,0.0,0.0,0.0,0.0,0.0,0.0,0.0,0.0,-4.3104,-4.2316,-4.1885,-4.1885,-4.1027,-4.1027,-4.1885,-4.1008,-4.0593,-4.0593,-4.0535,-4.0496,-4.0496,-4.0496,-4.0496,-4.0496,-4.0496,-4.0496,-4.0496,-4.0496,-4.0496,-4.0496,-4.0496,-4.0496,-4.0496,-4.0496,-4.0496,-4.0496,-4.0496,-4.0496,-4.0496,-4.0496,-4.0496,-4.0496,-4.0512,-4.0527,-4.0563,-4.0755,-4.0809,-4.0834,-4.089,-4.0865,-4.0406,-3.8847,-3.9043,-3.8359,-3.4355,-3.4082,-3.3789,-3.1484,-3.1035,-3.0996,-3.0996,-3.0996,-3.1016,-3.1074,-3.1035,-3.1016,-3.1074,-3.1035,-3.0996,-3.0996,-3.0937,-3.0898,-3.0898,-3.0898,-3.0898,-3.0898,-3.0898,-3.0898,-3.0898,-3.0898,-3.0898,-3.0898,-3.0898,-3.0898,-3.0898,-3.0898,-3.0898,-3.6894,-3.7539,-3.8184,-3.8516,-3.9902,-4.0976,-4.0098,-3.9902,-3.9805,-3.9473,-3.9141,-3.8805,-3.8402,0.0,-3.9582,-3.9805,-4.0215,0.0,0.0,0.0,0.0,0.0,0.0,0.0,0.0,0.0,0.0,0.0,0.0,0.0,0.0,0.0,0.0,-4.1477,-4.1162,-4.0989,-4.0989,-4.0669,-4.0669,-4.0989,-4.0669,-4.0496,-4.0496,-4.0496,-4.0496,-4.0496,-4.0496,-4.0496,-4.0496,-4.0496,-4.0496,-4.0496,-4.0496,-4.0496,-4.0496,-4.0496,-4.0496,-4.0496,-4.0496,-4.0496,-4.0496,-4.0496,-4.0496,-4.0496,-4.0496,-4.0496,-4.0496,-4.0496,-4.0496,-4.0537,-4.0693,-4.0742,-4.0757,-4.085,-4.0874,-4.0739,-4.0211,-3.9496,-3.8662,-3.7636,-3.5527,-3.3769,-3.334,-3.1953,-3.0898,-3.0898,-3.0898,-3.0898,-3.0898,-3.0898,-3.0898,-3.0898,-3.0898,-3.0898,-3.0898,-3.0898,-3.0898,-3.0898,-3.0898,-3.0898,-3.0898,-3.0898,-3.0898,-3.0898,-3.0898,-3.0898,-3.0898,-3.0898,-3.0898,-3.0898,-3.0898,-3.0898,-3.5996,-3.707,-3.8184,-3.8184,-3.9297,-4.0293,-3.9961,-4.0117,-4.0312,-4.0312,-4.0249,-3.987,-3.89,-3.9358,0.0,0.0,0.0,0.0,0.0,0.0,0.0,0.0,0.0,0.0,0.0,0.0,0.0,0.0,0.0,0.0,0.0,0.0,0.0,0.0,-4.0496,-4.0496,-4.0496,-4.0496,-4.0496,-4.0496,-4.0496,-4.0496,-4.0496,-4.0496,-4.0496,-4.0496,-4.0496,-4.0496,-4.0496,-4.0496,-4.0496,-4.0496,-4.0496,-4.0496,-4.0496,-4.0496,-4.0496,-4.0496,-4.0496,-4.0496,-4.0496,-4.0496,-4.0496,-4.0496,-4.0496,-4.0496,-4.0496,-4.0496,-4.0496,-4.0527,-4.061,-4.0643,-4.0667,-4.0752,-4.0766,-4.0796,-4.0911,-4.0025,-3.9266,-3.9407,-3.6835,-3.4551,-3.4336,-3.2637,-3.1211,-3.0937,-3.0898,-3.0898,-3.0898,-3.0898,-3.0898,-3.0898,-3.0898,-3.0898,-3.0898,-3.0898,-3.0898,-3.0898,-3.0898,-3.0898,-3.0898,-3.0898,-3.0898,-3.0898,-3.0898,-3.0898,-3.0898,-3.0898,-3.0898,-3.0898,-3.0898,-3.0898,-3.5996,-3.6641,-3.7305,-3.7305,-3.7969,-3.8848,-3.9707,-4.0566,-4.1191,-4.1191,-4.099,-4.0564,-3.9758,-4.0093,0.0,0.0,0.0,0.0,0.0,0.0,0.0,0.0,0.0,0.0,0.0,0.0,0.0,0.0,0.0,0.0,0.0,0.0,0.0,0.0,-4.0496,-4.0496,-4.0496,-4.0496,-4.0496,-4.0496,-4.0496,-4.0496,-4.0496,-4.0496,-4.0496,-4.0496,-4.0496,-4.0496,-4.0496,-4.0496,-4.0496,-4.0496,-4.0496,-4.0496,-4.0496,-4.0496,-4.0496,-4.0496,-4.0496,-4.0496,-4.0496,-4.0496,-4.0496,-4.0496,-4.0496,-4.0496,-4.0496,-4.0496,-4.0496,-4.0496,-4.0496,-4.0496,-4.0523,-4.0681,-4.0697,-4.0718,-4.0773,-4.0908,-4.0487,-3.8766,-3.7823,-3.6484,-3.3887,-3.2754,-3.1914,-3.1035,-3.0918,-3.0898,-3.0898,-3.0898,-3.0898,-3.0898,-3.0898,-3.0898,-3.0898,-3.0898,-3.0898,-3.0898,-3.0898,-3.0898,-3.0898,-3.0898,-3.0898,-3.0898,-3.0898,-3.0898,-3.0898,-3.0898,-3.0898,-3.0898,-3.0898,-3.0898,-3.5996,-3.6641,-3.7305,-3.7305,-3.8418,-3.957,-3.9844,-4.0098,-4.0469,-4.1074,-4.1055,-4.0663,-3.9769,-4.0169,0.0,0.0,0.0,0.0,0.0,0.0,0.0,0.0,0.0,0.0,0.0,0.0,0.0,0.0,0.0,0.0,0.0,0.0,0.0,0.0,-4.0496,-4.0496,-4.0496,-4.0496,-4.0496,-4.0496,-4.0496,-4.0496,-4.0496,-4.0496,-4.0496,-4.0496,-4.0496,-4.0496,-4.0496,-4.0496,-4.0496,-4.0496,-4.0496,-4.0496,-4.0496,-4.0496,-4.0496,-4.0496,-4.0496,-4.0496,-4.0496,-4.0496,-4.0496,-4.0496,-4.0496,-4.0496,-4.0496,-4.0496,-4.0496,-4.0496,-4.0496,-4.0496,-4.0512,-4.0545,-4.0559,-4.0589,-4.0693,-4.0807,-4.0724,-4.0303,-3.9132,-3.7773,-3.6387,-3.4414,-3.2754,-3.1934,-3.1289,-3.0898,-3.0898,-3.0898,-3.0898,-3.0898,-3.0898,-3.0898,-3.0898,-3.0898,-3.0898,-3.0898,-3.0898,-3.0898,-3.0898,-3.0898,-3.0898,-3.0898,-3.0898,-3.0898,-3.0898,-3.0898,-3.0898,-3.0898,-3.0898,-3.0898,-3.5996,-3.6641,-3.7305,-3.7305,-3.8359,-3.9473,-3.9824,-4.0176,-4.0566,-4.1094,-4.1083,-4.0803,-4.0185,-4.0413,0.0,0.0,0.0,0.0,0.0,0.0,0.0,0.0,0.0,0.0,0.0,0.0,0.0,0.0,0.0,0.0,0.0,0.0,0.0,0.0,-4.0496,-4.0496,-4.0496,-4.0496,-4.0496,-4.0496,-4.0496,-4.0496,-4.0496,-4.0496,-4.0496,-4.0496,-4.0496,-4.0496,-4.0496,-4.0496,-4.0496,-4.0496,-4.0496,-4.0496,-4.0496,-4.0496,-4.0496,-4.0496,-4.0496,-4.0496,-4.0496,-4.0496,-4.0496,-4.0496,-4.0496,-4.0496,-4.0496,-4.0496,-4.0496,-4.0496,-4.0496,-4.0496,-4.0496,-4.0496,-4.0496,-4.0527,-4.0603,-4.0693,-4.0784,-4.0902,-3.9893,-3.8785,-3.7969,-3.5937,-3.4141,-3.332,-3.2187,-3.1289,-3.0937,-3.0898,-3.0898,-3.0898,-3.0898,-3.0898,-3.0898,-3.0898,-3.0898,-3.0898,-3.0898,-3.0898,-3.0898,-3.0898,-3.0898,-3.0898,-3.0898,-3.0898,-3.0898,-3.0898,-3.0898,-3.0898,-3.0898,-3.0898,-3.5996,-3.6582,-3.7187,-3.7187,-3.7832,-3.8711,-3.957,-4.0391,-4.1016,-4.1172,0.0,-4.0959,-4.0816,-4.0757,0.0,0.0,0.0,0.0,0.0,0.0,0.0,0.0,0.0,0.0,0.0,0.0,0.0,0.0,0.0,0.0,0.0,0.0,0.0,0.0,-4.0496,-4.0496,-4.0496,-4.0496,-4.0496,0.0,-4.0496,-4.0496,-4.0496,-4.0496,-4.0496,-4.0496,-4.0496,-4.0496,-4.0496,-4.0496,-4.0496,-4.0496,-4.0496,-4.0496,-4.0496,-4.0496,-4.0496,-4.0496,-4.0496,-4.0496,-4.0496,-4.0496,-4.0496,-4.0496,-4.0496,-4.0496,-4.0496,-4.0496,-4.0496,-4.0496,-4.0496,-4.0496,-4.0496,-4.0496,-4.0496,-4.0496,-4.0496,-4.0603,-4.0724,-4.0796,-4.0265,-3.9584,-3.8847,-3.7344,-3.5898,-3.4863,-3.3262,-3.1914,-3.1113,-3.0957,-3.0898,-3.0898,-3.0898,-3.0898,-3.0898,-3.0898,-3.0898,-3.0898,-3.0898,-3.0898,-3.0898,-3.0898,-3.0898,-3.0898,-3.0898,-3.0898,-3.0898,-3.0898,-3.0898,-3.0898,-3.0898,-3.0898,-3.5996,-3.6133,-3.6289,-3.6289,-3.6934,-3.7812,-3.8672,-3.9023,-3.9551,-4.0918,-4.1083,-4.0959,-4.0816,0.0,0.0,0.0,0.0,0.0,0.0,0.0,0.0,0.0,0.0,0.0,0.0,0.0,0.0,0.0,0.0,0.0,0.0,0.0,0.0,-4.0496,-4.0496,-4.0496,-4.0496,-4.0496,-4.0496,0.0,-4.0496,-4.0496,-4.0496,-4.0496,-4.0496,-4.0496,-4.0496,-4.0496,-4.0496,-4.0496,-4.0496,-4.0496,-4.0496,-4.0496,-4.0496,-4.0496,-4.0496,-4.0496,-4.0496,-4.0496,-4.0496,-4.0496,-4.0496,-4.0496,-4.0496,-4.0496,-4.0496,-4.0496,-4.0496,-4.0496,-4.0496,-4.0496,-4.0496,-4.0496,-4.0496,-4.0496,-4.0496,-4.0603,-4.0724,-4.0796,-4.0755,-4.0483,-3.9745,-3.873,-3.7285,-3.5039,-3.3262,-3.2129,-3.1934,-3.1328,-3.0898,-3.0898,-3.0898,-3.0898,-3.0898,-3.0898,-3.0898,-3.0898,-3.0898,-3.0898,-3.0898,-3.0898,-3.0898,-3.0898,-3.0898,-3.0898,-3.0898,-3.0898,-3.0898,-3.0898,-3.0898,-3.0898,-3.5996,-3.5996,-3.5898,-3.5488,-3.5723,-3.6172,-3.6621,-3.6738,-3.7109,-3.8437,-3.9645,-4.0291,0.0,0.0,0.0,0.0,0.0,0.0,0.0,0.0,0.0,0.0,0.0,0.0,0.0,0.0,0.0,0.0,0.0,0.0,0.0,-4.0131,-4.0092,-4.0496,-4.0496,-4.0496,-4.0496,-4.0496,-4.0496,-4.0496,-4.0496,-4.0496,-4.0496,-4.0496,-4.0496,-4.0496,-4.0496,-4.0496,-4.0496,-4.0496,-4.0496,-4.0496,-4.0496,-4.0496,-4.0496,-4.0496,-4.0496,-4.0496,-4.0496,-4.0537,-4.0595,-4.0527,-4.0537,-4.0575,-4.0527,-4.0496,-4.0496,-4.0496,-4.0496,-4.0496,-4.0496,-4.0496,-4.0496,-4.0496,-4.0496,-4.0496,-4.0496,-4.0552,-4.0636,-4.0727,-4.0803,-4.0753,-4.0472,-3.9764,-3.8476,-3.6289,-3.4844,-3.3711,-3.2871,-3.2031,-3.1367,-3.0937,-3.0898,-3.0898,-3.0898,-3.0898,-3.0898,-3.0898,-3.0898,-3.0898,-3.0898,-3.0898,-3.0898,-3.0898,-3.0898,-3.0898,-3.0898,-3.0898,-3.0898,-3.0898,-3.0898,-3.0898,-3.5996,-3.5898,-3.5566,-3.4687,-3.4473,-3.4473,-3.4473,-3.4473,-3.4687,-3.5391,-3.7519,0.0,0.0,0.0,0.0,0.0,0.0,0.0,0.0,0.0,0.0,0.0,0.0,0.0,0.0,0.0,0.0,0.0,0.0,0.0,-4.0208,-3.9669,-3.9669,-4.0477,-4.0496,-4.0512,-4.0523,-4.0512,-4.0512,-4.0523,-4.0512,-4.0496,-4.0496,-4.0496,-4.0496,-4.0496,-4.0496,-4.0496,-4.0496,-4.0496,-4.0496,-4.0496,-4.0496,-4.0496,-4.0496,-4.0496,-4.0496,-4.0496,-4.0496,-4.0581,-4.0642,-4.0566,-4.0589,-4.0655,-4.0566,-4.0519,-4.0496,-4.0496,-4.0496,-4.0496,-4.0496,-4.0496,-4.0496,-4.0496,-4.0496,-4.0496,-4.0496,-4.0496,-4.053,-4.0667,-4.0701,-4.0781,-4.0976,-4.0379,-3.9374,-3.7969,-3.6875,-3.5703,-3.4258,-3.3223,-3.2363,-3.1621,-3.1426,-3.1328,-3.1328,-3.1191,-3.1113,-3.1113,-3.0976,-3.0898,-3.0898,-3.0898,-3.0898,-3.0898,-3.0898,-3.0898,-3.0898,-3.0898,-3.0898,-3.0898,-3.0898,-3.0898,-3.5996,-3.5449,-3.4668,-3.3789,-3.3574,-3.3574,0.0,0.0,-3.3613,0.0,-3.5234,0.0,0.0,0.0,0.0,0.0,0.0,0.0,0.0,0.0,0.0,0.0,0.0,0.0,0.0,0.0,0.0,0.0,0.0,0.0,-3.9419,-3.9361,-3.9669,-4.0477,-4.0496,-4.0559,-4.0667,-4.0559,-4.0559,-4.0667,-4.0559,-4.0496,-4.0496,-4.0496,-4.0496,-4.0496,-4.0496,-4.0496,-4.0496,-4.0496,-4.0496,-4.0496,-4.0496,-4.0496,-4.0496,-4.0496,-4.0496,-4.0496,-4.0496,-4.0512,-4.0537,-4.0649,-4.0603,-4.0545,-4.063,-4.0582,-4.0496,-4.0496,-4.0496,-4.0496,-4.0496,-4.0496,-4.0496,-4.0496,-4.0496,-4.0496,-4.0496,-4.0496,-4.053,-4.0667,-4.0742,-4.0836,-4.0983,-4.0297,-3.9688,-3.957,-3.8164,-3.7031,-3.6816,-3.5371,-3.4316,-3.4199,-3.3516,-3.3066,-3.3066,-3.2422,-3.2031,-3.2031,-3.1328,-3.0898,-3.0898,-3.0898,-3.0898,-3.0898,-3.0898,-3.0898,-3.0898,-3.0898,-3.0898,-3.0898,-3.0898,-3.0898,-3.4531,-3.4258,-3.3769,-3.2949,-3.2734,-3.2598,-3.2109,-3.1992,-3.1992,-3.1992,0.0,0.0,0.0,0.0,0.0,0.0,0.0,0.0,0.0,0.0,0.0,0.0,0.0,0.0,0.0,0.0,0.0,0.0,0.0,-3.7225,-3.8496,-3.8104,-3.8238,-3.9065,-3.9104,-3.9378,-3.9968,-3.9902,-4.0182,-4.0757,-4.0654,-4.061,-4.061,-4.0523,-4.0496,-4.0496,-4.0496,-4.0496,-4.0496,-4.0496,-4.0496,-4.0496,-4.0496,-4.0496,-4.0496,-4.0496,-4.0496,-4.0496,-4.0496,-4.0545,-4.061,-4.0589,-4.0596,-4.061,-4.0589,-4.0545,-4.0496,-4.0496,-4.0496,-4.0496,-4.0496,-4.0496,-4.0496,-4.0496,-4.0496,-4.0496,-4.0496,-4.0496,-4.0519,-4.0581,-4.0678,-4.0776,-4.0864,-4.0621,-4.0465,-4.0605,-3.9551,-3.8574,-3.8086,-3.6934,-3.5976,-3.5488,-3.5098,-3.4668,-3.418,-3.3809,-3.3398,-3.2891,-3.2519,-3.2305,-3.2305,-3.1875,-3.1621,-3.1621,-3.1152,-3.0898,-3.0898,-3.0898,-3.0898,-3.0898,-3.0898,-3.0898,-3.3144,-3.3105,-3.2891,-3.207,-3.1875,-3.1699,0.0,0.0,-3.0898,0.0,0.0,0.0,0.0,0.0,0.0,0.0,0.0,0.0,0.0,0.0,0.0,0.0,0.0,0.0,0.0,0.0,0.0,0.0,0.0,-3.6021,-3.7622,-3.7089,-3.7126,-3.7969,-3.8007,-3.8356,-3.9088,-3.9301,-3.9857,-4.0728,-4.0718,-4.0697,-4.0697,-4.0617,-4.0584,-4.0577,-4.0523,-4.0496,-4.0496,-4.0496,-4.0496,-4.0496,-4.0496,-4.0496,-4.0496,-4.0496,-4.0527,-4.0545,-4.0512,-4.059,-4.0718,-4.0604,-4.0648,-4.0704,-4.0654,-4.0584,-4.0552,-4.0552,-4.0534,-4.0496,-4.0496,-4.0496,-4.0496,-4.0496,-4.0496,-4.0496,-4.0496,-4.0496,-4.0496,-4.0496,-4.0568,-4.0672,-4.0752,-4.0864,-4.0994,-4.1128,-4.0625,-4.0,-3.9336,-3.8496,-3.7715,-3.7051,-3.6797,-3.6406,-3.5742,-3.5488,-3.5078,-3.4434,-3.3984,-3.373,-3.373,-3.2949,-3.25,-3.25,-3.1875,-3.1426,-3.123,-3.123,-3.1348,-3.1523,-3.1094,-3.1133,-3.2461,-3.2266,-3.2051,-3.1172,-3.0976,-3.0957,0.0,0.0,0.0,0.0,0.0,0.0,0.0,0.0,0.0,0.0,0.0,0.0,0.0,0.0,0.0,0.0,0.0,0.0,0.0,0.0,0.0,0.0,0.0,-3.5255,-3.6878,-3.6911,-3.7229,-3.7976,-3.8007,-3.8086,-3.826,-3.901,-3.9786,-4.0527,-4.063,-4.0697,-4.0703,-4.0752,-4.0781,-4.0768,-4.0571,-4.0496,-4.0496,-4.0496,-4.0496,-4.0496,-4.0496,-4.0496,-4.0496,-4.0496,-4.0588,-4.0667,-4.0537,-4.0629,-4.0789,-4.0785,-4.0785,-4.0828,-4.0944,-4.0832,-4.0686,-4.0686,-4.0596,-4.0496,-4.0496,-4.0496,-4.0496,-4.0496,-4.0496,-4.0496,-4.0496,-4.0496,-4.0496,-4.0496,-4.0504,-4.0552,-4.0686,-4.0771,-4.086,-4.0992,-4.1087,-4.1113,-4.1074,-4.0293,-3.9746,-3.9707,-3.8965,-3.8457,-3.8398,-3.7637,-3.7148,-3.7109,-3.5547,-3.4629,-3.4629,-3.3809,-3.334,-3.334,-3.3281,-3.2891,-3.2129,-3.2129,-3.2519,-3.3223,-3.1641,-3.1758,-3.1445,-3.1367,-3.1289,-3.0976,-3.0898,-3.0898,-3.0898,-3.0898,-3.0898,0.0,0.0,0.0,0.0,0.0,0.0,0.0,0.0,0.0,0.0,0.0,0.0,0.0,0.0,0.0,0.0,0.0,0.0,0.0,0.0,0.0,-3.5298,-3.5367,-3.5703,-3.6443,-3.6456,-3.7013,-3.8183,-3.9078,-3.9927,-4.0687,-4.0733,-4.0732,-4.0697,-4.0715,-4.0736,-4.0731,-4.0667,-4.0654,-4.0687,-4.0687,-4.067,-4.063,-4.063,-4.0581,-4.0512,-4.0589,-4.0668,-4.0703,-4.069,-4.0733,-4.0797,-4.0797,-4.0797,-4.0805,-4.086,-4.0821,-4.0757,-4.0757,-4.0699,-4.063,-4.063,-4.0566,-4.0496,-4.0496,-4.0496,-4.0496,-4.0496,-4.0496,-4.0496,-4.0496,-4.0496,-4.0537,-4.0674,-4.0724,-4.0767,-4.0857,-4.0914,-4.0966,-4.1055,-4.0804,-4.0636,-4.0722,-4.0469,-4.0039,-3.9473,-3.9141,-3.873,-3.8164,-3.7559,-3.7207,-3.7207,-3.582,-3.5078,-3.5078,-3.4512,-3.3828,-3.2969,-3.2969,-3.3125,-3.3398,-3.2773,-3.2832,-3.0898,-3.0898,-3.0898,-3.0898,-3.0898,-3.0898,-3.0898,0.0,0.0,0.0,0.0,0.0,0.0,0.0,0.0,0.0,0.0,0.0,0.0,0.0,0.0,0.0,0.0,0.0,0.0,0.0,0.0,0.0,0.0,0.0,-3.4066,-3.4099,-3.4451,-3.5208,-3.5499,-3.6314,-3.7751,-3.8651,-3.95,-4.029,-4.0626,-4.0732,-4.0697,-4.071,-4.0736,-4.0736,-4.0781,-4.0803,-4.0797,-4.0797,-4.0775,-4.0736,-4.0736,-4.0676,-4.0617,-4.0699,-4.0762,-4.0805,-4.0805,-4.086,-4.0922,-4.0877,-4.0905,-4.0925,-4.0925,-4.0908,-4.0867,-4.0867,-4.0792,-4.0736,-4.0736,-4.0642,-4.0574,-4.0574,-4.0523,-4.0496,-4.0496,-4.0496,-4.0496,-4.0496,-4.0496,-4.0534,-4.0616,-4.0661,-4.071,-4.0781,-4.0797,-4.0864,-4.1031,-4.1025,-4.1052,-4.1191,-4.1191,-4.0976,-4.0391,-4.0332,-4.0098,-3.9512,-3.9199,-3.9043,-3.9043,-3.7637,-3.6875,-3.6875,-3.6016,-3.5293,-3.4707,-3.4121,-3.3984,-3.4258,-3.3672,-3.3555,0.0,0.0,0.0,-3.0898,0.0,0.0,-3.0898,0.0,0.0,0.0,0.0,0.0,0.0,0.0,0.0,0.0,0.0,0.0,0.0,0.0,0.0,0.0,0.0,0.0,0.0,0.0,0.0,0.0,0.0,-3.2497,-3.3228,-3.3282,-3.3667,-3.4439,-3.5256,-3.6044,-3.685,-3.7702,-3.8511,-3.9311,-4.0243,-4.0697,-4.0697,-4.0761,-4.0793,-4.0801,-4.0947,-4.092,-4.0805,-4.0805,-4.0805,-4.0801,-4.0801,-4.0797,-4.0797,-4.0801,-4.088,-4.0988,-4.086,-4.0988,-4.1171,-4.1052,-4.1083,-4.1191,-4.1191,-4.1105,-4.1017,-4.1017,-4.0911,-4.0801,-4.0801,-4.0752,-4.0703,-4.0703,-4.0603,-4.0512,-4.0512,-4.0512,-4.0504,-4.0496,-4.0496,-4.0496,-4.0496,-4.0603,-4.0724,-4.0773,-4.0789,-4.0896,-4.115,-4.1077,-4.1051,-4.1171,-4.1191,-4.1191,-4.1191,-4.1191,-4.1191,-4.1191,-4.041,-3.9941,-3.9941,-3.9101,-3.8633,-3.8633,-3.7773,-3.7324,-3.7305,-3.5586,-3.5176,-3.5957,-3.4258,-3.3926,-3.0898,0.0,0.0,0.0,0.0,0.0,0.0,0.0,0.0,0.0,0.0,0.0,0.0,0.0,0.0,0.0,0.0,0.0,0.0,0.0,0.0,0.0,0.0,0.0,0.0,0.0,0.0,0.0,-3.1269,-3.1621,-3.2458,-3.3006,-3.3393,-3.3611,-3.4405,-3.5215,-3.6017,-3.7506,-3.8627,-3.938,-4.032,-4.069,-4.0559,-4.0672,-4.0721,-4.0731,-4.0817,-4.088,-4.0933,-4.0933,-4.0933,-4.0947,-4.0847,-4.0797,-4.0809,-4.0911,-4.0962,-4.1019,-4.1077,-4.1149,-4.1191,-4.115,-4.1171,-4.1191,-4.1191,-4.1171,-4.1149,-4.1149,-4.1051,-4.092,-4.0836,-4.0796,-4.077,-4.077,-4.0747,-4.0723,-4.0723,-4.0676,-4.0616,-4.0519,-4.0496,-4.0496,-4.0496,-4.0523,-4.0554,-4.0584,-4.0578,-4.0635,-4.0809,-4.0851,-4.0911,-4.1049,-4.1149,-4.1191,-4.1191,-4.1191,-4.1191,-4.1191,-4.0976,-4.084,-4.084,-4.0,-3.9531,-3.9531,-3.8672,-3.793,-3.7305,-3.6172,-3.5762,-3.5996,-3.5508,-3.541,-3.0898,-3.0898,-3.0898,-3.0898,0.0,0.0,-3.0898,-3.0898,0.0,0.0,0.0,0.0,0.0,0.0,0.0,0.0,0.0,0.0,0.0,0.0,0.0,0.0,0.0,0.0,0.0,0.0,0.0,-3.0898,-3.0898,-3.1113,-3.1621,-3.2416,-3.2838,-3.2838,-3.3619,-3.443,-3.5238,-3.6935,-3.8178,-3.8952,-4.02,-4.0747,-4.0629,-4.0686,-4.0697,-4.0709,-4.077,-4.0831,-4.092,-4.0986,-4.1026,-4.1078,-4.0994,-4.0962,-4.0986,-4.1054,-4.1081,-4.1083,-4.1171,-4.1191,-4.1191,-4.1191,-4.1191,-4.1191,-4.1191,-4.1191,-4.1191,-4.1191,-4.1149,-4.1076,-4.099,-4.0922,-4.0877,-4.0877,-4.085,-4.0797,-4.0797,-4.0766,-4.071,-4.061,-4.053,-4.0496,-4.0496,-4.0496,-4.0527,-4.0581,-4.0549,-4.0554,-4.0726,-4.0752,-4.0828,-4.0988,-4.1077,-4.1149,-4.1191,-4.1191,-4.1191,-4.1191,-4.1191,-4.1191,-4.1191,-4.0703,-4.0449,-4.0449,-3.959,-3.8535,-3.7305,-3.6797,-3.6367,-3.5996,-3.5996,-3.5996,-3.0898,-3.0898,-3.0898,-3.0898,0.0,0.0,-3.0898,-3.0898,-3.0898,0.0,0.0,0.0,0.0,0.0,0.0,0.0,0.0,0.0,0.0,0.0,0.0,0.0,0.0,0.0,0.0,-3.0898,-3.0898,-3.0898,-3.0898,-3.0898,-3.0898,-3.1621,-3.2051,-3.2051,-3.2832,-3.361,-3.4326,-3.6081,-3.7379,-3.8185,-3.9878,-4.0711,-4.0797,-4.0742,-4.0707,-4.0713,-4.0788,-4.0816,-4.0824,-4.0962,-4.1082,-4.1191,-4.1172,-4.1191,-4.1191,-4.1191,-4.1191,-4.1191,-4.1191,-4.1191,-4.1191,-4.1191,-4.1191,-4.1191,-4.1191,-4.1191,-4.1191,-4.1191,-4.1191,-4.1191,-4.1191,-4.1105,-4.1023,-4.1023,-4.0925,-4.0831,-4.0831,-4.0824,-4.0809,-4.0736,-4.063,-4.0519,-4.0496,-4.0496,-4.0537,-4.0649,-4.0581,-4.0563,-4.0737,-4.0727,-4.0781,-4.0955,-4.0998,-4.1077,-4.1191,-4.1191,-4.1191,-4.1191,-4.1191,-4.1191,-4.1191,-4.1191,-4.1191,-4.1191,-4.0332,-3.9141,-3.7598,-3.7383,-3.6855,-3.5996,-3.5996,-3.5996,-3.0898,-3.0898,-3.0898,0.0,0.0,0.0,-3.0898,-3.0898,-3.0898,0.0,0.0,0.0,0.0,0.0,0.0,0.0,0.0,0.0,0.0,0.0,0.0,0.0,0.0,0.0,0.0,-3.0898,-3.0898,-3.0898,-3.0898,-3.0898,-3.0898,-3.1055,-3.1152,-3.1152,-3.1992,-3.2519,-3.2674,-3.5037,-3.6589,-3.7342,-3.9082,-4.0223,-4.0797,-4.0796,-4.0784,-4.0792,-4.0908,-4.0959,-4.0964,-4.1104,-4.1171,-4.1191,-4.108,-4.1104,-4.1191,-4.1191,-4.1191,-4.1191,-4.1191,-4.1191,-4.1191,-4.1191,-4.1191,-4.1191,-4.1191,-4.1191,-4.1191,-4.1191,-4.1191,-4.1191,-4.1191,-4.1171,-4.1151,-4.1151,-4.1149,-4.1126,-4.1126,-4.1048,-4.0955,-4.0942,-4.0795,-4.063,-4.0519,-4.0496,-4.0512,-4.0549,-4.0519,-4.0508,-4.0542,-4.069,-4.0805,-4.0824,-4.1026,-4.1171,-4.1191,-4.1191,-4.1191,-4.1191,-4.1191,-4.1191,-4.1191,-4.1191,-4.1191,-4.1191,-4.0332,-3.9726,-3.9394,-3.7988,-3.6855,-3.5996,-3.5996,-3.5996,0.0,0.0,0.0,-3.0898,0.0,0.0,0.0,-3.0898,-3.0898,0.0,0.0,0.0,0.0,0.0,0.0,0.0,0.0,0.0,0.0,0.0,0.0,0.0,0.0,0.0,0.0,-3.0898,-3.0898,-3.0898,-3.0898,-3.0898,-3.0898,-3.0898,-3.0898,-3.0898,-3.1328,-3.1758,-3.2207,-3.3867,-3.5331,-3.657,-3.8329,-3.9571,-4.037,-4.0727,-4.0908,-4.0908,-4.0964,-4.0996,-4.1019,-4.1149,-4.1191,-4.1191,-4.1127,-4.1149,-4.1191,-4.1191,-4.1191,-4.1191,-4.1191,-4.1191,-4.1191,-4.1191,-4.1191,-4.1191,-4.1191,-4.1191,-4.1191,-4.1191,-4.1191,-4.1191,-4.1191,-4.1191,-4.1191,-4.1191,-4.1191,-4.1191,-4.1191,-4.1149,-4.108,-4.1,-4.0922,-4.0805,-4.0623,-4.0537,-4.0496,-4.0496,-4.0496,-4.0496,-4.0496,-4.0584,-4.0682,-4.0789,-4.092,-4.1054,-4.1191,-4.1191,-4.1191,-4.1191,-4.1191,-4.1191,-4.1191,-4.1191,-4.1191,-4.1191,-4.0762,-4.0332,-3.9902,-3.9023,-3.8144,-3.7305,-3.7305,-3.7305,0.0,0.0,0.0,0.0,0.0,-3.0898,0.0,0.0,0.0,0.0,0.0,0.0,0.0,0.0,0.0,0.0,0.0,0.0,0.0,0.0,0.0,0.0,0.0,0.0,0.0,-3.0898,-3.0898,-3.0898,-3.0898,-3.0898,-3.0898,-3.0898,-3.0898,-3.0898,-3.0898,-3.123,-3.1934,-3.2754,-3.3945,-3.5527,-3.7266,-3.8633,-3.9687,-4.0436,-4.0872,-4.1049,-4.1049,-4.1049,-4.1051,-4.115,-4.1191,-4.1191,-4.1191,-4.1191,-4.1191,-4.1191,-4.1191,-4.1191,-4.1191,-4.1191,-4.1191,-4.1191,-4.1191,-4.1191,-4.1191,-4.1191,-4.1191,-4.1191,-4.1191,-4.1191,-4.1191,-4.1191,-4.1191,-4.1191,-4.1191,-4.1191,-4.1191,-4.1191,-4.1171,-4.1055,-4.1021,-4.0939,-4.0747,-4.0623,-4.0554,-4.0537,-4.053,-4.0534,-4.0504,-4.0527,-4.0597,-4.0777,-4.0816,-4.0947,-4.1171,-4.1191,-4.1191,-4.1191,-4.1191,-4.1191,-4.1191,-4.1191,-4.1191,-4.1191,-4.1191,-4.0859,-4.0156,-4.0156,-3.9629,-3.8594,-3.8594,-3.8594,0.0,0.0,0.0,0.0,-3.0898,0.0,0.0,0.0,-3.0898,-3.0898,0.0,0.0,0.0,0.0,0.0,0.0,0.0,0.0,0.0,0.0,0.0,0.0,0.0,0.0,0.0,0.0,-3.0898,-3.0898,-3.0898,-3.0898,-3.0898,-3.0898,-3.0898,-3.0898,-3.0898,-3.0957,-3.1055,-3.1894,-3.2793,-3.3711,-3.5469,-3.7168,-3.8789,-3.9629,-4.0449,-4.1171,-4.1171,-4.1171,-4.1171,-4.1191,-4.1191,-4.1191,-4.1191,-4.1191,-4.1191,-4.1191,-4.1191,-4.1191,-4.1191,-4.1191,-4.1191,-4.1191,-4.1191,-4.1191,-4.1191,-4.1191,-4.1191,-4.1191,-4.1191,-4.1191,-4.1191,-4.1191,-4.1191,-4.1191,-4.1191,-4.1191,-4.1191,-4.1191,-4.1191,-4.1171,-4.108,-4.0955,-4.0801,-4.0788,-4.0743,-4.0692,-4.0674,-4.0643,-4.0519,-4.0603,-4.0718,-4.0785,-4.0911,-4.1048,-4.1191,-4.1191,-4.1191,-4.1191,-4.1191,-4.1191,-4.1191,-4.1191,-4.1191,-4.1191,-4.1191,-4.1152,-4.1055,-4.1055,-4.0215,-3.8594,-3.8594,-3.8594,0.0,0.0,0.0,0.0,0.0,0.0,-3.0898,0.0,-3.0898,0.0,0.0,0.0,0.0,0.0,0.0,0.0,-3.0664,0.0,0.0,0.0,0.0,0.0,0.0,0.0,0.0,0.0,0.0,0.0,0.0,-3.0898,-3.0898,-3.0898,-3.0898,-3.0898,-3.0898,-3.0898,-3.0898,-3.1269,-3.1875,-3.2715,-3.4434,-3.6152,-3.7891,-3.9277,-4.0371,-4.1191,-4.1191,-4.1191,-4.1191,-4.1191,-4.1191,-4.1191,-4.1191,-4.1191,-4.1191,-4.1191,-4.1191,-4.1191,-4.1191,-4.1191,-4.1191,-4.1191,-4.1191,-4.1191,-4.1191,-4.1191,-4.1191,-4.1191,-4.1191,-4.1191,-4.1191,-4.1191,-4.1191,-4.1191,-4.1191,-4.1191,-4.1191,-4.1191,-4.1191,-4.1191,-4.115,-4.1103,-4.1049,-4.0908,-4.0781,-4.0752,-4.0762,-4.0747,-4.069,-4.0696,-4.0766,-4.0902,-4.0905,-4.0964,-4.1171,-4.1191,-4.1191,-4.1191,-4.1191,-4.1191,-4.1191,-4.1191,-4.1191,-4.1191,-4.1191,-4.1191,-4.1191,-4.1191,-4.082,-4.0117,-4.0117,-4.0117,-3.0705,0.0,0.0,0.0,0.0,0.0,0.0,0.0,0.0,0.0,0.0,0.0,0.0,0.0,0.0,-3.0586,0.0,-3.082,0.0,0.0,0.0,0.0,0.0,0.0,0.0,0.0,0.0,0.0,-3.0898,-3.0898,-3.0898,-3.0898,-3.0898,-3.0898,-3.0898,-3.0898,-3.0898,-3.0898,-3.1348,-3.2226,-3.3652,-3.5254,-3.6992,-3.875,-4.0019,-4.0859,-4.1094,-4.1191,-4.1191,-4.1191,-4.1191,-4.1191,-4.1191,-4.1191,-4.1191,-4.1191,-4.1191,-4.1191,-4.1191,-4.1191,-4.1191,-4.1191,-4.1191,-4.1191,-4.1191,-4.1191,-4.1191,-4.1191,-4.1191,-4.1191,-4.1191,-4.1191,-4.1191,-4.1191,-4.1191,-4.1191,-4.1191,-4.1191,-4.1191,-4.1191,-4.1191,-4.1191,-4.1191,-4.1049,-4.0905,-4.0864,-4.0857,-4.085,-4.0801,-4.0762,-4.0809,-4.0986,-4.0914,-4.0952,-4.1171,-4.1191,-4.1191,-4.1191,-4.1191,-4.1191,-4.1191,-4.1191,-4.1191,-4.1191,-4.1191,-4.1191,-4.1191,-4.1191,-4.1191,-4.1191,-4.1191,-4.1191,0.0,0.0,0.0,-3.0878,0.0,0.0,0.0,0.0,-3.0898,0.0,0.0,0.0,0.0,-3.0898,-3.0625,-2.9785,-3.0351,0.0,0.0,0.0,0.0,0.0,0.0,0.0,0.0,0.0,0.0,-3.0898,-3.0898,-3.0898,-3.0898,-3.0898,-3.0898,-3.0898,-3.0898,-3.0898,-3.0898,-3.0898,-3.1348,-3.2207,-3.3047,-3.4355,-3.6094,-3.7851,-3.9121,-3.998,-4.082,-4.1191,-4.1191,-4.1191,-4.1191,-4.1191,-4.1191,-4.1191,-4.1191,-4.1191,-4.1191,-4.1191,-4.1191,-4.1191,-4.1191,-4.1191,-4.1191,-4.1191,-4.1191,-4.1191,-4.1191,-4.1191,-4.1191,-4.1191,-4.1191,-4.1191,-4.1191,-4.1191,-4.1191,-4.1191,-4.1191,-4.1191,-4.1191,-4.1191,-4.1191,-4.1191,-4.1191,-4.1191,-4.1149,-4.1,-4.0992,-4.0952,-4.0813,-4.0797,-4.0854,-4.099,-4.0994,-4.1052,-4.1191,-4.1191,-4.1191,-4.1191,-4.1191,-4.1191,-4.1191,-4.1191,-4.1191,-4.1191,-4.1191,-4.1191,-4.1191,-4.1191,-4.1191,-4.1191,-4.1191,-4.1191,0.0,0.0,-3.0657,-3.0743,0.0,0.0,0.0,0.0,0.0,0.0,0.0,0.0,0.0,-3.0898,-3.0801,-3.0508,-3.0703,-3.0801,0.0,0.0,0.0,0.0,0.0,0.0,0.0,0.0,0.0,-3.0898,-3.0898,-3.0898,0.0,-3.0898,-3.0898,-3.0898,-3.0898,-3.0898,-3.0898,-3.0898,-3.1055,-3.1367,-3.2734,-3.4316,-3.6055,-3.7812,-3.9394,-4.0781,-4.1074,-4.1191,-4.1191,-4.1191,-4.1191,-4.1191,-4.1191,-4.1191,-4.1191,-4.1191,-4.1191,-4.1191,-4.1191,-4.1191,-4.1191,-4.1191,-4.1191,-4.1191,-4.1191,-4.1191,-4.1191,-4.1191,-4.1191,-4.1191,-4.1191,-4.1191,-4.1191,-4.1191,-4.1191,-4.1191,-4.1191,-4.1191,-4.1191,-4.1191,-4.1191,-4.1191,-4.1191,-4.1191,-4.1172,-4.1149,-4.1128,-4.1126,-4.1077,-4.099,-4.0988,-4.1126,-4.1052,-4.1054,-4.1191,-4.1191,-4.1191,-4.1191,-4.1191,-4.1191,-4.1191,-4.1191,-4.1191,-4.1191,-4.1191,-4.1191,-4.1191,-4.1191,-4.1191,-4.1191,-4.1191,-4.1191,-3.0507,-3.0533,0.0,-3.0655,-3.065,0.0,-3.0793,0.0,0.0,0.0,0.0,0.0,0.0,0.0,-3.0898,-3.0898,-3.0898,-3.0898,0.0,-3.0898,0.0,0.0,0.0,0.0,0.0,0.0,-3.0898,-3.0898,-3.0898,-3.0898,0.0,0.0,-3.0898,-3.0898,-3.0898,-3.0898,-3.0898,-3.0898,-3.1055,-3.1387,-3.2461,-3.4043,-3.6055,-3.748,-3.9082,-4.0742,-4.1074,-4.1191,-4.1191,-4.1191,-4.1191,-4.1191,-4.1191,-4.1191,-4.1191,-4.1191,-4.1191,-4.1191,-4.1191,-4.1191,-4.1191,-4.1191,-4.1191,-4.1191,-4.1191,-4.1191,-4.1191,-4.1191,-4.1191,-4.1191,-4.1191,-4.1191,-4.1191,-4.1191,-4.1191,-4.1191,-4.1191,-4.1191,-4.1191,-4.1191,-4.1191,-4.1191,-4.1191,-4.1191,-4.1191,-4.1191,-4.1191,-4.1191,-4.1191,-4.1127,-4.1104,-4.1191,-4.1126,-4.1104,-4.1191,-4.1191,-4.1191,-4.1191,-4.1191,-4.1191,-4.1191,-4.1191,-4.1055,-4.0742,-4.1035,-4.1055,-4.0742,-4.1055,-4.1191,-4.1191,-4.1191,-4.1191]},{"header":{"parameterUnit":"m.s-1","parameterCategory":1,"la1":30.6,"la2":29.2853,"lo1":-89.7004,"lo2":-87.6739,"dy":0.0162,"dx":0.0183,"nx":112,"ny":82,"refTime":"2023-03-24T12:00:00:Z","depth":0,"parameterNumber":3,"parameterNumberName":"V-component_of_WINDS"},"data":[0.0,0.0,0.0,0.0,0.0,0.0,0.0,0.0,0.0,0.0,0.0,0.0,0.0,0.0,0.0,0.0,0.0,0.0,0.0,0.0,0.0,0.0,0.0,0.0,0.0,0.0,0.0,0.0,0.0,0.0,0.0,0.0,0.0,0.0,0.0,0.0,0.0,0.0,0.0,0.0,0.0,0.0,0.0,0.0,0.0,0.0,0.0,0.0,0.0,0.0,0.0,0.0,0.0,0.0,0.0,0.0,0.0,0.0,0.0,0.0,0.0,0.0,0.0,0.0,0.0,0.0,0.0,0.0,0.0,0.0,0.0,0.0,0.0,0.0,0.0,0.0,0.0,0.0,0.0,0.0,0.0,0.0,0.0,0.0,0.0,0.0,0.0,0.0,0.0,0.0,0.0,0.0,0.0,0.0,0.0,0.0,0.0,0.0,0.0,0.0,0.0,0.0,0.0,0.0,0.0,0.0,0.0,0.0,0.0,0.0,0.0,0.0,0.0,0.0,0.0,0.0,0.0,0.0,0.0,0.0,0.0,0.0,0.0,0.0,0.0,0.0,0.0,0.0,0.0,0.0,0.0,0.0,0.0,0.0,0.0,0.0,0.0,0.0,0.0,0.0,0.0,0.0,0.0,0.0,0.0,0.0,0.0,0.0,0.0,0.0,0.0,0.0,0.0,0.0,0.0,0.0,0.0,0.0,0.0,0.0,0.0,0.0,0.0,0.0,0.0,0.0,0.0,0.0,0.0,0.0,0.0,0.0,0.0,0.0,0.0,0.0,0.0,0.0,0.0,0.0,0.0,0.0,0.0,0.0,0.0,0.0,0.0,0.0,0.0,0.0,0.0,0.0,0.0,0.0,0.0,0.0,0.0,0.0,0.0,0.0,0.0,0.0,0.0,0.0,0.0,0.0,0.0,0.0,0.0,0.0,0.0,0.0,0.0,0.0,0.0,0.0,0.0,0.0,0.0,0.0,0.0,0.0,0.0,0.0,0.0,0.0,0.0,0.0,0.0,0.0,0.0,0.0,0.0,0.0,0.0,0.0,0.0,0.0,0.0,0.0,0.0,0.0,0.0,0.0,0.0,0.0,0.0,0.0,0.0,0.0,0.0,0.0,0.0,0.0,0.0,0.0,0.0,0.0,0.0,0.0,0.0,0.0,0.0,0.0,0.0,0.0,0.0,0.0,0.0,0.0,0.0,0.0,0.0,0.0,0.0,0.0,0.0,0.0,0.0,0.0,0.0,0.0,0.0,0.0,0.0,0.0,0.0,0.0,0.0,0.0,0.0,0.0,0.0,0.0,0.0,0.0,0.0,0.0,0.0,0.0,0.0,0.0,0.0,0.0,0.0,0.0,0.0,0.0,0.0,0.0,0.0,0.0,0.0,0.0,0.0,0.0,0.0,0.0,0.0,0.0,0.0,0.0,0.0,0.0,0.0,0.0,0.0,0.0,0.0,0.0,0.0,0.0,0.0,0.0,0.0,0.0,0.0,0.0,0.0,0.0,0.0,0.0,0.0,0.0,0.0,0.0,0.0,0.0,0.0,0.0,0.0,0.0,0.0,0.0,0.0,0.0,0.0,0.0,0.0,0.0,0.0,0.0,0.0,0.0,0.0,0.0,0.0,0.0,0.0,0.0,0.0,0.0,0.0,0.0,0.0,0.0,0.0,0.0,0.0,0.0,0.0,0.0,0.0,0.0,0.0,0.0,0.0,0.0,0.0,0.0,0.0,0.0,0.0,0.0,0.0,0.0,0.0,0.0,0.0,0.0,0.0,0.0,0.0,0.0,0.0,0.0,0.0,0.0,0.0,0.0,0.0,0.0,0.0,0.0,0.0,0.0,0.0,0.0,0.0,0.0,0.0,0.0,0.0,0.0,0.0,0.0,0.0,0.0,0.0,0.0,0.0,0.0,0.0,0.0,0.0,0.0,0.0,0.0,0.0,0.0,0.0,0.0,0.0,0.0,0.0,0.0,0.0,0.0,0.0,0.0,0.0,0.0,0.0,0.0,0.0,0.0,0.0,0.0,0.0,0.0,0.0,0.0,0.0,0.0,0.0,0.0,0.0,0.0,0.0,0.0,0.0,0.0,0.0,0.0,0.0,0.0,0.0,0.0,0.0,0.0,0.0,0.0,0.0,0.0,0.0,0.0,0.0,0.0,0.0,0.0,0.0,0.0,0.0,0.0,0.0,0.0,0.0,0.0,0.0,0.0,0.0,0.0,0.0,0.0,0.0,0.0,0.0,0.0,0.0,0.0,0.0,0.0,0.0,0.0,0.0,0.0,0.0,0.0,0.0,0.0,0.0,0.0,0.0,0.0,0.0,0.0,0.0,0.0,0.0,0.0,0.0,0.0,0.0,0.0,0.0,0.0,0.0,0.0,0.0,0.0,0.0,0.0,0.0,0.0,0.0,0.0,0.0,0.0,0.0,0.0,0.0,0.0,0.0,0.0,0.0,0.0,0.0,0.0,0.0,0.0,0.0,0.0,0.0,0.0,0.0,0.0,0.0,0.0,0.0,0.0,0.0,0.0,0.0,0.0,0.0,0.0,0.0,0.0,0.0,0.0,0.0,0.0,0.0,0.0,0.0,0.0,0.0,0.0,0.0,0.0,0.0,0.0,0.0,0.0,0.0,0.0,0.0,0.0,0.0,0.0,0.0,0.0,0.0,0.0,0.0,0.0,0.0,0.0,0.0,0.0,0.0,0.0,0.0,0.0,0.0,0.0,0.0,0.0,0.0,0.0,0.0,0.0,0.0,0.0,0.0,0.0,0.0,0.0,0.0,0.0,0.0,0.0,0.0,0.0,0.0,0.0,0.0,0.0,0.0,0.0,0.0,0.0,0.0,0.0,0.0,0.0,0.0,0.0,0.0,0.0,0.0,0.0,0.0,0.0,0.0,0.0,0.0,0.0,0.0,0.0,0.0,0.0,0.0,0.0,0.0,0.0,0.0,0.0,0.0,0.0,0.0,0.0,0.0,0.0,0.0,0.0,0.0,0.0,0.0,0.0,0.0,0.0,0.0,0.0,0.0,0.0,0.0,0.0,0.0,0.0,0.0,0.0,0.0,0.0,0.0,0.0,0.0,0.0,0.0,0.0,0.0,0.0,0.0,0.0,0.0,0.0,0.0,0.0,0.0,0.0,0.0,0.0,0.0,0.0,0.0,0.0,0.0,0.0,0.0,0.0,0.0,0.0,0.0,0.0,0.0,0.0,0.0,0.0,0.0,0.0,0.0,0.0,0.0,0.0,0.0,0.0,0.0,0.0,0.0,0.0,0.0,0.0,0.0,0.0,0.0,0.0,0.0,0.0,0.0,0.0,0.0,0.0,0.0,0.0,0.0,0.0,0.0,0.0,0.0,0.0,0.0,0.0,0.0,0.0,0.0,0.0,0.0,0.0,0.0,0.0,0.0,0.0,0.0,0.0,0.0,0.0,0.0,0.0,0.0,0.0,0.0,0.0,0.0,0.0,0.0,0.0,0.0,0.0,0.0,0.0,0.0,0.0,0.0,0.0,0.0,0.0,0.0,0.0,0.0,0.0,0.0,0.0,0.0,0.0,0.0,0.0,0.0,0.0,0.0,0.0,0.0,0.0,0.0,0.0,0.0,0.0,0.0,0.0,0.0,0.0,0.0,0.0,0.0,0.0,0.0,0.0,0.0,0.0,0.0,0.0,0.0,0.0,0.0,0.0,0.0,0.0,0.0,0.0,0.0,0.0,0.0,0.0,0.0,0.0,0.0,0.0,0.0,0.0,0.0,0.0,0.0,0.0,0.0,0.0,0.0,0.0,0.0,0.0,0.0,0.0,0.0,0.0,0.0,0.0,0.0,0.0,0.0,0.0,0.0,0.0,0.0,0.0,0.0,0.0,0.0,0.0,0.0,0.0,0.0,0.0,0.0,0.0,0.0,0.0,0.0,0.0,0.0,0.0,0.0,0.0,0.0,0.0,0.0,0.0,0.0,0.0,0.0,0.0,0.0,0.0,0.0,0.0,0.0,0.0,0.0,0.0,0.0,0.0,0.0,0.0,0.0,0.0,0.0,0.0,0.0,0.0,0.0,0.0,0.0,0.0,0.0,0.0,0.0,0.0,0.0,0.0,0.0,0.0,0.0,0.0,0.0,0.0,0.0,0.0,0.0,0.0,0.0,0.0,0.0,0.0,0.0,0.0,0.0,0.0,0.0,0.0,0.0,0.0,0.0,0.0,0.0,0.0,0.0,0.0,0.0,0.0,0.0,0.0,0.0,0.0,0.0,0.0,0.0,0.0,0.0,0.0,0.0,0.0,0.0,0.0,0.0,0.0,0.0,0.0,0.0,0.0,0.0,0.0,0.0,0.0,0.0,0.0,0.0,0.0,0.0,0.0,0.0,0.0,0.0,0.0,0.0,0.0,0.0,0.0,0.0,0.0,0.0,0.0,0.0,0.0,0.0,0.0,0.0,0.0,0.0,0.0,0.0,0.0,0.0,0.0,0.0,0.0,0.0,0.0,0.0,0.0,0.0,0.0,0.0,0.0,0.0,0.0,0.0,0.0,0.0,0.0,0.0,0.0,0.0,0.0,0.0,0.0,0.0,0.0,0.0,0.0,0.0,0.0,0.0,0.0,0.0,0.0,0.0,0.0,0.0,0.0,0.0,0.0,0.0,0.0,0.0,0.0,0.0,0.0,0.0,0.0,0.0,0.0,0.0,0.0,0.0,0.0,0.0,0.0,0.0,0.0,0.0,0.0,0.0,0.0,0.0,0.0,0.0,0.0,0.0,0.0,0.0,0.0,0.0,0.0,0.0,0.0,0.0,0.0,0.0,0.0,0.0,0.0,0.0,0.0,0.0,0.0,0.0,0.0,0.0,0.0,0.099,0.0684,0.0455,0.043,0.0167,0.0,0.0,0.0,0.0,0.0,0.0,0.0,0.0,0.0,0.0,0.0,0.0,0.0,0.0,0.0,0.0,0.0,0.0,0.0,0.0,0.0,0.0,0.0,0.0,0.0,0.0,0.0,0.0,0.0,0.0,0.0,0.0,0.0,0.0,0.0,0.0,0.0,0.0,0.0,0.0,0.0,0.0,0.0,0.0,0.0,0.0,0.0,0.0,0.0,0.0,0.0,0.0,0.0,0.0,0.0,0.0,0.0,0.0,0.0,0.0,0.0,0.0,0.0,0.0,0.0,0.0,0.0,0.0,0.0,0.0,0.0,0.0,0.0,0.0,0.0,0.0,0.0,0.0,0.0,0.0,0.0,0.0,0.0,0.0,0.0,0.0,0.0,0.0,0.0,0.0,0.0,0.0,0.0,0.0,0.0,0.0,0.0,0.0,0.0,0.0,0.0,0.0,0.0,0.0,0.0,0.0,0.0,0.2506,0.1765,0.122,0.1223,0.0562,0.0133,0.013,0.0032,0.0,0.0,0.0,0.0,0.0,0.0,0.0,0.0,0.0,0.0,0.0,0.0,0.0,0.0,0.0,0.0,0.0,0.0,0.0,0.0,0.0,0.0,0.0,0.0,0.0,0.0,0.0,0.0,0.0,0.0,0.0,0.0,0.0,0.0,0.0,0.0,0.0,0.0,0.0,0.0,0.0,0.0,0.0,0.0,0.0,0.0,0.0,0.0,0.0,0.0,0.0,0.0,0.0,0.0,0.0,0.0,0.0,0.0,0.0,0.0,0.0,0.0,0.5094,0.0,0.0,0.0,0.0,0.0,0.0,0.0,0.0,0.0,0.0,0.0,0.0,0.0,0.0,0.0,0.0,0.0,0.0,0.0,0.0,0.0,0.0,0.0,0.0,0.0,0.0,0.0,0.0,0.0,0.0,0.0,0.0,0.0,0.0,0.0,0.0,0.0,0.0,0.0,0.0,0.0,0.25,0.2331,0.2193,0.2213,0.1484,0.1037,0.1031,0.0392,0.0,0.0,0.0,0.0,0.0,0.0,0.0,0.0,0.0,0.0,0.0,0.0,0.0,0.0,0.0,0.0,0.0,0.0,0.0,0.0,0.0,0.0,0.0,0.0,0.0,0.0,0.0,0.0,0.0,0.0,0.0,0.0,0.0,0.0,0.0,0.0,0.0,0.0,0.0,0.0,0.0,0.0,0.0,0.0,0.0,0.0,0.0,0.0,0.0,0.0,0.0,0.0,0.0,0.0,0.0,0.0,0.0,0.0,0.0,0.0,0.0,0.0,0.0,0.4958,0.0,0.0,0.0,0.0,0.0,0.0,0.0,0.0,0.0,0.0,0.0,0.0,0.0,0.0,0.0,0.0,0.0,0.0,0.0,0.0,0.0,0.0,0.0,0.0,0.0,0.0,0.0,0.0,0.0,0.0,0.0,0.0,0.0,0.0,0.0,0.0,0.0,0.0,0.0,0.0,0.3641,0.3214,0.2917,0.3009,0.2325,0.1904,0.1968,0.1153,0.0627,0.0618,0.0247,0.0,0.0,0.0,0.0,0.0,0.0,0.0,0.0,0.0,0.0,0.0,0.0,0.0,0.0,0.0,0.0,0.0,0.0,0.0,0.0,0.0,0.0,0.0,0.0,0.0,0.0,0.0,0.0,0.0,0.0,0.0,0.0,0.0,0.0,0.0,0.0,0.0,0.0,0.0,0.0,0.0,0.0,0.0,0.0,0.0,0.0,0.0,0.0,0.0,0.0,0.0,0.0,0.0,0.3668,0.4051,0.4627,0.4777,0.4769,0.4657,0.4782,0.4782,0.4711,0.0,0.0,0.0,0.0,0.0,0.0,0.0,0.0,0.0,0.0,0.0,0.0,0.0,0.0,0.0,0.0,0.0,0.0,0.0,0.0,0.0,0.0,0.0,0.0,0.0,0.4823,0.4765,0.0,0.0,0.0,0.0,0.0,0.0,0.0,0.0,0.0,0.0,0.0,0.0,0.488,0.408,0.361,0.3766,0.3132,0.2746,0.2883,0.2042,0.1534,0.1554,0.0705,0.0218,0.0,0.0,0.0,0.0,0.0,0.0,0.0,0.0,0.0,0.0,0.0,0.0,0.0,0.0,0.0,0.0,0.0,0.0,0.0,0.0,0.0,0.0,0.0,0.0,0.0,0.0,0.0,0.0,0.0,0.0,0.0,0.0,0.8594,0.8278,0.0,0.0,0.0,0.0,0.0,0.0,0.0,0.0,0.0,0.0,0.0,0.0,0.0,0.2938,0.2722,0.2697,0.2685,0.2685,0.3209,0.3475,0.3531,0.4238,0.4539,0.4522,0.4542,0.0,0.4694,0.4731,0.0,0.0,0.0,0.0,0.0,0.0,0.0,0.0,0.0,0.0,0.0,0.0,0.0,0.0,0.0,0.0,0.0,0.0,0.0,0.0,0.0,0.0,0.4911,0.4894,0.4874,0.4864,0.0,0.4887,0.4894,0.4914,0.4918,0.0,0.0,0.0,0.0,0.0,0.0,0.0,0.4738,0.4613,0.4523,0.4539,0.3882,0.3494,0.3644,0.2847,0.2393,0.2505,0.1659,0.112,0.112,0.0399,0.0,0.0,0.0,0.0,0.0,0.0,0.0,0.0,0.0,0.0,0.0,0.0,0.0,0.0,0.0,0.0,0.0,0.0,0.0,0.0,0.0,0.0,0.0,0.0,0.0,0.0,0.0,0.0,0.0,0.7512,0.6717,0.6486,0.7127,0.7436,0.0,0.0,0.0,0.0,0.0,0.0,0.0,0.0,0.0,0.195,0.2367,0.2138,0.1197,0.1525,0.1713,0.1712,0.1967,0.2591,0.347,0.3843,0.426,0.4718,0.4718,0.4758,0.4813,0.4724,0.4765,0.4901,0.0,0.0,0.0,0.0,0.526,0.524,0.5059,0.5005,0.0,0.0,0.0,0.0,0.0,0.0,0.0,0.0,0.0,0.0,0.0,0.0,0.0,0.4958,0.4887,0.4887,0.4887,0.4887,0.4911,0.0,0.5108,0.5189,0.525,0.0,0.0,0.0,0.0,0.4982,0.4945,0.4938,0.4972,0.5088,0.4877,0.4752,0.4809,0.3982,0.3461,0.3432,0.2599,0.1863,0.132,0.0921,0.0498,0.0,0.0,0.0,0.0,0.0,0.0,0.0,0.0,0.0,0.0,0.0,0.0,0.0,0.0,0.0,0.0,0.0,0.0,0.0,0.0,0.0,0.0,0.0,0.0,0.0,0.0,0.0,0.0,0.6185,0.526,0.5113,0.5635,0.5737,0.0,0.0,0.0,0.0,0.0,0.0,0.2342,0.234,0.1917,0.0988,0.1536,0.1261,0.0,0.0532,0.0815,0.0822,0.1019,0.1871,0.3323,0.35,0.4088,0.4887,0.4887,0.4887,0.4881,0.4796,0.4769,0.4823,0.5012,0.5123,0.5199,0.5274,0.5337,0.5281,0.5128,0.5046,0.5052,0.5086,0.0,0.5258,0.5521,0.0,0.0,0.0,0.0,0.5688,0.5463,0.5395,0.5341,0.5084,0.5033,0.5033,0.5033,0.5064,0.5087,0.0,0.5169,0.5293,0.5327,0.0,0.0,0.0,0.0,0.5086,0.5049,0.5076,0.513,0.5272,0.545,0.5532,0.5532,0.4947,0.4528,0.4431,0.3629,0.2799,0.2017,0.1609,0.1054,0.0364,0.0,0.0,0.0,0.0,0.0,0.0,0.0,0.0,0.0,0.0,0.0,0.0,0.0,0.0,0.0,0.0,0.0,0.0,0.0,0.0,0.0,0.0,0.0,0.0,0.0,0.0,0.0,0.0,0.0,0.51,0.4524,0.0,0.0,0.0,0.0,0.2778,0.2713,0.2312,0.1417,0.1383,0.0957,0.0084,0.0112,0.0084,0.0,0.0028,0.0057,0.0059,0.0762,0.1607,0.2575,0.3278,0.408,0.4887,0.4887,0.4887,0.4887,0.4881,0.4955,0.5076,0.5093,0.522,0.5365,0.5192,0.511,0.509,0.4948,0.4897,0.4921,0.5056,0.5328,0.5569,0.5586,0.5688,0.0,0.0,0.5599,0.5562,0.5436,0.5395,0.5392,0.5375,0.5371,0.5371,0.5371,0.5487,0.5433,0.0,0.4908,0.4955,0.5086,0.0,0.511,0.511,0.5103,0.5049,0.4918,0.5015,0.5049,0.4924,0.5199,0.5405,0.5405,0.5498,0.5538,0.5531,0.4836,0.4262,0.3882,0.2398,0.1491,0.1236,0.0411,0.0,0.0,0.0,0.0,0.0,0.0,0.0,0.0,0.0,0.0,0.0,0.0,0.0,0.0,0.0,0.0,0.0,0.0,0.0,0.0,0.0,0.0,0.0,0.0,0.0,0.0,0.0,0.0,0.3551,0.3329,0.0,0.3164,0.2337,0.1811,0.1788,0.1282,0.0805,0.0486,0.0456,0.0312,0.0,0.0,0.0,0.0,0.0,0.0,0.0,0.0848,0.1721,0.2652,0.3472,0.4371,0.5235,0.5235,0.5235,0.5235,0.5235,0.5121,0.4972,0.5063,0.5133,0.5216,0.526,0.5281,0.5274,0.5255,0.5235,0.5245,0.5264,0.5388,0.5477,0.5477,0.5511,0.5542,0.5491,0.5477,0.5463,0.5409,0.5395,0.5395,0.5395,0.5395,0.5395,0.5395,0.5436,0.5429,0.5269,0.5284,0.5335,0.5287,0.5281,0.5281,0.5281,0.5362,0.541,0.5355,0.5528,0.5652,0.5602,0.5817,0.5934,0.58,0.5752,0.5435,0.4752,0.4364,0.3927,0.3303,0.2064,0.1416,0.1491,0.0527,0.0,0.0,0.0,0.0,0.0,0.0,0.0,0.0,0.0,0.0,0.0,0.0,0.0,0.0,0.0,0.0,0.0,0.0,0.0,0.0,0.0,0.0,0.0,0.0,0.0,0.0,0.0,0.2687,0.2704,0.2424,0.2213,0.2213,0.1399,0.0856,0.0852,0.0331,0.0,0.0,0.0,0.0,0.0,0.0,0.0,0.0,0.0,0.0,0.0,0.0595,0.1522,0.27,0.296,0.3944,0.5395,0.5057,0.509,0.5395,0.5395,0.5279,0.5077,0.5172,0.5209,0.522,0.5358,0.5395,0.5395,0.5395,0.5395,0.5395,0.5395,0.5395,0.5395,0.5395,0.5395,0.5395,0.5395,0.5395,0.5395,0.5395,0.5395,0.5395,0.5395,0.5395,0.5395,0.5395,0.5395,0.5395,0.5395,0.5477,0.5532,0.5481,0.5429,0.5429,0.5528,0.5545,0.5532,0.5583,0.5803,0.5915,0.5817,0.6115,0.6197,0.5905,0.5928,0.5594,0.4726,0.4398,0.3963,0.3307,0.2084,0.1429,0.1492,0.0494,0.0,0.0,0.0,0.0,0.0,0.0,0.0,0.0,0.0,0.0,0.0,0.0,0.0,0.0,0.0,0.0,0.0,0.0,0.0,0.0,0.0,0.0,0.0,0.0,0.0,0.2534,0.2641,0.2608,0.2611,0.1801,0.1257,0.1256,0.0484,0.0,0.0,0.0,0.0,0.0,0.0,0.0,0.0,0.0,0.0,0.0,0.0,0.0,0.0,0.0032,0.0948,0.2611,0.1742,0.2811,0.5259,0.435,0.4486,0.5359,0.5359,0.5362,0.5395,0.5395,0.5395,0.5395,0.5395,0.5395,0.5395,0.5395,0.5395,0.5395,0.5395,0.5395,0.5395,0.5395,0.5395,0.5395,0.5395,0.5395,0.5395,0.5395,0.5395,0.5395,0.5395,0.5395,0.5395,0.5395,0.5395,0.5395,0.5395,0.5399,0.545,0.5562,0.5501,0.5501,0.5755,0.5593,0.0,0.5579,0.5718,0.5694,0.5446,0.5941,0.6115,0.564,0.6037,0.6061,0.5582,0.4974,0.4434,0.3966,0.2427,0.1456,0.1274,0.0421,0.0,0.0,0.0,0.0,0.0,0.0,0.0,0.0,0.0,0.0,0.0,0.0,0.0,0.0,0.0,0.0,0.0,0.0,0.0,0.0,0.0,0.0,0.0,0.0,0.1395,0.1639,0.1154,0.0756,0.0738,0.0501,0.0363,0.0356,0.0129,0.0,0.0,0.0,0.0,0.0,0.0,0.0,0.0,0.0,0.0,0.0,0.0,0.0,0.0,0.0631,0.1198,0.1708,0.211,0.2711,0.3413,0.3178,0.3547,0.4384,0.4384,0.4788,0.5395,0.5395,0.5395,0.5395,0.5395,0.5395,0.5395,0.5395,0.5395,0.5395,0.5395,0.5395,0.5395,0.5395,0.5395,0.5395,0.5395,0.5395,0.5395,0.5395,0.5395,0.5395,0.5395,0.5395,0.5395,0.5395,0.5395,0.5395,0.5395,0.5484,0.5542,0.5583,0.5555,0.5589,0.5772,0.5732,0.0,0.5739,0.5776,0.5813,0.5844,0.5996,0.6044,0.5918,0.5922,0.5538,0.4653,0.3747,0.3246,0.321,0.1428,0.0415,0.0374,0.0114,0.0,0.0,0.0,0.0,0.0,0.0,0.0,0.0,0.0,0.0,0.0,0.0,0.0,0.0,0.0,0.0,0.0,0.0,0.0,0.0,0.0,0.0,0.0,0.1006,0.0739,0.0739,0.0332,0.0,0.0,0.0,0.0,0.0,0.0,0.0,0.0,0.0,0.0,0.0,0.0,0.0,0.0,0.0,0.0,0.0,0.0,0.0,0.0,0.0504,0.0939,0.1307,0.1476,0.1977,0.0,0.2277,0.2845,0.4015,0.4015,0.4553,0.0,0.0,0.0,0.0,0.0,0.5395,0.5395,0.5395,0.5395,0.5395,0.5395,0.5395,0.5395,0.5395,0.5395,0.5395,0.5395,0.5395,0.5395,0.5395,0.5395,0.5395,0.5395,0.5395,0.5395,0.5395,0.5395,0.5395,0.5395,0.0,0.0,0.5667,0.5677,0.5749,0.5962,0.5833,0.5735,0.5793,0.5749,0.5722,0.5745,0.5918,0.5942,0.5854,0.5878,0.0,0.0,0.0,0.2443,0.1713,0.0613,0.0,0.0,0.0,0.0,0.0,0.0,0.0,0.0,-0.1627,-0.2341,0.0,0.0,0.0,0.0,0.0,0.0,0.0,0.0,0.0,0.0,0.0,0.0,0.0,0.0,0.0,0.0,0.0504,0.0,0.0,0.0,0.0,0.0,0.0,0.0,0.0,0.0,0.0,0.0,0.0,0.0,0.0,0.0,0.0,0.0,0.0,0.0,0.0,0.0,0.0,0.0,0.0,0.0404,0.114,0.0337,0.0874,0.2344,0.1508,0.211,0.368,0.368,0.4317,0.5259,0.5359,0.5395,0.5395,0.5395,0.5395,0.0,0.0,0.0,0.0,0.5395,0.5395,0.5395,0.5395,0.5395,0.5395,0.5395,0.5395,0.5395,0.5395,0.5395,0.5395,0.5395,0.5395,0.5395,0.5395,0.5395,0.5395,0.5395,0.5532,0.5654,0.5779,0.5817,0.5925,0.6255,0.5941,0.5677,0.5786,0.5677,0.5538,0.5436,0.0,0.0,0.5613,0.583,0.5861,0.5583,0.3889,0.202,0.007,0.0,0.0,0.0,0.0,0.0,0.0,0.0,0.0,-0.0035,-0.1071,-0.155,0.0,0.0,0.0,0.0,0.0,0.0,0.0,0.0,0.0,0.0,0.0,0.0,0.0,0.0,0.0,0.037,0.0101,0.0,0.0,0.0,0.0,0.0,0.0,0.0,0.0,0.0,0.0,0.0,0.0,0.0,0.0,0.0,0.0,0.0,0.0,0.0,0.0,0.0,0.0,0.0,0.0,0.0,0.0236,0.0067,0.0202,0.0505,0.0337,0.084,0.1809,0.1809,0.2778,0.435,0.509,0.5395,0.5395,0.5395,0.5395,0.5395,0.5395,0.5395,0.5395,0.5395,0.5395,0.5395,0.5395,0.5395,0.0,0.5395,0.5395,0.5395,0.5395,0.5395,0.5395,0.5395,0.5395,0.5395,0.5395,0.5395,0.5395,0.5395,0.5614,0.5769,0.5796,0.5905,0.6047,0.6272,0.6081,0.5911,0.5813,0.5677,0.5579,0.5549,0.5623,0.565,0.5596,0.5644,0.5599,0.545,0.3746,0.1913,0.007,0.0,0.0,0.0,0.0,0.0,0.0,0.0,0.0,-0.0034,-0.0919,-0.1362,0.0,0.0,0.0,0.0,0.0,0.0,0.0,0.0,0.0,0.0,0.0,0.1842,0.1374,0.0,0.0504,0.0067,0.0,0.0,0.0,0.0,0.0,0.0,0.0,0.0,0.0,0.0,0.0,0.0,0.0,0.0,0.0,0.0,0.0,0.0,0.0,0.0,0.0,0.0,0.0,0.0,0.0,0.0,0.0,0.0,0.0,0.0,0.0,0.0504,0.134,0.1809,0.2544,0.3447,0.435,0.499,0.5395,0.5395,0.5395,0.5395,0.5395,0.5395,0.5395,0.5395,0.5395,0.5395,0.5395,0.5395,0.5395,0.5395,0.5395,0.5395,0.5395,0.5395,0.5395,0.5395,0.5395,0.5395,0.5395,0.5453,0.5511,0.5511,0.5715,0.5915,0.5915,0.6044,0.6173,0.6286,0.6129,0.5966,0.5925,0.5786,0.5671,0.5596,0.5654,0.5667,0.5596,0.5589,0.5142,0.4123,0.3211,0.189,0.0069,0.0,0.0,0.0,0.0,0.0,0.0,0.0,0.0,0.0,-0.0437,-0.0638,0.0,0.0,0.0,0.0,0.0,0.0,0.0,0.3613,0.3278,0.2577,0.1708,0.1041,0.1047,0.0475,0.0,0.0,0.0,0.0,0.0,0.0,0.0,0.0,0.0,0.0,0.0,0.0,0.0,0.0,0.0,0.0,0.0,0.0,0.0,0.0,0.0,0.0,0.0,0.0,0.0,0.0,0.0,0.0,0.0,0.0,0.0,0.0,0.0,0.0404,0.1106,0.2043,0.2444,0.2511,0.3413,0.4217,0.4924,0.5259,0.5395,0.5395,0.5395,0.5395,0.5395,0.5395,0.5395,0.5395,0.5395,0.5395,0.5395,0.5395,0.5416,0.5433,0.5402,0.5419,0.5433,0.5402,0.5419,0.544,0.544,0.5559,0.563,0.563,0.5847,0.5993,0.5993,0.6159,0.6289,0.6259,0.6108,0.5983,0.5952,0.5854,0.5718,0.5603,0.5667,0.5671,0.5555,0.5545,0.4733,0.2815,0.2711,0.1877,0.0067,0.0,0.0,0.0,0.0,0.0,0.0,0.0,0.0,0.0,0.0,-0.0101,0.7994,0.6739,0.5262,0.4381,0.3644,0.3109,0.0,0.2209,0.1574,0.1474,0.0773,0.0136,0.0139,0.007,0.0,0.0,0.0,0.0,0.0,0.0,0.0,0.0,0.0,0.0,0.0,0.0,0.0,0.0,0.0,0.0,0.0,0.0,0.0,0.0,0.0,0.0,0.0,0.0,0.0,0.0,0.0,0.0,0.0,0.0,0.0,0.0,0.0,0.0067,0.0202,0.1107,0.1441,0.1541,0.2476,0.2911,0.3211,0.4821,0.5395,0.5395,0.5395,0.5395,0.5395,0.5395,0.5395,0.5395,0.5395,0.5395,0.5395,0.5395,0.5494,0.5535,0.5429,0.5494,0.5566,0.5426,0.5498,0.5562,0.5562,0.5677,0.5779,0.5779,0.5915,0.5993,0.5993,0.6159,0.6252,0.6074,0.6003,0.5942,0.5844,0.5701,0.5606,0.5593,0.5518,0.5436,0.5423,0.5423,0.4637,0.2811,0.2711,0.1877,0.0067,0.0,0.0,0.0,0.0,0.0,0.0,0.0,0.0,0.0,0.0,-0.0404,0.5806,0.5122,0.4327,0.3459,0.2984,0.2564,0.2002,0.1581,0.1161,0.0633,0.0247,0.0,0.0,0.0,0.0,0.0,0.0,0.0,0.0,0.0,0.0,0.0,0.0,0.0,0.0,0.0,0.0,0.0,0.0,0.0,0.0,0.0,0.0,0.0,0.0,0.0,0.0,0.0,0.0,0.0,0.0,0.0,0.0,0.0,0.0,0.0,0.0,0.0,0.0034,0.0404,0.0538,0.0639,0.1542,0.1876,0.2043,0.3347,0.3816,0.3915,0.4417,0.4586,0.4686,0.5226,0.5395,0.5395,0.5395,0.5395,0.5395,0.5395,0.544,0.5477,0.5412,0.5443,0.5498,0.5521,0.5542,0.5613,0.5694,0.583,0.5899,0.5899,0.6057,0.6166,0.6166,0.6255,0.6245,0.6016,0.6105,0.6108,0.5956,0.5962,0.5948,0.5732,0.5535,0.5395,0.5395,0.5395,0.4619,0.2811,0.2711,0.1877,0.0067,0.0,0.0,0.0,0.0,0.0,0.0,0.0,0.0,0.0,0.0,-0.0471,0.4314,0.3879,0.3472,0.2528,0.2142,0.178,0.1091,0.0945,0.0764,0.0146,0.0,0.0,0.0,0.0,0.0,0.0,0.0,0.0,0.0,0.0,0.0,0.0,0.0,0.0,0.0,0.0,0.0,0.0,0.0,0.0,0.0,0.0,0.0,0.0,0.0,0.0,0.0,0.0,0.0,0.0,0.0,0.0,0.0,0.0,0.0,0.0,0.0,0.0,0.0,0.0,0.0,0.0067,0.0706,0.094,0.104,0.1709,0.2278,0.2778,0.3411,0.3647,0.3747,0.4417,0.4655,0.4688,0.4954,0.5024,0.5057,0.5329,0.5426,0.5457,0.5457,0.5487,0.5545,0.5623,0.5681,0.5728,0.5789,0.5922,0.5979,0.5939,0.6091,0.6235,0.6235,0.6235,0.6173,0.6105,0.6118,0.6108,0.6,0.6091,0.6071,0.5772,0.5549,0.5395,0.5395,0.516,0.435,0.2811,0.2444,0.161,0.0067,0.0,0.0,0.0,0.0,0.0,0.0,0.0,0.0,0.0,0.0,-0.0337,0.4493,0.3589,0.2684,0.1598,0.0691,0.0073,0.0036,0.0036,0.0036,0.0,0.0,0.0,0.0,0.0,0.0,0.0,0.0,0.0,0.0,0.0,0.0,0.0,0.0,0.0,0.0,0.0,0.0,0.0,0.0,0.0,0.0,0.0,0.0,0.0,0.0,0.0,0.0,0.0,0.0,0.0,0.0,0.0,0.0,0.0,0.0,0.0,0.0,0.0,0.0,0.0,0.0,0.0,0.0034,0.0034,0.0034,0.0067,0.1209,0.2711,0.2744,0.2744,0.2744,0.2778,0.2778,0.2945,0.3782,0.4048,0.4217,0.516,0.5501,0.5583,0.5583,0.5684,0.5789,0.5793,0.5908,0.5939,0.5833,0.5922,0.5949,0.5837,0.5932,0.6,0.6,0.6,0.6088,0.6272,0.6003,0.5867,0.5973,0.5905,0.5759,0.5613,0.5487,0.5395,0.5395,0.4553,0.3647,0.2744,0.1842,0.094,0.0034,0.0,0.0,0.0,0.0,0.0,0.0,0.0,0.0,0.0,0.0,0.0,0.3595,0.2607,0.1609,0.0686,0.023,0.0,0.0,0.0,0.0,0.0,0.0,0.0,0.0,0.0,0.0,0.0,0.0,0.0,0.0,0.0,0.0,0.0,0.0,0.0,0.0,0.0,0.0,0.0,0.0,0.0,0.0,0.0,0.0,0.0,0.0,0.0,0.0,0.0,0.0,0.0,0.0,0.0,0.0,0.0,0.0,0.0,0.0,0.0,0.0,0.0,0.0,0.0,0.0,0.0,0.0,0.0,0.037,0.1008,0.1575,0.1775,0.1876,0.2509,0.2712,0.2742,0.3062,0.3124,0.3344,0.4322,0.4633,0.4838,0.5551,0.5766,0.5827,0.5928,0.5956,0.6006,0.6095,0.6187,0.6169,0.6153,0.6187,0.6183,0.6183,0.6183,0.6238,0.6293,0.6084,0.5935,0.5884,0.5833,0.5783,0.5735,0.5599,0.5545,0.5545,0.4602,0.3613,0.2744,0.1809,0.0906,0.0034,0.0,0.0,0.0,0.0,0.0,0.0,0.0,0.0,0.0,0.0,0.0,0.2778,0.195,0.1191,0.0235,0.0,0.0,0.0,0.0,0.0,0.0,0.0,0.0,0.0,0.0,0.0,0.0,0.0,0.0,0.0,0.0,0.0,0.0,0.0,0.0,0.0,0.0,0.0,0.0,0.0,0.0,0.0,0.0,0.0,0.0,0.0,0.0,0.0,0.0,0.0,0.0,0.0,0.0,0.0,0.0,0.0,0.0,0.0,0.0,0.0,0.0,0.0,0.0,0.0,0.0,0.0,0.0,0.0,0.0067,0.0638,0.0839,0.0942,0.1527,0.1745,0.1792,0.2103,0.2212,0.2395,0.3403,0.3654,0.3928,0.5058,0.5328,0.5472,0.5999,0.6112,0.6125,0.6169,0.6179,0.6149,0.6078,0.6146,0.6162,0.6143,0.6228,0.6262,0.6149,0.6105,0.6078,0.5979,0.5823,0.5745,0.5796,0.5627,0.5406,0.5058,0.4126,0.3145,0.2243,0.1341,0.0572,0.0034,0.0,0.0,0.0,0.0,0.0,0.0,0.0,0.0,0.0,0.0,0.0,0.2154,0.1568,0.1293,0.0235,0.0,0.0,0.0,0.0,0.0,0.0,0.0,0.0,0.0,0.0,0.0,0.0,0.0,0.0,0.0,0.0,0.0,0.0,0.0,0.0,0.0,0.0,0.0,0.0,0.0,0.0,0.0,0.0,0.0,0.0,0.0,0.0,0.0,0.0,0.0,0.0,0.0,0.0,0.0,0.0,0.0,0.0,0.0,0.0,0.0,0.0,0.0,0.0,0.0,0.0,0.0,0.0,0.0,0.0,0.0,0.0,0.0,0.0,0.0,0.017,0.0966,0.125,0.1445,0.2384,0.2657,0.2931,0.4122,0.441,0.4742,0.5951,0.6222,0.6182,0.6037,0.6003,0.5922,0.5677,0.585,0.5956,0.585,0.6098,0.619,0.5867,0.6098,0.6276,0.6276,0.5907,0.5661,0.5786,0.5586,0.5043,0.4092,0.322,0.2313,0.1374,0.0471,0.0,0.0,0.0,0.0,0.0,0.0,0.0,0.0,0.0,0.0,0.0,0.0,0.0,0.1763,0.102,0.0353,0.0079,0.0,0.0,0.0,0.0,0.0,0.0,0.0,0.0,0.0,0.0,0.0,0.0,0.0,0.0,0.0,0.0,0.0,0.0,0.0,0.0,0.0,0.0,0.0,0.0,0.0,0.0,0.0,0.0,0.0,0.0,0.0,0.0,0.0,0.0,0.0,0.0,0.0,0.0,0.0,0.0,0.0,0.0,0.0,0.0,0.0,0.0,0.0,0.0,0.0,0.0,0.0,0.0,0.0,0.0,0.0,0.0,0.0,0.0,0.0,0.0035,0.0247,0.0326,0.0557,0.1605,0.1895,0.2116,0.3168,0.3442,0.372,0.4836,0.5118,0.5306,0.6053,0.6242,0.6218,0.6143,0.619,0.6228,0.619,0.6115,0.6101,0.6177,0.6017,0.5918,0.5918,0.5918,0.5888,0.581,0.5735,0.5291,0.4253,0.3348,0.2396,0.1375,0.0471,0.0,0.0,0.0,0.0,0.0,0.0,0.0,0.0,0.0,0.0,0.0,0.0,0.0,0.102,0.0471,0.0,0.0,0.0,0.0,0.0,0.0,0.0,0.0,0.0,0.0,0.0,0.0,0.0,0.0,0.0,0.0,0.0,0.0,0.0,0.0,0.0,0.0,0.0,0.0,0.0,0.0,0.0,0.0,0.0,0.0,0.0,0.0,0.0,0.0,0.0,0.0,0.0,0.0,0.0,0.0,0.0,0.0,0.0,0.0,0.0,0.0,0.0,0.0,0.0,0.0,0.0,0.0,0.0,0.0,0.0,0.0,0.0,0.0,0.0,0.0,0.0,0.0,0.0,0.0,0.011,0.0741,0.0901,0.1139,0.2159,0.246,0.2696,0.3759,0.4002,0.4167,0.4756,0.4882,0.4882,0.4882,0.523,0.5519,0.558,0.5877,0.6162,0.6286,0.6153,0.6003,0.6003,0.5959,0.5895,0.581,0.5383,0.469,0.3639,0.2706,0.1773,0.0807,0.0269,0.0,0.0,0.0,0.0,0.0,0.0,0.0,0.0,0.0,0.0,0.0,0.0,0.0,0.0235,0.0,0.0,0.0,0.0,0.0,0.0,0.0,0.0,0.0,0.0,0.0,0.0,0.0,0.0,0.0,0.0,0.0,0.0,0.0,0.0,0.0,0.0,0.0,0.0,0.0,0.0,0.0,0.0,0.0,0.0,0.0,0.0,0.0,0.0,0.0,0.0,0.0,0.0,0.0,0.0,0.0,0.0,0.0,0.0,0.0,0.0,0.0,0.0,0.0,0.0,0.0,0.0,0.0,0.0,0.0,0.0,0.0,0.0,0.0,0.0,0.0,0.0,0.0,0.0,0.0,0.0,0.0,0.0,0.0219,0.1129,0.1382,0.1645,0.2652,0.2899,0.2922,0.3058,0.3117,0.3085,0.3085,0.3759,0.4341,0.4474,0.5276,0.5906,0.606,0.6103,0.6141,0.63,0.601,0.583,0.583,0.4859,0.383,0.2801,0.1859,0.0947,0.0067,0.0,0.0,0.0,0.0,0.0,0.0,0.0,0.0,0.0,0.0,0.0,0.0,0.0,0.0,0.0039,0.0,0.0,0.0,0.0,0.0,0.0,0.0,0.0,0.0,0.0,0.0,0.0,0.0,0.0,0.0,0.0,0.0,0.0,0.0,0.0,0.0,0.0,0.0,0.0,0.0,0.0,0.0,0.0,0.0,0.0,0.0,0.0,0.0,0.0,0.0,0.0,0.0,0.0,0.0,0.0,0.0,0.0,0.0,0.0,0.0,0.0,0.0,0.0,0.0,0.0,0.0,0.0,0.0,0.0,0.0,0.0,0.0,0.0,0.0,0.0,0.0,0.0,0.0,0.0,0.0,0.0,0.0,0.0,0.0037,0.022,0.0291,0.0546,0.1609,0.1859,0.2079,0.292,0.3083,0.3085,0.3085,0.323,0.3341,0.3355,0.3513,0.3943,0.4844,0.496,0.5315,0.618,0.6101,0.5952,0.5952,0.5067,0.4012,0.2957,0.2052,0.1092,0.0068,0.0,0.0,0.0,0.0,0.0,0.0,0.0,0.0,0.0,0.0,0.0,0.0,0.0,0.0,0.0,0.0,0.0,0.0,0.0,0.0,0.0,0.0,0.0,0.0,0.0,0.0,0.0,0.0,0.0,0.0,0.0,0.0,0.0,0.0,0.0,0.0,0.0,0.0,0.0,0.0,-0.0269,-0.0897,0.0,-0.0942,-0.0942,-0.1522,-0.187,-0.1852,-0.1876,-0.1856,-0.1879,-0.1857,-0.1888,-0.1846,-0.1218,-0.0924,-0.0924,-0.0295,0.0,0.0,0.0,0.0,0.0,0.0,0.0,0.0,0.0,0.0,0.0,0.0,0.0,0.0,0.0,0.0,0.0,0.0,0.0,0.0,0.0,0.0,0.0,0.0,0.0,0.0,0.0,0.0,0.0141,0.0641,0.0772,0.0904,0.1374,0.1488,0.1481,0.1501,0.1939,0.2308,0.2308,0.2735,0.3279,0.3787,0.3865,0.4062,0.4569,0.456,0.4695,0.5165,0.3878,0.2747,0.2109,0.1284,0.053,0.0034,0.0,0.0,0.0,0.0,0.0,0.0,0.0,0.0,0.0,0.0,0.0,0.0,0.0,0.0,0.0,0.0,0.0,0.0,0.0,0.0,0.0,0.0,0.0,0.0,0.0,0.0,0.0,0.0,0.0,0.0,0.0,0.0,0.0,0.0,0.0,0.0,0.0,0.0,0.0,-0.0225,0.0,-0.1757,0.0,0.0,-0.2192,-0.3081,-0.3614,-0.3614,-0.3605,-0.3618,-0.3618,-0.3599,-0.3611,-0.3569,-0.2635,-0.2167,-0.2125,-0.0937,-0.0384,-0.0384,-0.0127,0.0,0.0,0.0,0.0,0.0,0.0,0.0,0.0,0.0,0.0,0.0,0.0,0.0,0.0,0.0,0.0,0.0,0.0,0.0,0.0,0.0,0.0,0.0,0.0,0.0,0.0,0.0,0.0,0.0,0.0,0.0,0.0,0.0,0.0694,0.1254,0.1254,0.1917,0.25,0.2735,0.2773,0.2851,0.3085,0.2929,0.3063,0.3802,0.2508,0.1546,0.1395,0.0538,0.0,0.0,0.0,0.0,0.0,0.0,0.0,0.0,0.0,0.0,0.0,0.0,0.0,0.0,0.0,0.0,0.0,0.0,0.0,0.0,0.0,0.0,0.0,0.0,0.0,0.0,0.0,0.0,0.0,0.0,0.0,0.0,0.0,0.0,0.0,0.0,0.0,0.0,0.0,0.0,0.0,-0.0986,-0.1714,0.0,0.0,0.0,-0.3489,-0.3525,-0.3614,-0.3614,-0.3609,-0.3604,-0.3604,-0.3597,-0.3593,-0.3593,-0.3505,-0.3416,-0.3372,-0.2179,-0.1647,-0.1556,-0.0481,0.0,0.0,0.0,0.0,0.0,0.0,0.0,0.0,0.0,0.0,0.0,0.0,0.0,0.0,0.0,0.0,0.0,0.0,0.0,0.0,0.0,0.0,0.0,0.0,0.0,0.0,0.0,0.0,0.0,0.0,0.0,0.0,0.0,0.0077,0.0157,0.0157,0.0235,0.0628,0.1606,0.1723,0.2074,0.2968,0.2308,0.1761,0.1874,0.1719,0.1586,0.1584,0.0589,0.0,0.0,0.0,0.0,0.0,0.0,0.0,0.0,0.0,0.0,0.0,0.0,0.0,0.0,0.0,0.0,0.0,0.0,0.0,0.0,0.0,0.0,0.0,0.0,0.0,0.0,0.0,0.0,0.0,0.0,0.0,0.0,0.0,0.0,0.0,0.0,0.0,0.0,0.0,-0.0266,0.0,0.0,-0.2574,0.0,0.0,0.0,-0.6029,-0.602,-0.602,-0.602,-0.602,-0.5985,-0.5868,-0.5865,-0.5827,-0.5708,-0.4999,-0.4688,-0.4641,-0.3438,-0.2903,-0.2857,-0.2393,0.0,0.0,-0.1096,-0.0651,0.0,0.0,0.0,0.0,0.0,0.0,0.0,0.0,0.0,0.0,0.0,0.0,0.0,0.0,0.0,0.0,0.0,0.0,0.0,0.0,0.0,0.0,0.0,0.0,0.0,0.0,0.0,0.0,0.0,0.0,0.0,0.0,0.0,0.0157,0.0588,0.0628,0.0784,0.1175,0.0902,0.0628,0.0628,0.0628,0.0622,0.0644,0.0259,0.0,0.0,0.0,0.0,0.0,0.0,0.0,0.0,0.0,0.0,0.0,0.0,0.0,0.0,0.0,0.0,0.0,0.0,0.0,0.0,0.0,0.0,0.0,0.0,0.0,0.0,0.0,0.0,0.0,0.0,0.0,0.0,0.0,0.0,0.0,0.0,0.0,0.0,0.0,-0.0874,0.0,-0.2602,0.0,0.0,0.0,0.0,0.0,-0.7729,-0.7689,-0.7604,-0.76,-0.755,-0.7441,-0.7438,-0.7363,-0.7166,-0.6352,-0.5975,-0.5847,-0.4685,-0.415,-0.4105,0.0,0.0,0.0,-0.2325,-0.1818,-0.1052,-0.1052,-0.0825,-0.0515,-0.0515,-0.0303,0.0,0.0,0.0,0.0,0.0,0.0,0.0,0.0,0.0,0.0,0.0,0.0,0.0,0.0,0.0,0.0,0.0,0.0,0.0,0.0,0.0,0.0,0.0,0.0,0.0,0.0,0.0,0.0,0.0,0.0,0.0,0.0,0.0,0.0,0.0,0.0,0.0,0.0,0.0,0.0,0.0,0.0,0.0,0.0,0.0,0.0,0.0,0.0,0.0,0.0,0.0,0.0,0.0,0.0,0.0,0.0,0.0,0.0,0.0,0.0,0.0,0.0,0.0,0.0,0.0,0.0,0.0,0.0,0.0,0.0,0.0,0.0,0.0,0.0,0.0,0.0,0.0,0.0,-0.1777,-0.182,-0.4211,0.0,0.0,0.0,0.0,0.0,-0.7985,-0.785,-0.7607,-0.76,-0.76,-0.7597,-0.7597,-0.7519,-0.7415,-0.737,-0.7288,-0.7051,-0.5894,-0.5403,0.0,0.0,0.0,0.0,-0.357,-0.357,-0.3568,-0.3568,-0.2814,-0.1789,-0.1789,-0.103,0.0,0.0,0.0,0.0,0.0,0.0,0.0,0.0,0.0,0.0,0.0,0.0,0.0,0.0,0.0,0.0,0.0,0.0,0.0,0.0,0.0,0.0,0.0,0.0,0.0,0.0,0.0,0.0,0.0,0.0,0.0,0.0,0.0,0.0,0.0,0.0,0.0,0.0,0.0,0.0,0.0,0.0,0.0,0.0,0.0,0.0,0.0,0.0,0.0,0.0,0.0,0.0,0.0,0.0,0.0,0.0,0.0,0.0,0.0,0.0,0.0,0.0,0.0,0.0,0.0,0.0,0.0,0.0,0.0,0.0,0.0,0.0,0.0,0.0,0.0,0.0,-0.1119,-0.3017,-0.4336,0.0,0.0,0.0,0.0,0.0,0.0,0.0,-0.7988,-0.7948,-0.7853,-0.785,-0.7848,-0.7746,-0.7743,-0.7672,-0.7529,-0.7529,-0.7448,-0.7299,-0.6934,0.0,0.0,0.0,0.0,0.0,-0.4821,-0.433,-0.3614,-0.3614,-0.3349,-0.3037,-0.3037,-0.2281,-0.121,-0.121,-0.0673,0.0,0.0,0.0,0.0,0.0,0.0,0.0,0.0,0.0,0.0,0.0,0.0,0.0,0.0,0.0,0.0,0.0,0.0,0.0,0.0,0.0,0.0,0.0,0.0,0.0,0.0,0.0,0.0,0.0,0.0,0.0,0.0,0.0,0.0,0.0,0.0,0.0,0.0,0.0,0.0,0.0,0.0,0.0,0.0,0.0,0.0,0.0,0.0,0.0,0.0,0.0,0.0,0.0,0.0,0.0,0.0,0.0,0.0,0.0,0.0,0.0,0.0,0.0,0.0,0.0,0.0,0.0,0.0,0.0,-0.016,0.0,0.0,0.0,-0.2957,0.0,0.0,0.0,0.0,0.0,0.0,0.0,0.0,0.0,-0.7988,-0.7988,-0.7988,-0.7988,-0.7944,-0.7899,-0.7896,-0.7824,-0.7678,-0.7678,-0.7573,-0.7415,-0.7415,0.0,0.0,0.0,0.0,0.0,-0.6027,-0.5578,-0.4907,-0.4907,-0.4639,-0.4283,-0.4283,-0.3527,-0.2458,-0.2458,-0.1969,-0.1299,-0.0807,-0.0359,0.0,0.0,0.0,0.0,0.0,0.0,0.0,0.0,0.0,0.0,0.0,0.0,0.0,0.0,0.0,0.0,0.0,0.0,0.0,0.0,0.0,0.0,0.0,0.0,0.0,0.0,0.0,0.0,0.0,0.0,0.0,0.0,0.0,0.0,0.0,0.0,0.0,0.0,0.0,0.0,0.0,0.0,0.0,0.0,0.0,0.0,0.0,0.0,0.0,0.0,0.0,0.0,0.0,0.0,0.0,0.0,0.0,0.0,0.0,0.0,0.0,0.0,0.0,0.0,0.0,-0.0081,0.0,0.0,-0.1851,0.0,0.0,-0.5462,0.0,0.0,0.0,0.0,0.0,0.0,0.0,0.0,-0.7988,-0.7988,-0.7988,-0.7988,-0.7988,-0.7988,-0.7988,-0.7917,-0.7828,-0.7828,-0.7672,-0.7433,-0.7433,0.0,0.0,0.0,0.0,0.0,-0.7095,-0.7095,-0.7095,-0.7095,-0.6473,-0.5536,-0.5536,-0.4776,-0.3748,-0.3748,-0.3659,-0.3436,-0.2281,-0.1165,-0.0225,-0.0135,-0.0087,0.0,0.0,0.0,0.0,0.0,0.0,0.0,0.0,0.0,0.0,0.0,0.0,0.0,0.0,0.0,0.0,0.0,0.0,0.0,0.0,0.0,0.0,0.0,0.0,0.0,0.0,0.0,0.0,0.0,0.0,0.0,0.0,0.0,0.0,0.0,0.0,0.0,0.0,0.0,0.0,0.0,0.0,0.0,0.0,0.0,0.0,0.0,0.0,0.0,0.0,0.0,0.0,0.0,0.0,0.0,0.0,0.0,0.0,0.0,0.0,0.0,0.0,0.0,-0.1475,-0.173,0.0,0.0,-0.5313,-0.6157,0.0,0.0,0.0,0.0,0.0,0.0,0.0,0.0,-0.7988,-0.7988,-0.7988,-0.7988,-0.7988,-0.7988,-0.7988,-0.7971,-0.7934,-0.7934,-0.7831,-0.7546,-0.7546,0.0,0.0,0.0,0.0,-0.7095,-0.7095,-0.7095,-0.7095,-0.7095,-0.6918,-0.6694,-0.6694,-0.598,-0.4954,-0.4954,-0.4374,-0.357,-0.326,-0.2992,-0.2592,-0.1657,-0.0713,0.0,0.0,0.0,0.0,0.0,0.0,0.0,0.0,0.0,0.0,0.0,0.0,0.0,0.0,0.0,0.0,0.0,0.0,0.0,0.0,0.0,0.0,0.0,0.0,0.0,0.0,0.0,0.0,0.0,0.0,0.0,0.0,0.0,0.0,0.0,0.0,0.0,0.0,0.0,0.0,0.0,0.0,0.0,0.0,0.0,0.0,0.0,0.0,0.0,0.0,0.0,0.0,0.0,0.0,0.0,0.0,0.0,0.0,0.0,0.0,-0.0199,-0.0739,-0.1388,0.0,0.0,0.0,-0.6095,-0.6154,-0.6738,0.0,0.0,0.0,0.0,0.0,0.0,0.0,0.0,-0.7988,-0.7988,-0.7988,-0.7988,-0.7988,-0.7988,-0.7988,-0.7988,-0.7988,-0.7917,-0.7818,-0.7597,-0.7529,-0.7366,0.0,0.0,0.0,-0.7095,-0.7095,-0.7095,-0.7095,-0.7095,-0.7095,-0.7095,-0.7095,-0.6694,-0.616,-0.616,-0.5401,-0.4419,-0.4419,-0.4061,-0.3481,-0.2815,-0.2191,-0.1433,-0.0314,0.0,0.0,0.0,0.0,0.0,0.0,0.0,0.0,0.0,0.0,0.0,0.0,0.0,0.0,0.0,0.0,0.0,0.0,0.0,0.0,0.0,0.0,0.0,0.0,0.0,0.0,0.0,0.0,0.0,0.0,0.0,0.0,0.0,0.0,0.0,0.0,0.0,0.0,0.0,0.0,0.0,0.0,0.0,0.0,0.0,0.0,0.0,0.0,0.0,0.0,0.0,0.0,0.0,0.0,0.0,0.0,0.0,0.0,-0.04,0.0,0.0,0.0,-0.5357,-0.6393,-0.6964,-0.7082,0.0,0.0,0.0,0.0,0.0,0.0,0.0,0.0,0.0,-0.7988,-0.7988,-0.7988,-0.7968,-0.7955,-0.7955,-0.7955,-0.7955,-0.7955,-0.7851,-0.7702,-0.756,-0.7431,-0.7285,0.0,0.0,0.0,-0.7095,-0.7095,-0.7095,-0.7095,-0.7095,-0.7095,-0.7095,-0.7095,-0.7095,-0.7095,-0.7095,-0.647,-0.5669,-0.5669,-0.4954,-0.4103,-0.3927,-0.3881,-0.3393,-0.1165,-0.0404,-0.0225,-0.0045,0.0,0.0,0.0,0.0,0.0,0.0,0.0,0.0,0.0,0.0,0.0,0.0,0.0,0.0,0.0,0.0,0.0,0.0,0.0,0.0,0.0,0.0,0.0,0.0,0.0,0.0,0.0,0.0,0.0,0.0,0.0,0.0,0.0,0.0,0.0,0.0,0.0,0.0,0.0,0.0,0.0,0.0,0.0,0.0,0.0,0.0,0.0,0.0,0.0,0.0,0.0,0.0,0.0,0.0,0.0,-0.0405,0.0,0.0,-0.5312,0.0,0.0,-0.7071,0.0,0.0,0.0,0.0,0.0,0.0,0.0,0.0,0.0,0.0,-0.7988,-0.7988,-0.7988,-0.7913,-0.7845,-0.7845,-0.7845,-0.7845,-0.7845,-0.7699,-0.7553,-0.7453,-0.7429,-0.7285,0.0,0.0,-0.7095,-0.7095,-0.7095,-0.7095,-0.7095,-0.7095,-0.7095,-0.7095,-0.7095,-0.7095,-0.7095,-0.7095,-0.7007,-0.6827,-0.6827,-0.6694,-0.6381,-0.5401,-0.5134,-0.4823,-0.3438,-0.2324,-0.1299,-0.0269,0.0,0.0,0.0,0.0,0.0,0.0,0.0,0.0,0.0,0.0,0.0,0.0,0.0,0.0,0.0,0.0,0.0,0.0,0.0,0.0,0.0,0.0,0.0,0.0,0.0,0.0,0.0,0.0,0.0,0.0,0.0,0.0,0.0,0.0,0.0,0.0,0.0,0.0,0.0,0.0,0.0,0.0,0.0,0.0,0.0,0.0,0.0,0.0,0.0,0.0,0.0,0.0,0.0,0.0,0.0,-0.1594,-0.3428,0.0,-0.6486,-0.7041,0.0,0.0,0.0,0.0,0.0,0.0,0.0,0.0,0.0,0.0,0.0,0.0,0.0,-0.7801,-0.7801,-0.7733,-0.7695,-0.7695,-0.7614,-0.7614,-0.7695,-0.7546,-0.7441,-0.7412,-0.7285,-0.7207,-0.7095,0.0,-0.7095,-0.7095,-0.7095,-0.7095,-0.7095,-0.7095,-0.7095,-0.7095,-0.7095,-0.7095,-0.7095,-0.7095,-0.7095,-0.7095,-0.7095,-0.7095,-0.7007,-0.647,-0.6337,-0.6068,-0.491,-0.3707,-0.2503,-0.1299,-0.0986,-0.0801,-0.0173,0.0,0.0,0.0,0.0,0.0,0.0,0.0,0.0,0.0,0.0,0.0,0.0,0.0,0.0,0.0,0.0,0.0,0.0,0.0,0.0,0.0,0.0,0.0,0.0,0.0,0.0,0.0,0.0,0.0,0.0,0.0,0.0,0.0,0.0,0.0,0.0,0.0,0.0,0.0,0.0,0.0,0.0,0.0,0.0,0.0,0.0,0.0,0.0,0.0,-0.0081,-0.0369,-0.1642,0.0,-0.5109,-0.6358,-0.7095,0.0,0.0,0.0,0.0,0.0,0.0,0.0,0.0,0.0,0.0,0.0,0.0,0.0,0.0,-0.76,-0.76,-0.7563,-0.7546,-0.7546,-0.7394,-0.7394,-0.7546,-0.739,-0.7319,-0.7312,-0.7149,-0.7095,-0.7095,-0.7095,-0.7095,-0.7095,-0.7095,-0.7095,-0.7095,-0.7095,-0.7095,-0.7095,-0.7095,-0.7095,-0.7095,-0.7095,-0.7095,-0.7095,-0.7095,-0.7095,-0.7095,-0.7095,-0.7095,-0.6918,-0.6027,-0.5132,-0.4059,-0.2592,-0.2236,-0.1916,-0.0703,-0.0432,-0.0339,-0.0041,0.0,0.0,0.0,0.0,0.0,0.0,0.0,0.0,0.0,0.0,0.0,0.0,0.0,0.0,0.0,0.0,0.0,0.0,0.0,0.0,0.0,0.0,0.0,0.0,0.0,0.0,0.0,0.0,0.0,0.0,0.0,0.0,0.0,0.0,0.0,0.0,0.0,0.0,0.0,0.0,0.0,0.0,0.0,0.0,0.0,0.0,-0.0327,-0.1459,-0.3567,-0.5206,-0.5372,-0.6378,0.0,0.0,0.0,0.0,0.0,0.0,0.0,0.0,0.0,0.0,0.0,0.0,0.0,0.0,0.0,0.0,-0.76,-0.7461,-0.7433,-0.7433,-0.7234,-0.7234,-0.7433,-0.7231,-0.7112,-0.7112,-0.7102,-0.7095,-0.7095,-0.7095,-0.7095,-0.7095,-0.7095,-0.7095,-0.7095,-0.7095,-0.7095,-0.7095,-0.7095,-0.7095,-0.7095,-0.7095,-0.7095,-0.7095,-0.7095,-0.7095,-0.7095,-0.7095,-0.7095,-0.7095,-0.7007,-0.6918,-0.6334,-0.4059,-0.3481,-0.3169,-0.1964,-0.165,-0.1367,-0.0254,0.0,0.0,0.0,0.0,0.0,0.0,0.0,0.0,0.0,0.0,0.0,0.0,0.0,0.0,0.0,0.0,0.0,0.0,0.0,0.0,0.0,0.0,0.0,0.0,0.0,0.0,0.0,0.0,0.0,0.0,0.0,0.0,0.0,0.0,0.0,0.0,0.0,0.0,0.0,0.0,0.0,0.0,0.0,0.0,0.0,0.0,-0.055,-0.2391,0.0,-0.4729,-0.6127,-0.6775,0.0,0.0,0.0,0.0,0.0,0.0,0.0,0.0,0.0,0.0,0.0,0.0,0.0,0.0,0.0,0.0,-0.7267,-0.7258,-0.7227,-0.7227,-0.7125,-0.7125,-0.7227,-0.7125,-0.7095,-0.7095,-0.7095,-0.7095,-0.7095,-0.7095,-0.7095,-0.7095,-0.7095,-0.7095,-0.7095,-0.7095,-0.7095,-0.7095,-0.7095,-0.7095,-0.7095,-0.7095,-0.7095,-0.7095,-0.7095,-0.7095,-0.7095,-0.7095,-0.7095,-0.7095,-0.7095,-0.7095,-0.6738,-0.5132,-0.4732,-0.4419,-0.3215,-0.2903,-0.2581,-0.136,-0.112,-0.0886,-0.0164,0.0,0.0,0.0,0.0,0.0,0.0,0.0,0.0,0.0,0.0,0.0,0.0,0.0,0.0,0.0,0.0,0.0,0.0,0.0,0.0,0.0,0.0,0.0,0.0,0.0,0.0,0.0,0.0,0.0,0.0,0.0,0.0,0.0,0.0,0.0,0.0,0.0,0.0,0.0,0.0,0.0,0.0,-0.0615,-0.161,-0.3104,-0.4093,0.0,0.0,0.0,0.0,0.0,0.0,0.0,0.0,0.0,0.0,0.0,0.0,0.0,0.0,0.0,0.0,0.0,0.0,0.0,0.0,-0.7095,-0.7095,-0.7095,-0.7095,-0.7095,-0.7095,-0.7095,-0.7095,-0.7095,-0.7095,-0.7095,-0.7095,-0.7095,-0.7095,-0.7095,-0.7095,-0.7095,-0.7095,-0.7095,-0.7095,-0.7095,-0.7095,-0.7095,-0.7095,-0.7095,-0.7095,-0.7095,-0.7095,-0.7095,-0.7095,-0.7095,-0.7095,-0.7095,-0.7095,-0.7095,-0.6918,-0.616,-0.5938,-0.5625,-0.4463,-0.415,-0.3838,-0.2637,-0.2054,-0.1543,-0.0731,-0.0241,0.0,0.0,0.0,0.0,0.0,0.0,0.0,0.0,0.0,0.0,0.0,0.0,0.0,0.0,0.0,0.0,0.0,0.0,0.0,0.0,0.0,0.0,0.0,0.0,0.0,0.0,0.0,0.0,0.0,0.0,0.0,0.0,0.0,0.0,0.0,0.0,0.0,0.0,0.0,0.0,0.0,-0.1924,-0.3593,-0.361,-0.5501,0.0,0.0,0.0,0.0,0.0,0.0,0.0,0.0,0.0,0.0,0.0,0.0,0.0,0.0,0.0,0.0,0.0,0.0,0.0,0.0,-0.7095,-0.7095,-0.7095,-0.7095,-0.7095,-0.7095,-0.7095,-0.7095,-0.7095,-0.7095,-0.7095,-0.7095,-0.7095,-0.7095,-0.7095,-0.7095,-0.7095,-0.7095,-0.7095,-0.7095,-0.7095,-0.7095,-0.7095,-0.7095,-0.7095,-0.7095,-0.7095,-0.7095,-0.7095,-0.7095,-0.7095,-0.7095,-0.7095,-0.7095,-0.7095,-0.7095,-0.7095,-0.7095,-0.6827,-0.5672,-0.5403,-0.509,-0.3881,-0.2681,-0.1812,-0.182,-0.0825,0.0,0.0,0.0,0.0,0.0,0.0,0.0,0.0,0.0,0.0,0.0,0.0,0.0,0.0,0.0,0.0,0.0,0.0,0.0,0.0,0.0,0.0,0.0,0.0,0.0,0.0,0.0,0.0,0.0,0.0,0.0,0.0,0.0,0.0,0.0,0.0,0.0,0.0,0.0,0.0,0.0,-0.1254,-0.2532,-0.3261,-0.4754,0.0,0.0,0.0,0.0,0.0,0.0,0.0,0.0,0.0,0.0,0.0,0.0,0.0,0.0,0.0,0.0,0.0,0.0,0.0,0.0,-0.7095,-0.7095,-0.7095,-0.7095,-0.7095,-0.7095,-0.7095,-0.7095,-0.7095,-0.7095,-0.7095,-0.7095,-0.7095,-0.7095,-0.7095,-0.7095,-0.7095,-0.7095,-0.7095,-0.7095,-0.7095,-0.7095,-0.7095,-0.7095,-0.7095,-0.7095,-0.7095,-0.7095,-0.7095,-0.7095,-0.7095,-0.7095,-0.7095,-0.7095,-0.7095,-0.7095,-0.7095,-0.7095,-0.7007,-0.6694,-0.6605,-0.6293,-0.5132,-0.3929,-0.2803,-0.198,-0.0811,0.0,0.0,0.0,0.0,0.0,0.0,0.0,0.0,0.0,0.0,0.0,0.0,0.0,0.0,0.0,0.0,0.0,0.0,0.0,0.0,0.0,0.0,0.0,0.0,0.0,0.0,0.0,0.0,0.0,0.0,0.0,0.0,0.0,0.0,0.0,0.0,0.0,0.0,0.0,0.0,0.0,-0.0941,-0.2138,-0.3207,-0.4515,0.0,0.0,0.0,0.0,0.0,0.0,0.0,0.0,0.0,0.0,0.0,0.0,0.0,0.0,0.0,0.0,0.0,0.0,0.0,0.0,-0.7095,-0.7095,-0.7095,-0.7095,-0.7095,-0.7095,-0.7095,-0.7095,-0.7095,-0.7095,-0.7095,-0.7095,-0.7095,-0.7095,-0.7095,-0.7095,-0.7095,-0.7095,-0.7095,-0.7095,-0.7095,-0.7095,-0.7095,-0.7095,-0.7095,-0.7095,-0.7095,-0.7095,-0.7095,-0.7095,-0.7095,-0.7095,-0.7095,-0.7095,-0.7095,-0.7095,-0.7095,-0.7095,-0.7095,-0.7095,-0.7095,-0.6918,-0.6204,-0.5132,-0.3972,-0.2771,-0.1524,-0.055,-0.0083,0.0,0.0,0.0,0.0,0.0,0.0,0.0,0.0,0.0,0.0,0.0,0.0,0.0,0.0,0.0,0.0,0.0,0.0,0.0,0.0,0.0,0.0,0.0,0.0,0.0,0.0,0.0,0.0,0.0,0.0,0.0,0.0,0.0,0.0,0.0,0.0,0.0,0.0,0.0,0.0,-0.2147,-0.3392,-0.4599,0.0,0.0,0.0,0.0,0.0,0.0,0.0,0.0,0.0,0.0,0.0,0.0,0.0,0.0,0.0,0.0,0.0,0.0,0.0,0.0,-0.7095,-0.7095,-0.7095,-0.7095,-0.7095,0.0,-0.7095,-0.7095,-0.7095,-0.7095,-0.7095,-0.7095,-0.7095,-0.7095,-0.7095,-0.7095,-0.7095,-0.7095,-0.7095,-0.7095,-0.7095,-0.7095,-0.7095,-0.7095,-0.7095,-0.7095,-0.7095,-0.7095,-0.7095,-0.7095,-0.7095,-0.7095,-0.7095,-0.7095,-0.7095,-0.7095,-0.7095,-0.7095,-0.7095,-0.7095,-0.7095,-0.7095,-0.7095,-0.6204,-0.5045,-0.3838,-0.2639,-0.1426,-0.0212,0.0,0.0,0.0,0.0,0.0,0.0,0.0,0.0,0.0,0.0,0.0,0.0,0.0,0.0,0.0,0.0,0.0,0.0,0.0,0.0,0.0,0.0,0.0,0.0,0.0,0.0,0.0,0.0,0.0,0.0,0.0,0.0,0.0,0.0,0.0,0.0,0.0,0.0,0.0,-0.0941,-0.2147,-0.3392,0.0,0.0,0.0,0.0,0.0,0.0,0.0,0.0,0.0,0.0,0.0,0.0,0.0,0.0,0.0,0.0,0.0,0.0,0.0,0.0,-0.7095,-0.7095,-0.7095,-0.7095,-0.7095,-0.7095,0.0,-0.7095,-0.7095,-0.7095,-0.7095,-0.7095,-0.7095,-0.7095,-0.7095,-0.7095,-0.7095,-0.7095,-0.7095,-0.7095,-0.7095,-0.7095,-0.7095,-0.7095,-0.7095,-0.7095,-0.7095,-0.7095,-0.7095,-0.7095,-0.7095,-0.7095,-0.7095,-0.7095,-0.7095,-0.7095,-0.7095,-0.7095,-0.7095,-0.7095,-0.7095,-0.7095,-0.7095,-0.7095,-0.6204,-0.5045,-0.3838,-0.2627,-0.1414,-0.0217,0.0,0.0,0.0,0.0,0.0,0.0,0.0,0.0,0.0,0.0,0.0,0.0,0.0,0.0,0.0,0.0,0.0,0.0,0.0,0.0,0.0,0.0,0.0,0.0,0.0,0.0,0.0,0.0,0.0,0.0,0.0,0.0,0.0,0.0,0.0,0.0,0.0,0.0,0.0,-0.0519,-0.1319,0.0,0.0,0.0,0.0,0.0,0.0,0.0,0.0,0.0,0.0,0.0,0.0,0.0,0.0,0.0,0.0,0.0,0.0,0.0,-0.7031,-0.7024,-0.7095,-0.7095,-0.7095,-0.7095,-0.7095,-0.7095,-0.7095,-0.7095,-0.7095,-0.7095,-0.7095,-0.7095,-0.7095,-0.7095,-0.7095,-0.7095,-0.7095,-0.7095,-0.7095,-0.7095,-0.7095,-0.7095,-0.7095,-0.7095,-0.7095,-0.7095,-0.6738,-0.6384,-0.6918,-0.6738,-0.6381,-0.6918,-0.7095,-0.7095,-0.7095,-0.7095,-0.7095,-0.7095,-0.7095,-0.7095,-0.7095,-0.7095,-0.7095,-0.7095,-0.665,-0.5847,-0.4685,-0.3974,-0.2939,-0.1148,-0.039,0.0,0.0,0.0,0.0,0.0,0.0,0.0,0.0,0.0,0.0,0.0,0.0,0.0,0.0,0.0,0.0,0.0,0.0,0.0,0.0,0.0,0.0,0.0,0.0,0.0,0.0,0.0,0.0,0.0,0.0,0.0,0.0,0.0,0.0,0.0,0.0,0.0,0.0,0.0,0.0,0.0,0.0,0.0,0.0,0.0,0.0,0.0,0.0,0.0,0.0,0.0,0.0,0.0,0.0,0.0,0.0,0.0,0.0,-0.7045,-0.695,-0.695,-0.7092,-0.7095,-0.7007,-0.6827,-0.7007,-0.7007,-0.6827,-0.7007,-0.7095,-0.7095,-0.7095,-0.7095,-0.7095,-0.7095,-0.7095,-0.7095,-0.7095,-0.7095,-0.7095,-0.7095,-0.7095,-0.7095,-0.7095,-0.7095,-0.7095,-0.7095,-0.6473,-0.5802,-0.6561,-0.6293,-0.5849,-0.6561,-0.6962,-0.7095,-0.7095,-0.7095,-0.7095,-0.7095,-0.7095,-0.7095,-0.7095,-0.7095,-0.7095,-0.7095,-0.7095,-0.6782,-0.5625,-0.5223,-0.4376,-0.2192,-0.0969,-0.0258,-0.0041,0.0,0.0,0.0,0.0,0.0,0.0,0.0,0.0,0.0,0.0,0.0,0.0,0.0,0.0,0.0,0.0,0.0,0.0,0.0,0.0,0.0,0.0,0.0,0.0,0.0,0.0,0.0,0.0,0.0,0.0,0.0,0.0,0.0,0.0,0.0,0.0,0.0,0.0,0.0,0.0,0.0,0.0,0.0,0.0,0.0,0.0,0.0,0.0,0.0,0.0,0.0,0.0,0.0,0.0,0.0,0.0,-0.6906,-0.6896,-0.695,-0.7092,-0.7095,-0.6605,-0.5625,-0.6605,-0.6605,-0.5625,-0.6605,-0.7095,-0.7095,-0.7095,-0.7095,-0.7095,-0.7095,-0.7095,-0.7095,-0.7095,-0.7095,-0.7095,-0.7095,-0.7095,-0.7095,-0.7095,-0.7095,-0.7095,-0.7095,-0.7007,-0.6738,-0.5894,-0.6204,-0.6694,-0.5891,-0.6337,-0.7095,-0.7095,-0.7095,-0.7095,-0.7095,-0.7095,-0.7095,-0.7095,-0.7095,-0.7095,-0.7095,-0.7095,-0.6782,-0.5625,-0.4552,-0.3393,-0.2058,-0.1671,-0.1213,-0.0173,0.0,0.0,0.0,0.0,0.0,0.0,0.0,0.0,0.0,0.0,0.0,0.0,0.0,0.0,0.0,0.0,0.0,0.0,0.0,0.0,0.0,0.0,0.0,0.0,0.0,0.0,0.0,0.0,0.0,0.0,0.0,0.0,0.0,0.0,0.0,0.0,0.0,0.0,0.0,0.0,0.0,0.0,0.0,0.0,0.0,0.0,0.0,0.0,0.0,0.0,0.0,0.0,0.0,0.0,0.0,-0.5937,-0.6745,-0.6719,-0.6742,-0.6888,-0.6895,-0.6325,-0.5262,-0.5741,-0.5424,-0.4419,-0.5578,-0.616,-0.616,-0.6827,-0.7095,-0.7095,-0.7095,-0.7095,-0.7095,-0.7095,-0.7095,-0.7095,-0.7095,-0.7095,-0.7095,-0.7095,-0.7095,-0.7095,-0.7095,-0.6694,-0.616,-0.6293,-0.6248,-0.616,-0.6293,-0.6694,-0.7095,-0.7095,-0.7095,-0.7095,-0.7095,-0.7095,-0.7095,-0.7095,-0.7095,-0.7095,-0.7095,-0.7095,-0.6962,-0.6473,-0.5401,-0.4241,-0.3037,-0.2262,-0.1369,-0.0177,0.0,0.0,0.0,0.0,0.0,0.0,0.0,0.0,0.0,0.0,0.0,0.0,0.0,0.0,0.0,0.0,0.0,0.0,0.0,0.0,0.0,0.0,0.0,0.0,0.0,0.0,0.0,0.0,0.0,0.0,0.0,0.0,0.0,0.0,0.0,0.0,0.0,0.0,0.0,0.0,0.0,0.0,0.0,0.0,0.0,0.0,0.0,0.0,0.0,0.0,0.0,0.0,0.0,0.0,0.0,-0.4862,-0.6169,-0.6165,-0.6296,-0.6695,-0.6702,-0.6161,-0.5059,-0.5087,-0.4894,-0.4505,-0.509,-0.5403,-0.5403,-0.598,-0.6201,-0.6245,-0.6827,-0.7095,-0.7095,-0.7095,-0.7095,-0.7095,-0.7095,-0.7095,-0.7095,-0.7095,-0.6918,-0.6694,-0.7007,-0.6157,-0.509,-0.5933,-0.5622,-0.5043,-0.5578,-0.6201,-0.665,-0.665,-0.6874,-0.7095,-0.7095,-0.7095,-0.7095,-0.7095,-0.7095,-0.7095,-0.7095,-0.7095,-0.7095,-0.7095,-0.6425,-0.5445,-0.4283,-0.3037,-0.1835,-0.0628,-0.0177,0.0,0.0,0.0,0.0,0.0,0.0,0.0,0.0,0.0,0.0,0.0,0.0,0.0,0.0,0.0,0.0,0.0,0.0,0.0,0.0,0.0,0.0,0.0,0.0,0.0,0.0,0.0,0.0,0.0,0.0,0.0,0.0,0.0,0.0,0.0,0.0,0.0,0.0,0.0,0.0,0.0,0.0,0.0,0.0,0.0,0.0,0.0,0.0,0.0,0.0,0.0,0.0,0.0,0.0,-0.3705,-0.4937,-0.4982,-0.5522,-0.6654,-0.6702,-0.6117,-0.491,-0.5049,-0.5724,-0.6918,-0.5891,-0.5403,-0.5359,-0.4283,-0.3792,-0.3926,-0.6154,-0.7095,-0.7095,-0.7095,-0.7095,-0.7095,-0.7095,-0.7095,-0.7095,-0.7095,-0.6428,-0.5625,-0.6738,-0.562,-0.3703,-0.3748,-0.3748,-0.3482,-0.2415,-0.3662,-0.5492,-0.5492,-0.6248,-0.7095,-0.7095,-0.7095,-0.7095,-0.7095,-0.7095,-0.7095,-0.7095,-0.7095,-0.7095,-0.7095,-0.7051,-0.665,-0.5492,-0.4285,-0.3081,-0.1879,-0.0717,0.0,0.0,0.0,0.0,0.0,0.0,0.0,0.0,0.0,0.0,0.0,0.0,0.0,0.0,0.0,0.0,0.0,0.0,0.0,0.0,0.0,0.0,0.0,0.0,0.0,0.0,0.0,0.0,0.0,0.0,0.0,0.0,0.0,0.0,0.0,0.0,0.0,0.0,0.0,0.0,0.0,0.0,0.0,0.0,0.0,0.0,0.0,0.0,0.0,0.0,0.0,0.0,0.0,0.0,0.0,-0.3671,-0.3756,-0.4265,-0.5365,-0.5408,-0.5243,-0.49,-0.4323,-0.4285,-0.4861,-0.4461,-0.4641,-0.5403,-0.4954,-0.4776,-0.4821,-0.5625,-0.5578,-0.4861,-0.4861,-0.5309,-0.6027,-0.6027,-0.6473,-0.7007,-0.6293,-0.5761,-0.5359,-0.4996,-0.4281,-0.3614,-0.3614,-0.3614,-0.3525,-0.3081,-0.3571,-0.4239,-0.4239,-0.5087,-0.6027,-0.6027,-0.6561,-0.7095,-0.7095,-0.7095,-0.7095,-0.7095,-0.7095,-0.7095,-0.7095,-0.7095,-0.6738,-0.5581,-0.5045,-0.433,-0.3126,-0.2592,-0.2013,-0.1254,-0.1158,-0.0842,-0.0089,0.0,0.0,0.0,0.0,0.0,0.0,0.0,0.0,0.0,0.0,0.0,0.0,0.0,0.0,0.0,0.0,0.0,0.0,0.0,0.0,0.0,0.0,0.0,0.0,0.0,0.0,0.0,0.0,0.0,0.0,0.0,0.0,0.0,0.0,0.0,0.0,0.0,0.0,0.0,0.0,0.0,0.0,0.0,0.0,0.0,0.0,0.0,0.0,0.0,0.0,-0.2532,-0.2609,-0.309,-0.4128,-0.4162,-0.4419,-0.4886,-0.4276,-0.4239,-0.4724,-0.436,-0.4641,-0.5403,-0.4999,-0.4776,-0.4776,-0.4376,-0.3974,-0.3614,-0.3614,-0.4061,-0.4776,-0.4776,-0.5265,-0.5844,-0.5087,-0.4554,-0.4154,-0.3749,-0.3081,-0.2458,-0.2858,-0.2726,-0.2413,-0.2413,-0.2681,-0.2992,-0.2992,-0.3883,-0.4776,-0.4776,-0.5667,-0.6517,-0.6517,-0.6827,-0.7095,-0.7095,-0.7095,-0.7095,-0.7095,-0.7095,-0.6874,-0.6115,-0.5669,-0.4999,-0.3792,-0.3614,-0.3037,-0.1388,-0.1567,-0.1344,-0.0135,0.0,0.0,0.0,0.0,0.0,0.0,0.0,0.0,0.0,0.0,0.0,0.0,0.0,0.0,0.0,0.0,0.0,0.0,0.0,0.0,0.0,0.0,0.0,0.0,0.0,0.0,0.0,0.0,0.0,0.0,0.0,0.0,0.0,0.0,0.0,0.0,0.0,0.0,0.0,0.0,0.0,0.0,0.0,0.0,0.0,0.0,0.0,0.0,0.0,-0.0461,-0.1487,-0.1599,-0.2059,-0.3013,-0.3084,-0.3669,-0.4851,-0.4964,-0.567,-0.6843,-0.5835,-0.5403,-0.5403,-0.4194,-0.3659,-0.357,-0.237,-0.2503,-0.3525,-0.3525,-0.3525,-0.357,-0.357,-0.3614,-0.3614,-0.357,-0.2814,-0.1969,-0.3081,-0.1969,-0.018,-0.1344,-0.0941,0.0,0.0,-0.0807,-0.1746,-0.1746,-0.2637,-0.357,-0.357,-0.4463,-0.5359,-0.5359,-0.6204,-0.7007,-0.7007,-0.7007,-0.7051,-0.7095,-0.7095,-0.7095,-0.7095,-0.6204,-0.5045,-0.3881,-0.3703,-0.286,-0.0449,-0.1165,-0.1389,-0.018,0.0,0.0,0.0,0.0,0.0,0.0,0.0,0.0,0.0,0.0,0.0,0.0,0.0,0.0,0.0,0.0,0.0,0.0,0.0,0.0,0.0,0.0,0.0,0.0,0.0,0.0,0.0,0.0,0.0,0.0,0.0,0.0,0.0,0.0,0.0,0.0,0.0,0.0,0.0,0.0,0.0,0.0,0.0,0.0,0.0,0.0,0.0,0.0,0.0,-0.0138,-0.0425,-0.1189,-0.1714,-0.2019,-0.2708,-0.3313,-0.3746,-0.3777,-0.4486,-0.5798,-0.4638,-0.4996,-0.6605,-0.5445,-0.491,-0.4821,-0.3616,-0.2814,-0.228,-0.228,-0.228,-0.237,-0.326,-0.3614,-0.3481,-0.2637,-0.2102,-0.1701,-0.1165,-0.0539,-0.0045,-0.0404,-0.0269,0.0,0.0,-0.0225,-0.0494,-0.0494,-0.1389,-0.2503,-0.3393,-0.3838,-0.4105,-0.4105,-0.4328,-0.455,-0.455,-0.5265,-0.6115,-0.6962,-0.7095,-0.7095,-0.7095,-0.6827,-0.6514,-0.6201,-0.611,-0.5575,-0.4109,-0.3439,-0.2637,-0.1433,-0.0539,0.0,0.0,0.0,0.0,0.0,0.0,0.0,0.0,0.0,0.0,0.0,0.0,0.0,0.0,0.0,0.0,0.0,0.0,0.0,0.0,0.0,0.0,0.0,0.0,0.0,0.0,0.0,0.0,0.0,0.0,0.0,0.0,0.0,0.0,0.0,0.0,0.0,0.0,0.0,0.0,0.0,0.0,0.0,0.0,0.0,0.0,0.0,0.0,0.0,0.0,-0.0601,-0.0932,-0.0932,-0.1505,-0.2068,-0.258,-0.2664,-0.3298,-0.4567,-0.3915,-0.4328,-0.562,-0.5492,-0.5403,-0.5314,-0.4105,-0.3213,-0.2503,-0.2013,-0.1522,-0.1121,-0.1835,-0.2102,-0.2013,-0.1299,-0.1031,-0.0941,-0.0225,0.0,0.0,0.0,0.0,0.0,0.0,0.0,0.0,0.0,-0.0494,-0.121,-0.1924,-0.2458,-0.2858,-0.2858,-0.3215,-0.3614,-0.3614,-0.415,-0.4999,-0.616,-0.6782,-0.7095,-0.7095,-0.7095,-0.6918,-0.6473,-0.6786,-0.6514,-0.4865,-0.4463,-0.3707,-0.1969,-0.1165,-0.0539,-0.0045,0.0,0.0,0.0,0.0,0.0,0.0,0.0,0.0,0.0,0.0,0.0,0.0,0.0,0.0,0.0,0.0,0.0,0.0,0.0,0.0,0.0,0.0,0.0,0.0,0.0,0.0,0.0,0.0,0.0,0.0,0.0,0.0,0.0,0.0,0.0,0.0,0.0,0.0,0.0,0.0,0.0,0.0,0.0,0.0,0.0,0.0,0.0,0.0,0.0,0.0,0.0,0.0,-0.044,-0.1424,-0.1536,-0.2163,-0.3215,-0.3357,-0.3472,-0.3614,-0.4732,-0.5179,-0.5134,-0.3927,-0.3392,-0.3303,-0.2102,-0.0986,0.0,-0.0135,-0.0135,0.0,0.0,0.0,0.0,0.0,0.0,0.0,0.0,0.0,0.0,0.0,0.0,0.0,0.0,0.0,0.0,0.0,-0.0807,-0.1612,-0.1612,-0.2413,-0.3213,-0.3213,-0.3303,-0.3705,-0.4776,-0.6027,-0.6962,-0.7095,-0.7095,-0.6738,-0.5758,-0.6473,-0.6334,-0.4237,-0.4685,-0.4376,-0.2236,-0.1745,-0.1165,-0.009,0.0,0.0,0.0,0.0,0.0,0.0,0.0,0.0,0.0,0.0,0.0,0.0,0.0,0.0,0.0,0.0,0.0,0.0,0.0,0.0,0.0,0.0,0.0,0.0,0.0,0.0,0.0,0.0,0.0,0.0,0.0,0.0,0.0,0.0,0.0,0.0,0.0,0.0,0.0,0.0,0.0,0.0,0.0,0.0,0.0,0.0,0.0,0.0,0.0,0.0,0.0,0.0,-0.0106,-0.0321,-0.0344,-0.0958,-0.212,-0.2134,-0.268,-0.3614,-0.3838,-0.3972,-0.3883,-0.2681,-0.2147,-0.2057,-0.0852,-0.0225,-0.009,-0.1076,-0.0852,0.0,0.0,0.0,0.0,0.0,0.0,0.0,0.0,0.0,0.0,0.0,0.0,0.0,0.0,0.0,0.0,0.0,-0.018,-0.0359,-0.0359,-0.0539,-0.0718,-0.0718,-0.1478,-0.2236,-0.2459,-0.4243,-0.6027,-0.6962,-0.7095,-0.7007,-0.6786,-0.6962,-0.6915,-0.6467,-0.4996,-0.3749,-0.3303,-0.1522,-0.0269,0.0,0.0,0.0,0.0,0.0,0.0,0.0,0.0,0.0,0.0,0.0,0.0,0.0,0.0,0.0,0.0,0.0,0.0,0.0,0.0,0.0,0.0,0.0,0.0,0.0,0.0,0.0,0.0,0.0,0.0,0.0,0.0,0.0,0.0,0.0,0.0,0.0,0.0,0.0,0.0,0.0,0.0,0.0,0.0,0.0,0.0,0.0,0.0,0.0,0.0,0.0,0.0,0.0,0.0,0.0,0.0,-0.0308,-0.0918,-0.092,-0.1209,-0.1807,-0.2446,-0.2681,-0.2681,-0.2057,-0.179,-0.1701,-0.0494,0.0,-0.0045,-0.0673,-0.0539,0.0,0.0,0.0,0.0,0.0,0.0,0.0,0.0,0.0,0.0,0.0,0.0,0.0,0.0,0.0,0.0,0.0,0.0,0.0,0.0,0.0,0.0,0.0,-0.0494,-0.1076,-0.17,-0.2772,-0.4154,-0.5935,-0.6738,-0.7095,-0.7095,-0.7095,-0.7095,-0.7095,-0.6065,-0.4905,-0.3703,-0.2503,-0.1299,-0.009,0.0,0.0,0.0,0.0,0.0,0.0,0.0,0.0,0.0,0.0,0.0,0.0,0.0,0.0,0.0,0.0,0.0,0.0,0.0,0.0,0.0,0.0,0.0,0.0,0.0,0.0,0.0,0.0,0.0,0.0,0.0,0.0,0.0,0.0,0.0,0.0,0.0,0.0,0.0,0.0,0.0,0.0,0.0,0.0,0.0,0.0,0.0,0.0,0.0,0.0,0.0,0.0,0.0,0.0,0.0,0.0,0.0,0.0,0.0,-0.0043,-0.1015,-0.1472,-0.1433,-0.1433,-0.1433,-0.1389,-0.0404,0.0,0.0,0.0,0.0,0.0,0.0,0.0,0.0,0.0,0.0,0.0,0.0,0.0,0.0,0.0,0.0,0.0,0.0,0.0,0.0,0.0,0.0,0.0,0.0,0.0,0.0,0.0,0.0,-0.0269,-0.1254,-0.1657,-0.2504,-0.4688,-0.58,-0.6514,-0.6738,-0.6782,-0.6874,-0.7051,-0.6918,-0.5977,-0.3837,-0.3392,-0.237,-0.018,0.0,0.0,0.0,0.0,0.0,0.0,0.0,0.0,0.0,0.0,0.0,0.0,0.0,0.0,0.0,0.0,0.0,0.0,0.0,0.0,0.0,0.0,0.0,0.0,0.0,0.0,0.0,0.0,0.0,0.0,0.0,0.0,0.0,0.0,0.0,0.0,0.0,0.0,0.0,0.0,0.0,0.0,0.0,0.0,0.0,0.0,0.0,0.0,0.0,0.0,0.0,0.0,0.0,0.0,0.0,0.0,0.0,0.0,0.0,0.0,-0.013,-0.0221,-0.0225,-0.0225,-0.0225,-0.018,-0.0045,0.0,0.0,0.0,0.0,0.0,0.0,0.0,0.0,0.0,0.0,0.0,0.0,0.0,0.0,0.0,0.0,0.0,0.0,0.0,0.0,0.0,0.0,0.0,0.0,0.0,0.0,0.0,0.0,-0.0045,-0.018,-0.1076,-0.2236,-0.357,-0.3927,-0.4372,-0.5447,-0.5581,-0.5938,-0.6962,-0.6204,-0.509,-0.3748,-0.2637,-0.1478,-0.0135,0.0,0.0,0.0,0.0,0.0,0.0,0.0,0.0,0.0,0.0,0.0,0.0,0.0,0.0,0.0,0.0,0.0,0.0,0.0,0.0,0.0,0.0,0.0,0.0,0.0,0.0,0.0,0.0,0.0,0.0,0.0,0.0,0.0,0.0,0.0,0.0,0.0,0.0,0.0,0.0,0.0,0.0,0.0,0.0,0.0,0.0,0.0,0.0,0.0,0.0,0.0,0.0,0.0,0.0,0.0,0.0,0.0,0.0,0.0,0.0,0.0,0.0,0.0,0.0,0.0,0.0,0.0,0.0,0.0,0.0,0.0,0.0,0.0,0.0,0.0,0.0,0.0,0.0,0.0,0.0,0.0,0.0,0.0,0.0,0.0,0.0,0.0,0.0,0.0,0.0,0.0,0.0,0.0,0.0,0.0,0.0,0.0,-0.0404,-0.0897,-0.1433,-0.2681,-0.3792,-0.4283,-0.4374,-0.4508,-0.4996,-0.5267,-0.469,-0.2771,-0.2726,-0.2057,-0.018,0.0,0.0,0.0,0.0,0.0,0.0,0.0,0.0,0.0,0.0,0.0,0.0,0.0,0.0,0.0,0.0,0.0,0.1508,0.0,0.0,0.0,0.0,0.0,0.0,0.0,0.0,0.0,0.0,0.0,0.0,0.0,0.0,0.0,0.0,0.0,0.0,0.0,0.0,0.0,0.0,0.0,0.0,0.0,0.0,0.0,0.0,0.0,0.0,0.0,0.0,0.0,0.0,0.0,0.0,0.0,0.0,0.0,0.0,0.0,0.0,0.0,0.0,0.0,0.0,0.0,0.0,0.0,0.0,0.0,0.0,0.0,0.0,0.0,0.0,0.0,0.0,0.0,0.0,0.0,0.0,0.0,0.0,0.0,0.0,0.0,0.0,0.0,0.0,0.0,0.0,0.0,0.0,0.0,0.0,0.0,0.0,0.0,0.0,0.0,0.0,-0.1433,-0.2726,-0.3037,-0.3126,-0.3215,-0.357,-0.4374,-0.4109,-0.2013,-0.2592,-0.2281,-0.018,0.0,0.0,0.0,0.0,0.0,0.0,0.0,0.0,0.0,0.0,0.0,0.0,0.0,0.0,0.0,0.0,0.0,0.0,0.0,0.0,0.0202,0.0,0.0,0.0,0.0,0.0,0.0,0.0,0.0,0.0,0.0,0.0,0.0,0.0,0.0,0.0,0.0,0.0,0.0,0.0,0.0,0.0,0.0,0.0,0.0,0.0,0.0,0.0,0.0,0.0,0.0,0.0,0.0,0.0,0.0,0.0,0.0,0.0,0.0,0.0,0.0,0.0,0.0,0.0,0.0,0.0,0.0,0.0,0.0,0.0,0.0,0.0,0.0,0.0,0.0,0.0,0.0,0.0,0.0,0.0,0.0,0.0,0.0,0.0,0.0,0.0,0.0,0.0,0.0,0.0,0.0,0.0,0.0,0.0,0.0,0.0,0.0,0.0,0.0,0.0,-0.0045,-0.0494,-0.17,-0.1879,-0.2281,-0.3436,-0.3614,-0.317,-0.1924,-0.1835,-0.1344,-0.009,0.0,0.0,0.0,0.0,0.0,0.0,0.0,0.0,0.0,0.0,0.0,0.0,0.0,0.0,0.0,0.0,0.0,0.0,0.0,0.2009,0.1074,0.0,0.0,0.0,0.0,0.0,0.0,0.0,0.0,0.0,0.0,0.0,0.0,0.0,0.0,0.0,0.0,0.0,0.0,0.0,0.0,0.0,0.0,0.0,0.0,0.0,0.0,0.0,0.0,0.0,0.0,0.0,0.0,0.0,0.0,0.0,0.0,0.0,0.0,0.0,0.0,0.0,0.0,0.0,0.0,0.0,0.0,0.0,0.0,0.0,0.0,0.0,0.0,0.0,0.0,0.0,0.0,0.0,0.0,0.0,0.0,0.0,0.0,0.0,0.0,0.0,0.0,0.0,0.0,0.0,0.0,0.0,0.0,0.0,0.0,0.0,0.0,0.0,0.0,0.0,0.0,-0.0135,-0.0539,-0.0628,-0.0763,-0.1165,-0.1924,-0.1969,-0.0718,-0.1344,-0.1299,-0.009,0.0,0.0,0.0,0.0,0.0,0.0,0.0,0.0,0.0,0.0,0.0,0.0,0.0,0.0,0.0,0.0,0.0,0.3949,0.358,0.0,0.2043,0.1808,0.0,0.0672,0.0,0.0,0.0,0.0,0.0,0.0,0.0,0.0,0.0,0.0,0.0,0.0,0.0,0.0,0.0,0.0,0.0,0.0,0.0,0.0,0.0,0.0,0.0,0.0,0.0,0.0,0.0,0.0,0.0,0.0,0.0,0.0,0.0,0.0,0.0,0.0,0.0,0.0,0.0,0.0,0.0,0.0,0.0,0.0,0.0,0.0,0.0,0.0,0.0,0.0,0.0,0.0,0.0,0.0,0.0,0.0,0.0,0.0,0.0,0.0,0.0,0.0,0.0,0.0,0.0,0.0,0.0,0.0,0.0,0.0,0.0,0.0,0.0,0.0,0.0,0.0,0.0,0.0,0.0,0.0,0.0,0.0,-0.0673,-0.0852,-0.009,-0.0718,-0.0852,-0.0045,0.0,0.0,0.0,0.0,0.0,0.0,0.0,0.0,0.0,0.0,0.0,0.0,0.0,0.0,0.0,0.0,0.0]}]]